UA342 / N77536 7700 Squawk Report (20th of January, 2019)

Aircraft B738 Reg No. N77536 Age 3 years old
Model 737 Jet engines 2 First flight 19-08-16
Registered 01-09-16 Rollout N/A Delivered 01-09-16
Construction No. 62766 Line No. 6056 Series 824
ADSHEX AA7E7A Airline name United Airlines Owner N/A
Airfield based Chicago O`Hare~IL~N First tracked 2017-07-13 08:10:00

Flight history for N77536

Route Flight No Date Playback
Ronald Reagan Washington Natl (DCA) - Chicago Ohare Intl (ORD) - Albany Intl (ALB) UA2284 2019-10-18 01:07:00
???? N/A 2019-10-17 23:27:00
San Francisco Intl (SFO) - John Wayne Arpt Orange Co (SNA) UA1106 2019-10-17 18:19:00
Los Angeles Intl (LAX) - San Francisco Intl (SFO) UA2201 2019-10-17 14:57:00
McCarran Intl (LAS) - Los Angeles Intl (LAX) UA1861 2019-10-17 01:44:00
Denver Intl (DEN) - McCarran Intl (LAS) UA691 2019-10-16 23:23:00
Spokane Intl (GEG) - Denver Intl (DEN) UA257 2019-10-16 20:34:00
Denver Intl (DEN) - Spokane Intl (GEG) UA502 2019-10-16 17:33:00
Richmond Intl (RIC) - Denver Intl (DEN) UA1194 2019-10-16 15:32:00
???? N/A 2019-10-16 02:52:00
Dane Co Rgnl Truax Fld (MSN) - Denver Intl (DEN) - Billings Logan International Airport (BIL) UA465 2019-10-16 00:13:00
Denver Intl (DEN) - Dane Co Rgnl Truax Fld (MSN) UA1026 2019-10-15 19:56:00
Calgary International (YYC) - Denver Intl (DEN) UA1275 2019-10-15 15:32:00
George Bush Intercontinental (IAH) - Calgary International (YYC) UA1780 2019-10-15 04:26:00
Tampa Intl (TPA) - George Bush Intercontinental (IAH) UA1115 2019-10-14 23:00:00
Orlando Intl (MCO) - George Bush Intercontinental (IAH) - Tampa Intl (TPA) UA1768 2019-10-14 19:55:00
Licenciado Benito Juarez (MEX) - George Bush Intercontinental (IAH) UA428 2019-10-14 14:58:00
George Bush Intercontinental (IAH) - Licenciado Benito Juarez (MEX) UA429 2019-10-14 13:55:00
Juan Santamaria Intl (SJO) - George Bush Intercontinental (IAH) UA1099 2019-10-13 22:39:00
George Bush Intercontinental (IAH) - Juan Santamaria Intl (SJO) UA1096 2019-10-13 18:22:00
Time Lat Lon Altitude Heading Speed Vertical Rate
2019-01-20 18:29:15 GMT 42.361977 -71.016121 0 261 3 0
2019-01-20 18:28:44 GMT 42.362045 -71.015533 0 264 1 0
2019-01-20 18:28:27 GMT 42.362061 -71.015465 0 270 5 0
2019-01-20 18:28:03 GMT 42.361908 -71.014832 0 300 5 0
2019-01-20 18:27:52 GMT 42.361782 -71.014503 0 272 7 0
2019-01-20 18:27:41 GMT 42.361801 -71.014137 0 219 6 0
2019-01-20 18:27:31 GMT 42.362034 -71.013954 0 199 8 0
2019-01-20 18:27:22 GMT 42.362476 -71.013741 0 199 12 0
2019-01-20 18:27:10 GMT 42.363037 -71.013466 0 199 11 0
2019-01-20 18:26:56 GMT 42.363701 -71.013153 0 199 11 0
2019-01-20 18:26:51 GMT 42.363979 -71.013016 0 199 12 0
2019-01-20 18:26:40 GMT 42.364471 -71.012787 0 199 12 0
2019-01-20 18:26:27 GMT 42.365055 -71.012489 0 199 11 0
2019-01-20 18:26:20 GMT 42.365421 -71.012306 0 199 11 0
2019-01-20 18:26:05 GMT 42.366062 -71.012016 0 199 11 0
2019-01-20 18:25:58 GMT 42.366341 -71.011871 0 199 11 0
2019-01-20 18:25:48 GMT 42.366795 -71.011658 0 199 10 0
2019-01-20 18:25:37 GMT 42.367226 -71.011459 0 194 9 0
2019-01-20 18:25:26 GMT 42.367664 -71.011398 0 163 9 0
2019-01-20 18:25:16 GMT 42.368042 -71.011627 0 137 10 0
2019-01-20 18:25:06 GMT 42.368385 -71.012070 0 143 10 0
2019-01-20 18:24:56 GMT 42.368717 -71.012268 0 194 7 0
2019-01-20 18:24:46 GMT 42.368973 -71.012093 0 222 8 0
2019-01-20 18:24:35 GMT 42.369286 -71.011726 0 219 9 0
2019-01-20 18:24:25 GMT 42.369602 -71.011375 0 219 9 0
2019-01-20 18:24:14 GMT 42.369953 -71.011040 0 208 11 0
2019-01-20 18:24:03 GMT 42.370480 -71.010681 0 205 13 0
2019-01-20 18:23:00 GMT 42.373112 -71.008995 0 202 9 0
2019-01-20 18:22:42 GMT 42.373734 -71.008698 0 199 10 0
2019-01-20 18:22:38 GMT 42.373913 -71.008598 0 199 11 0
2019-01-20 18:21:09 GMT 42.377689 -71.006775 0 199 8 0
2019-01-20 18:21:06 GMT 42.377792 -71.006729 0 199 8 0
2019-01-20 18:20:57 GMT 42.378113 -71.006561 0 216 8 0
2019-01-20 18:20:46 GMT 42.378365 -71.006218 0 255 7 0
2019-01-20 18:20:35 GMT 42.378376 -71.005821 0 286 7 0
2019-01-20 18:20:26 GMT 42.378269 -71.005356 0 289 8 0
2019-01-20 18:20:14 GMT 42.378109 -71.004753 0 289 10 0
2019-01-20 18:17:06 GMT 42.364723 -71.005219 0 19 49 0
2019-01-20 18:16:47 GMT 42.358440 -71.008278 650 19 136 -192
2019-01-20 18:16:42 GMT 42.354950 -71.009949 650 19 136 -192
2019-01-20 18:16:29 GMT 42.347267 -71.013580 825 19 136 -960
2019-01-20 18:16:21 GMT 42.342518 -71.015945 1,000 19 143 -960
2019-01-20 18:16:17 GMT 42.340805 -71.016747 975 19 141 -896
2019-01-20 18:16:14 GMT 42.338058 -71.018120 1,050 19 143 -960
2019-01-20 18:16:08 GMT 42.331329 -71.021370 1,400 20 140 -896
2019-01-20 18:15:55 GMT 42.326321 -71.023804 1,300 20 136 -704
2019-01-20 18:15:46 GMT 42.321762 -71.026047 1,425 19 138 -896
2019-01-20 18:15:43 GMT 42.318878 -71.027489 1,500 20 147 -576
2019-01-20 18:15:36 GMT 42.315380 -71.029167 1,550 20 147 -640
2019-01-20 18:15:33 GMT 42.313614 -71.030106 1,650 18 151 -896
2019-01-20 18:15:29 GMT 42.310913 -71.031296 1,650 18 151 -896
2019-01-20 18:15:24 GMT 42.306610 -71.033104 1,725 19 159 -832
2019-01-20 18:15:19 GMT 42.303726 -71.034538 1,775 20 164 -960
2019-01-20 18:15:16 GMT 42.301086 -71.035812 1,850 19 167 -1088
2019-01-20 18:15:12 GMT 42.298157 -71.037277 1,900 20 174 -960
2019-01-20 18:15:05 GMT 42.293381 -71.039658 2,025 20 182 -1024
2019-01-20 18:15:00 GMT 42.289948 -71.041405 2,100 20 187 -960
2019-01-20 18:14:52 GMT 42.282944 -71.044899 2,225 19 199 -960
2019-01-20 18:14:49 GMT 42.280746 -71.045959 2,275 18 201 -960
2019-01-20 18:14:44 GMT 42.276260 -71.048019 2,350 18 205 -1088
2019-01-20 18:14:40 GMT 42.271805 -71.050056 2,450 19 210 -1152
2019-01-20 18:14:32 GMT 42.264359 -71.053703 2,600 20 214 -1152
2019-01-20 18:14:27 GMT 42.259377 -71.056183 2,725 19 217 -1216
2019-01-20 18:14:24 GMT 42.256443 -71.057587 2,775 19 218 -1152
2019-01-20 18:14:18 GMT 42.252090 -71.059692 2,850 19 220 -1216
2019-01-20 18:14:13 GMT 42.246948 -71.062126 3,125 19 221 -1024
2019-01-20 18:14:10 GMT 42.244629 -71.063255 3,125 19 221 -1024
2019-01-20 18:14:06 GMT 42.239319 -71.065811 3,125 19 221 -1024
2019-01-20 18:14:02 GMT 42.236797 -71.066978 3,150 19 222 -1024
2019-01-20 18:13:57 GMT 42.231770 -71.069405 3,250 19 222 -1088
2019-01-20 18:13:52 GMT 42.226227 -71.071991 3,350 19 222 -1216
2019-01-20 18:13:48 GMT 42.222366 -71.073875 3,450 20 220 -1280
2019-01-20 18:13:42 GMT 42.216339 -71.076859 3,575 20 220 -1024
2019-01-20 18:13:37 GMT 42.212036 -71.078987 3,625 20 220 -320
2019-01-20 18:13:31 GMT 42.206352 -71.081795 3,625 20 221 0
2019-01-20 18:13:27 GMT 42.196438 -71.086845 3,625 21 223 0
2019-01-20 18:13:21 GMT 42.188850 -71.090546 3,625 20 223 0
2019-01-20 18:13:14 GMT 42.188850 -71.090546 3,625 16 224 0
2019-01-20 18:13:10 GMT 42.185593 -71.091888 3,625 13 224 0
2019-01-20 18:13:03 GMT 42.178654 -71.093803 3,625 4 222 128
2019-01-20 18:13:00 GMT 42.175491 -71.094193 3,625 1 222 64
2019-01-20 18:12:56 GMT 42.170834 -71.094315 3,600 359 222 -192
2019-01-20 18:12:50 GMT 42.164875 -71.094124 3,700 0 223 -640
2019-01-20 18:12:45 GMT 42.160454 -71.093933 3,700 359 223 -768
2019-01-20 18:12:42 GMT 42.157475 -71.093872 3,725 359 223 -704
2019-01-20 18:12:38 GMT 42.153717 -71.093781 3,775 0 223 -704
2019-01-20 18:12:34 GMT 42.149094 -71.093712 3,950 0 227 -896
2019-01-20 18:12:29 GMT 42.142868 -71.093590 3,900 0 225 -832
2019-01-20 18:12:22 GMT 42.135876 -71.093613 4,000 0 226 -832
2019-01-20 18:12:18 GMT 42.132111 -71.093651 4,050 0 227 -960
2019-01-20 18:12:14 GMT 42.127808 -71.093651 4,125 0 227 -960
2019-01-20 18:12:11 GMT 42.124969 -71.093651 4,150 0 228 -832
2019-01-20 18:12:08 GMT 42.121162 -71.093681 4,200 0 228 -704
2019-01-20 18:12:03 GMT 42.116833 -71.093681 4,250 0 229 -768
2019-01-20 18:12:00 GMT 42.114075 -71.093712 4,300 0 230 -1024
2019-01-20 18:11:56 GMT 42.105568 -71.093933 4,475 1 230 -1088
2019-01-20 18:11:53 GMT 42.105568 -71.093933 4,425 1 230 -896
2019-01-20 18:11:50 GMT 42.102585 -71.094025 4,475 2 231 -896
2019-01-20 18:11:47 GMT 42.098724 -71.094254 4,525 1 231 -960
2019-01-20 18:11:42 GMT 42.094025 -71.094467 4,600 1 233 -640
2019-01-20 18:11:39 GMT 42.090912 -71.094589 4,600 1 236 -64
2019-01-20 18:11:36 GMT 42.087341 -71.094711 4,625 2 241 -64
2019-01-20 18:11:30 GMT 42.080151 -71.095085 4,625 1 243 -128
2019-01-20 18:11:25 GMT 42.075542 -71.095215 4,625 352 243 -192
2019-01-20 18:11:22 GMT 42.072144 -71.095215 4,650 354 244 -256
2019-01-20 18:11:19 GMT 42.068344 -71.094841 4,650 350 242 -64
2019-01-20 18:11:13 GMT 42.061298 -71.092659 4,650 338 234 64
2019-01-20 18:11:09 GMT 42.057758 -71.090744 4,650 334 230 64
2019-01-20 18:11:05 GMT 42.054016 -71.087784 4,650 322 217 64
2019-01-20 18:11:01 GMT 42.050217 -71.083717 4,650 312 208 0
2019-01-20 18:10:53 GMT 42.046188 -71.076988 4,625 302 201 256
2019-01-20 18:10:50 GMT 42.044540 -71.073486 4,625 301 200 0
2019-01-20 18:10:44 GMT 42.041790 -71.067108 4,625 300 200 64
2019-01-20 18:10:38 GMT 42.038773 -71.060066 4,625 300 200 64
2019-01-20 18:10:33 GMT 42.036987 -71.055885 4,625 301 199 0
2019-01-20 18:10:27 GMT 42.034012 -71.048958 4,625 300 200 64
2019-01-20 18:10:23 GMT 42.031921 -71.044113 4,625 300 200 0
2019-01-20 18:10:16 GMT 42.028992 -71.037338 4,625 301 205 -384
2019-01-20 18:10:13 GMT 42.027008 -71.032791 4,625 301 203 -64
2019-01-20 18:10:07 GMT 42.024170 -71.026176 4,650 301 205 -704
2019-01-20 18:10:04 GMT 42.020889 -71.018562 4,700 300 206 -832
2019-01-20 18:10:01 GMT 42.020889 -71.018562 4,750 300 207 -832
2019-01-20 18:09:56 GMT 42.019135 -71.014503 4,800 299 207 -576
2019-01-20 18:09:52 GMT 42.017715 -71.011009 4,800 296 206 -128
2019-01-20 18:09:49 GMT 42.016327 -71.007324 4,825 287 200 -512
2019-01-20 18:09:46 GMT 42.014923 -71.001701 4,875 277 194 -1024
2019-01-20 18:09:42 GMT 42.014557 -70.998184 4,925 167 207 -768
2019-01-20 18:09:39 GMT 42.014465 -70.994835 4,950 268 191 -704
2019-01-20 18:09:35 GMT 42.014885 -70.990074 5,000 247 188 -576
2019-01-20 18:09:31 GMT 42.016022 -70.985291 5,025 241 186 -1024
2019-01-20 18:09:27 GMT 42.017990 -70.980606 5,150 231 183 -1536
2019-01-20 18:09:24 GMT 42.018768 -70.979355 5,200 196 190 -768
2019-01-20 18:09:19 GMT 42.021835 -70.975426 5,275 216 184 -1216
2019-01-20 18:09:14 GMT 42.025780 -70.972321 5,400 196 190 -768
2019-01-20 18:09:09 GMT 42.029781 -70.970596 5,425 188 194 -704
2019-01-20 18:09:03 GMT 42.035294 -70.970116 5,500 175 200 -1216
2019-01-20 18:08:59 GMT 42.039093 -70.970802 5,575 165 208 -704
2019-01-20 18:08:54 GMT 42.045006 -70.973404 5,650 150 221 -1088
2019-01-20 18:08:49 GMT 42.048569 -70.976051 5,750 142 228 -1280
2019-01-20 18:08:45 GMT 42.052822 -70.980560 5,825 132 237 -640
2019-01-20 18:08:42 GMT 42.056873 -70.986816 5,850 128 243 -512
2019-01-20 18:08:39 GMT 42.056873 -70.986816 5,875 123 250 -384
2019-01-20 18:08:34 GMT 42.059738 -70.992775 5,925 113 261 -768
2019-01-20 18:08:31 GMT 42.061298 -70.997231 5,975 108 268 -1344
2019-01-20 18:08:28 GMT 42.062485 -71.001831 6,050 104 271 -1664
2019-01-20 18:08:21 GMT 42.064556 -71.012817 6,175 102 276 -576
2019-01-20 18:08:18 GMT 42.065735 -71.019684 6,225 102 275 -1472
2019-01-20 18:08:13 GMT 42.066833 -71.026237 6,325 102 274 -1344
2019-01-20 18:08:10 GMT 42.067581 -71.030571 6,375 103 274 -1216
2019-01-20 18:08:07 GMT 42.068527 -71.036163 6,450 103 273 -1536
2019-01-20 18:08:00 GMT 42.070587 -71.047775 6,600 103 273 -1088
2019-01-20 18:07:56 GMT 42.071587 -71.053696 6,675 102 274 -576
2019-01-20 18:07:53 GMT 42.072830 -71.061005 6,725 102 273 -1536
2019-01-20 18:07:50 GMT 42.073399 -71.064491 6,950 101 271 -1152
2019-01-20 18:07:46 GMT 42.074432 -71.070930 6,925 101 270 -1600
2019-01-20 18:07:40 GMT 42.076080 -71.081352 7,000 96 277 -320
2019-01-20 18:07:36 GMT 42.076939 -71.090034 7,050 91 282 -1280
2019-01-20 18:07:32 GMT 42.076904 -71.096085 7,150 84 290 -1216
2019-01-20 18:07:28 GMT 42.076538 -71.102394 7,200 80 295 -1088
2019-01-20 18:07:25 GMT 42.075821 -71.107796 7,275 73 300 -1088
2019-01-20 18:07:19 GMT 42.073261 -71.118912 7,400 64 308 -1216
2019-01-20 18:07:15 GMT 42.070724 -71.126175 7,475 58 310 -1344
2019-01-20 18:07:09 GMT 42.065441 -71.137047 7,600 51 314 -1152
2019-01-20 18:07:04 GMT 42.061615 -71.142906 7,675 41 317 -768
2019-01-20 18:06:58 GMT 42.054081 -71.151360 7,825 31 314 -1664
2019-01-20 18:06:53 GMT 42.049797 -71.154999 7,900 27 313 -1344
2019-01-20 18:06:50 GMT 42.044815 -71.158447 7,975 21 309 -896
2019-01-20 18:06:46 GMT 42.038818 -71.161690 8,000 21 309 -1024
2019-01-20 18:06:43 GMT 42.035599 -71.163300 8,100 20 308 -1280
2019-01-20 18:06:39 GMT 42.029663 -71.166191 8,200 19 309 -1280
2019-01-20 18:06:36 GMT 42.026596 -71.167686 8,225 19 308 -1152
2019-01-20 18:06:32 GMT 42.021774 -71.170006 8,300 20 307 -1280
2019-01-20 18:06:28 GMT 42.015564 -71.172989 8,375 20 308 -1088
2019-01-20 18:06:25 GMT 42.010788 -71.175377 8,475 20 308 -1152
2019-01-20 18:06:17 GMT 42.001923 -71.179855 8,550 20 310 -640
2019-01-20 18:06:14 GMT 41.996262 -71.182716 8,600 20 313 -448
2019-01-20 18:06:11 GMT 41.993591 -71.184036 8,600 20 313 -576
2019-01-20 18:06:08 GMT 41.985416 -71.188278 8,675 20 315 -704
2019-01-20 18:06:02 GMT 41.979858 -71.191093 8,725 21 317 -448
2019-01-20 18:05:57 GMT 41.973824 -71.194283 8,750 21 321 -384
2019-01-20 18:05:53 GMT 41.968277 -71.197151 8,800 21 323 -512
2019-01-20 18:05:50 GMT 41.964523 -71.199150 8,800 21 323 -448
2019-01-20 18:05:47 GMT 41.958801 -71.202141 8,825 21 325 -512
2019-01-20 18:05:44 GMT 41.956554 -71.203285 8,850 20 327 -320
2019-01-20 18:05:41 GMT 41.950333 -71.206451 8,850 20 328 -320
2019-01-20 18:05:36 GMT 41.944637 -71.209358 8,900 20 330 -576
2019-01-20 18:05:32 GMT 41.938725 -71.212296 8,950 20 331 -1088
2019-01-20 18:05:29 GMT 41.934998 -71.214188 9,025 19 330 -1344
2019-01-20 18:05:26 GMT 41.929787 -71.216698 9,125 19 330 -1984
2019-01-20 18:05:22 GMT 41.924202 -71.219383 9,250 19 329 -1792
2019-01-20 18:05:19 GMT 41.919022 -71.221870 9,350 19 328 -1728
2019-01-20 18:05:14 GMT 41.907394 -71.227364 9,625 19 327 -2176
2019-01-20 18:05:06 GMT 41.899433 -71.231201 9,850 19 324 -2112
2019-01-20 18:05:03 GMT 41.897060 -71.232346 9,900 20 323 -2048
2019-01-20 18:04:59 GMT 41.890404 -71.235603 10,050 20 322 -1792
2019-01-20 18:04:54 GMT 41.884678 -71.238419 10,150 20 323 -1792
2019-01-20 18:04:51 GMT 41.880020 -71.240654 10,275 20 321 -1856
2019-01-20 18:04:48 GMT 41.875832 -71.242760 10,350 20 321 -1728
2019-01-20 18:04:44 GMT 41.870434 -71.245506 10,450 20 321 -1472
2019-01-20 18:04:41 GMT 41.864548 -71.248459 10,525 20 323 -960
2019-01-20 18:04:38 GMT 41.861069 -71.250206 10,575 20 323 -960
2019-01-20 18:04:33 GMT 41.854046 -71.253685 10,675 20 326 -896
2019-01-20 18:04:30 GMT 41.850510 -71.255470 10,700 20 326 -960
2019-01-20 18:04:25 GMT 41.843849 -71.258797 10,825 20 327 -1408
2019-01-20 18:04:22 GMT 41.838409 -71.261444 10,825 20 327 -1408
2019-01-20 18:04:19 GMT 41.835709 -71.262817 10,900 20 328 -1472
2019-01-20 18:04:14 GMT 41.827606 -71.266907 11,050 19 328 -1408
2019-01-20 18:04:10 GMT 41.821178 -71.269974 11,150 19 328 -1344
2019-01-20 18:04:05 GMT 41.815430 -71.272682 11,225 19 329 -1088
2019-01-20 18:04:02 GMT 41.806236 -71.277252 11,300 23 332 -1024
2019-01-20 18:03:55 GMT 41.800598 -71.280792 11,450 30 337 -1472
2019-01-20 18:03:52 GMT 41.796661 -71.283852 11,500 34 338 -1408
2019-01-20 18:03:48 GMT 41.792084 -71.287910 11,575 38 339 -1280
2019-01-20 18:03:45 GMT 41.786964 -71.293411 11,675 44 338 -1280
2019-01-20 18:03:42 GMT 41.784264 -71.296669 11,675 44 338 -1280
2019-01-20 18:03:38 GMT 41.779888 -71.302994 11,800 53 334 -1472
2019-01-20 18:03:33 GMT 41.776108 -71.309822 11,900 57 332 -1536
2019-01-20 18:03:30 GMT 41.772125 -71.318375 12,025 60 330 -1344
2019-01-20 18:03:27 GMT 41.770950 -71.321007 12,075 60 329 -1280
2019-01-20 18:03:24 GMT 41.768005 -71.327927 12,150 60 329 -1216
2019-01-20 18:03:21 GMT 41.766083 -71.332359 12,200 60 329 -1152
2019-01-20 18:03:17 GMT 41.763016 -71.339600 12,275 60 329 -1216
2019-01-20 18:03:11 GMT 41.758148 -71.351158 12,400 60 329 -1088
2019-01-20 18:03:07 GMT 41.755913 -71.356461 12,450 60 329 -1024
2019-01-20 18:03:03 GMT 41.752121 -71.365501 12,575 60 330 -960
2019-01-20 18:03:00 GMT 41.750519 -71.369247 12,575 60 330 -960
2019-01-20 18:02:56 GMT 41.747814 -71.375618 12,625 60 330 -896
2019-01-20 18:02:50 GMT 41.739853 -71.394592 12,750 60 333 -960
2019-01-20 18:02:47 GMT 41.739853 -71.394592 12,800 60 333 -896
2019-01-20 18:02:40 GMT 41.734634 -71.406761 12,900 59 335 -896
2019-01-20 18:02:35 GMT 41.731380 -71.414261 12,950 60 335 -640
2019-01-20 18:02:32 GMT 41.729473 -71.418800 13,000 63 335 -384
2019-01-20 18:02:29 GMT 41.726913 -71.425186 13,000 63 335 -384
2019-01-20 18:02:26 GMT 41.724167 -71.432404 13,025 64 337 -320
2019-01-20 18:02:19 GMT 41.720161 -71.444153 13,025 67 337 -256
2019-01-20 18:02:14 GMT 41.717651 -71.452332 13,075 68 341 -384
2019-01-20 18:02:11 GMT 41.714809 -71.461914 13,100 68 343 -384
2019-01-20 18:02:05 GMT 41.711967 -71.471367 13,125 68 355 -704
2019-01-20 18:02:01 GMT 41.710007 -71.477928 13,150 68 348 -320
2019-01-20 18:01:57 GMT 41.705498 -71.493210 13,200 68 353 -576
2019-01-20 18:01:54 GMT 41.705498 -71.493210 13,200 68 353 -576
2019-01-20 18:01:49 GMT 41.702499 -71.503395 13,275 68 355 -832
2019-01-20 18:01:45 GMT 41.699844 -71.512566 13,325 68 355 -1216
2019-01-20 18:01:39 GMT 41.696281 -71.524704 13,475 68 356 -1216
2019-01-20 18:01:36 GMT 41.694992 -71.529175 13,475 68 356 -1216
2019-01-20 18:01:31 GMT 41.689270 -71.548714 13,675 68 357 -1088
2019-01-20 18:01:27 GMT 41.689270 -71.548714 13,675 68 358 -1088
2019-01-20 18:01:21 GMT 41.685619 -71.561302 13,775 68 360 -1152
2019-01-20 18:01:17 GMT 41.682953 -71.570435 13,875 68 360 -1280
2019-01-20 18:01:13 GMT 41.680546 -71.578735 13,975 68 360 -1408
2019-01-20 18:01:10 GMT 41.679337 -71.582855 14,050 68 361 -1152
2019-01-20 18:01:06 GMT 41.676773 -71.591782 14,100 68 360 -1344
2019-01-20 18:01:03 GMT 41.674393 -71.599899 14,200 68 361 -1216
2019-01-20 18:00:59 GMT 41.669815 -71.615501 14,275 68 362 -1152
2019-01-20 18:00:56 GMT 41.669815 -71.615501 14,350 68 362 -1344
2019-01-20 18:00:53 GMT 41.668304 -71.620682 14,425 68 362 -1344
2019-01-20 18:00:49 GMT 41.666767 -71.626137 14,450 68 362 -1408
2019-01-20 18:00:45 GMT 41.663818 -71.636101 14,550 68 362 -1344
2019-01-20 18:00:41 GMT 41.661785 -71.643250 14,675 68 363 -1280
2019-01-20 18:00:38 GMT 41.659470 -71.651146 14,725 68 363 -1344
2019-01-20 18:00:34 GMT 41.657223 -71.658897 14,750 68 363 -1344
2019-01-20 18:00:29 GMT 41.654339 -71.668739 14,875 68 365 -1088
2019-01-20 18:00:25 GMT 41.651821 -71.677361 14,950 68 366 -1024
2019-01-20 18:00:22 GMT 41.649357 -71.685730 15,025 68 366 -1088
2019-01-20 18:00:19 GMT 41.648148 -71.689941 15,075 68 367 -1088
2019-01-20 18:00:13 GMT 41.644421 -71.702591 15,175 68 368 -1024
2019-01-20 18:00:09 GMT 41.641708 -71.711693 15,250 68 369 -1088
2019-01-20 18:00:04 GMT 41.637997 -71.724243 15,350 68 369 -1344
2019-01-20 17:59:59 GMT 41.635483 -71.732735 15,450 68 370 -1152
2019-01-20 17:59:53 GMT 41.631729 -71.745468 15,550 68 373 -1216
2019-01-20 17:59:49 GMT 41.629433 -71.753181 15,625 68 373 -1152
2019-01-20 17:59:46 GMT 41.627151 -71.761101 15,675 68 373 -1344
2019-01-20 17:59:43 GMT 41.624496 -71.770126 15,775 68 373 -1280
2019-01-20 17:59:38 GMT 41.622437 -71.777237 15,800 68 374 -1280
2019-01-20 17:59:35 GMT 41.620743 -71.783043 16,050 68 374 -1152
2019-01-20 17:59:32 GMT 41.617813 -71.793159 16,025 68 375 -1216
2019-01-20 17:59:28 GMT 41.616165 -71.798782 16,025 68 375 -1216
2019-01-20 17:59:23 GMT 41.612595 -71.811073 16,150 68 376 -1344
2019-01-20 17:59:17 GMT 41.609528 -71.821686 16,250 68 376 -1344
2019-01-20 17:59:14 GMT 41.605038 -71.837044 16,325 68 376 -1216
2019-01-20 17:59:11 GMT 41.605038 -71.837044 16,400 68 378 -1024
2019-01-20 17:59:07 GMT 41.598679 -71.858391 16,500 68 380 -704
2019-01-20 17:59:01 GMT 41.598679 -71.858391 16,525 68 382 -640
2019-01-20 17:58:57 GMT 41.596390 -71.866066 16,575 68 383 -1024
2019-01-20 17:58:54 GMT 41.594376 -71.872871 16,650 68 385 -1280
2019-01-20 17:58:51 GMT 41.592003 -71.880798 16,700 68 385 -1280
2019-01-20 17:58:47 GMT 41.589817 -71.888077 16,800 68 387 -1408
2019-01-20 17:58:43 GMT 41.587372 -71.896027 16,875 67 387 -1600
2019-01-20 17:58:40 GMT 41.585312 -71.902893 17,175 64 404 -1984
2019-01-20 17:58:37 GMT 41.582932 -71.910637 17,050 67 389 -1216
2019-01-20 17:58:33 GMT 41.580551 -71.918442 18,025 67 397 -1600
2019-01-20 17:58:29 GMT 41.577896 -71.927177 17,175 68 395 -960
2019-01-20 17:58:26 GMT 41.575790 -71.934166 17,200 68 395 -1280
2019-01-20 17:58:23 GMT 41.573242 -71.942566 17,275 67 396 -1664
2019-01-20 17:58:20 GMT 41.571472 -71.948441 17,350 67 397 -1536
2019-01-20 17:58:17 GMT 41.568588 -71.957954 17,450 67 397 -1600
2019-01-20 17:58:11 GMT 41.565048 -71.969521 17,600 68 397 -1664
2019-01-20 17:58:08 GMT 41.563328 -71.975204 17,750 68 397 -1664
2019-01-20 17:58:05 GMT 41.560776 -71.983856 17,775 67 399 -1664
2019-01-20 17:58:00 GMT 41.557041 -71.995644 17,925 65 401 -1984
2019-01-20 17:57:56 GMT 41.551666 -72.011200 18,125 64 403 -2304
2019-01-20 17:57:53 GMT 41.551666 -72.011200 18,200 63 404 -2304
2019-01-20 17:57:48 GMT 41.548233 -72.020561 18,350 63 404 -2304
2019-01-20 17:57:45 GMT 41.545406 -72.028152 18,575 63 403 -2304
2019-01-20 17:57:42 GMT 41.542847 -72.035057 18,600 63 403 -2304
2019-01-20 17:57:39 GMT 41.540470 -72.041504 18,700 63 403 -2304
2019-01-20 17:57:35 GMT 41.537071 -72.050705 18,975 63 402 -2368
2019-01-20 17:57:32 GMT 41.534370 -72.058052 19,000 63 402 -2304
2019-01-20 17:57:27 GMT 41.530930 -72.067383 19,225 64 402 -2176
2019-01-20 17:57:24 GMT 41.528507 -72.074081 19,350 64 402 -2240
2019-01-20 17:57:21 GMT 41.525757 -72.081673 19,350 64 402 -2240
2019-01-20 17:57:18 GMT 41.523239 -72.088600 19,525 64 402 -2240
2019-01-20 17:57:14 GMT 41.519569 -72.098930 19,725 64 402 -2112
2019-01-20 17:57:11 GMT 41.517471 -72.104706 20,250 64 407 -2176
2019-01-20 17:57:08 GMT 41.514729 -72.112343 19,975 64 403 -1984
2019-01-20 17:57:04 GMT 41.512115 -72.119499 20,025 64 404 -1984
2019-01-20 17:57:01 GMT 41.508720 -72.128952 20,150 64 404 -1984
2019-01-20 17:56:57 GMT 41.506485 -72.135231 20,200 64 405 -1984
2019-01-20 17:56:53 GMT 41.500626 -72.151398 20,475 64 405 -1984
2019-01-20 17:56:46 GMT 41.497147 -72.161140 20,625 64 407 -2112
2019-01-20 17:56:43 GMT 41.494949 -72.167191 20,800 64 407 -1984
2019-01-20 17:56:40 GMT 41.491776 -72.176025 21,175 63 411 -1792
2019-01-20 17:56:36 GMT 41.489216 -72.183052 20,975 63 409 -1920
2019-01-20 17:56:33 GMT 41.486755 -72.189789 21,075 63 410 -1856
2019-01-20 17:56:29 GMT 41.484142 -72.196846 21,075 63 410 -1856
2019-01-20 17:56:25 GMT 41.480091 -72.207703 21,250 63 412 -1920
2019-01-20 17:56:21 GMT 41.475903 -72.218819 21,425 63 415 -1472
2019-01-20 17:56:18 GMT 41.471249 -72.231148 21,500 63 416 -1152
2019-01-20 17:56:14 GMT 41.471249 -72.231148 21,575 63 418 -960
2019-01-20 17:56:10 GMT 41.466202 -72.244469 21,725 63 420 -1280
2019-01-20 17:56:07 GMT 41.464451 -72.249100 21,725 63 420 -1728
2019-01-20 17:56:04 GMT 41.462128 -72.255081 21,775 63 419 -1600
2019-01-20 17:56:01 GMT 41.459061 -72.263199 21,875 63 419 -1472
2019-01-20 17:55:58 GMT 41.456360 -72.270317 21,925 63 419 -1408
2019-01-20 17:55:54 GMT 41.453110 -72.278862 22,050 63 421 -1344
2019-01-20 17:55:51 GMT 41.450592 -72.285606 22,075 63 421 -1344
2019-01-20 17:55:48 GMT 41.447643 -72.293488 22,150 63 424 0
2019-01-20 17:55:45 GMT 41.446064 -72.297638 22,325 63 426 -1152
2019-01-20 17:55:42 GMT 41.442989 -72.305817 22,250 63 424 -1088
2019-01-20 17:55:38 GMT 41.439590 -72.314949 22,300 63 425 -1088
2019-01-20 17:55:35 GMT 41.434704 -72.328041 22,475 63 426 -1600
2019-01-20 17:55:29 GMT 41.431686 -72.336044 22,575 63 425 -2624
2019-01-20 17:55:26 GMT 41.429306 -72.342407 22,700 63 424 -2880
2019-01-20 17:55:22 GMT 41.425301 -72.353081 22,900 63 423 -1856
2019-01-20 17:55:19 GMT 41.422741 -72.359856 22,975 63 425 -832
2019-01-20 17:55:16 GMT 41.419235 -72.369194 23,000 63 425 -128
2019-01-20 17:55:13 GMT 41.416672 -72.375992 23,000 63 425 -64
2019-01-20 17:55:10 GMT 41.414474 -72.381859 23,000 63 425 0
2019-01-20 17:55:07 GMT 41.411407 -72.390038 23,000 63 424 0
2019-01-20 17:55:03 GMT 41.408401 -72.397987 23,000 63 424 0
2019-01-20 17:55:00 GMT 41.405090 -72.406830 23,000 63 425 0
2019-01-20 17:54:56 GMT 41.402161 -72.414574 23,000 63 425 0
2019-01-20 17:54:53 GMT 41.398624 -72.423920 23,000 63 424 0
2019-01-20 17:54:46 GMT 41.393280 -72.438103 23,000 63 425 0
2019-01-20 17:54:43 GMT 41.391083 -72.443970 23,000 63 424 0
2019-01-20 17:54:40 GMT 41.388153 -72.451653 23,000 63 424 0
2019-01-20 17:54:37 GMT 41.385406 -72.458862 23,000 63 424 0
2019-01-20 17:54:34 GMT 41.382378 -72.466820 23,000 63 424 -64
2019-01-20 17:54:30 GMT 41.376297 -72.482849 23,000 63 424 -64
2019-01-20 17:54:27 GMT 41.376297 -72.482849 23,000 63 423 0
2019-01-20 17:54:22 GMT 41.371994 -72.494263 23,025 63 423 64
2019-01-20 17:54:19 GMT 41.369797 -72.500061 23,000 63 423 64
2019-01-20 17:54:16 GMT 41.366459 -72.508888 23,000 63 423 64
2019-01-20 17:54:12 GMT 41.363899 -72.515633 23,000 63 423 0
2019-01-20 17:54:09 GMT 41.359955 -72.526123 23,000 63 423 0
2019-01-20 17:54:04 GMT 41.355377 -72.538231 23,000 63 423 0
2019-01-20 17:54:01 GMT 41.353889 -72.542229 23,000 63 424 -64
2019-01-20 17:53:58 GMT 41.351143 -72.549400 23,000 63 424 -64
2019-01-20 17:53:55 GMT 41.347961 -72.557800 23,000 63 424 0
2019-01-20 17:53:51 GMT 41.345509 -72.564262 23,000 63 424 0
2019-01-20 17:53:47 GMT 41.340809 -72.576622 23,000 63 424 0
2019-01-20 17:53:41 GMT 41.336105 -72.588928 23,000 63 425 64
2019-01-20 17:53:37 GMT 41.326378 -72.614632 23,000 63 425 -64
2019-01-20 17:53:31 GMT 41.326378 -72.614632 23,000 63 425 -64
2019-01-20 17:53:28 GMT 41.324051 -72.620689 23,000 63 426 0
2019-01-20 17:53:23 GMT 41.320141 -72.630989 23,000 63 426 0
2019-01-20 17:53:20 GMT 41.317390 -72.638229 23,000 63 426 0
2019-01-20 17:53:16 GMT 41.313492 -72.648499 23,000 63 426 0
2019-01-20 17:53:13 GMT 41.311386 -72.654083 23,000 63 428 64
2019-01-20 17:53:10 GMT 41.308594 -72.661324 23,000 63 427 0
2019-01-20 17:53:07 GMT 41.305847 -72.668633 23,000 63 427 0
2019-01-20 17:53:04 GMT 41.302277 -72.677979 23,000 63 427 0
2019-01-20 17:52:58 GMT 41.298248 -72.688477 23,000 63 428 64
2019-01-20 17:52:55 GMT 41.295181 -72.696472 23,000 63 428 64
2019-01-20 17:52:52 GMT 41.292252 -72.704163 23,000 63 428 -128
2019-01-20 17:52:48 GMT 41.289093 -72.712402 23,000 63 428 -64
2019-01-20 17:52:45 GMT 41.286987 -72.718018 22,975 63 428 64
2019-01-20 17:52:42 GMT 41.283234 -72.727905 23,025 63 428 -64
2019-01-20 17:52:38 GMT 41.277824 -72.742226 23,025 63 428 -64
2019-01-20 17:52:32 GMT 41.274948 -72.749695 23,000 63 429 192
2019-01-20 17:52:29 GMT 41.271912 -72.757706 23,000 62 431 128
2019-01-20 17:52:26 GMT 41.268997 -72.765259 23,000 62 455 64
2019-01-20 17:52:23 GMT 41.265976 -72.773071 23,000 62 438 -128
2019-01-20 17:52:20 GMT 41.263996 -72.778053 23,000 62 440 -192
2019-01-20 17:52:17 GMT 41.260941 -72.786011 23,000 62 450 256
2019-01-20 17:52:12 GMT 41.253338 -72.805710 23,000 62 451 192
2019-01-20 17:52:09 GMT 41.253338 -72.805710 23,000 62 452 256
2019-01-20 17:52:05 GMT 41.246338 -72.823669 23,000 62 454 64
2019-01-20 17:52:01 GMT 41.246338 -72.823669 23,500 48 508 -1216
2019-01-20 17:51:57 GMT 41.242584 -72.833366 22,975 61 463 -64
2019-01-20 17:51:54 GMT 41.239288 -72.841797 22,975 62 457 64
2019-01-20 17:51:50 GMT 41.235901 -72.850525 22,975 61 462 -64
2019-01-20 17:51:46 GMT 41.231503 -72.861511 22,975 61 465 0
2019-01-20 17:51:43 GMT 41.228291 -72.869255 23,000 59 474 -320
2019-01-20 17:51:39 GMT 41.223999 -72.879272 23,000 58 477 -512
2019-01-20 17:51:36 GMT 41.216949 -72.894775 23,050 57 481 -832
2019-01-20 17:51:33 GMT 41.216949 -72.894775 23,075 55 487 -1280
2019-01-20 17:51:30 GMT 41.213257 -72.902466 23,225 55 489 -1216
2019-01-20 17:51:26 GMT 41.206924 -72.915077 23,225 55 489 -1216
2019-01-20 17:51:23 GMT 41.204224 -72.920258 23,250 54 490 -1216
2019-01-20 17:51:20 GMT 41.200012 -72.928040 23,450 52 497 -1152
2019-01-20 17:51:17 GMT 41.192230 -72.941895 23,450 52 498 -1152
2019-01-20 17:51:14 GMT 41.192230 -72.941895 23,450 51 499 -1216
2019-01-20 17:51:07 GMT 41.176895 -72.966980 23,625 48 507 -1216
2019-01-20 17:51:04 GMT 41.176895 -72.966980 23,650 48 508 -1280
2019-01-20 17:51:01 GMT 41.173824 -72.971626 23,700 48 510 -1152
2019-01-20 17:50:57 GMT 41.166656 -72.982430 23,750 48 510 -1152
2019-01-20 17:50:54 GMT 41.157673 -72.995789 23,875 48 514 -1088
2019-01-20 17:50:51 GMT 41.157673 -72.995789 24,000 48 518 -1088
2019-01-20 17:50:47 GMT 41.150597 -73.006462 23,975 48 515 -1088
2019-01-20 17:50:44 GMT 41.140633 -73.021317 24,050 48 515 -1024
2019-01-20 17:50:41 GMT 41.140633 -73.021317 24,075 48 518 -1088
2019-01-20 17:50:37 GMT 41.136703 -73.027222 24,125 48 515 -960
2019-01-20 17:50:34 GMT 41.129555 -73.037857 24,175 48 516 -1024
2019-01-20 17:50:30 GMT 41.124664 -73.045227 24,225 48 516 -1024
2019-01-20 17:50:26 GMT 41.117706 -73.055664 24,350 48 517 -960
2019-01-20 17:50:23 GMT 41.113770 -73.061646 24,350 48 517 -960
2019-01-20 17:50:19 GMT 41.108280 -73.069946 24,500 48 518 -1088
2019-01-20 17:50:16 GMT 41.101158 -73.080620 24,475 48 517 -1024
2019-01-20 17:50:13 GMT 41.091381 -73.095352 24,575 48 517 -960
2019-01-20 17:50:09 GMT 41.091381 -73.095352 24,750 48 518 -1088
2019-01-20 17:50:05 GMT 41.083607 -73.106956 24,675 48 516 -1024
2019-01-20 17:50:02 GMT 41.080124 -73.112183 24,700 48 517 -1024
2019-01-20 17:49:59 GMT 41.075226 -73.119507 24,925 48 517 -1024
2019-01-20 17:49:55 GMT 41.068569 -73.129433 24,825 48 517 -1024
2019-01-20 17:49:52 GMT 41.065384 -73.134216 24,900 48 519 -1024
2019-01-20 17:49:49 GMT 41.057861 -73.145287 24,900 48 519 -1024
2019-01-20 17:49:44 GMT 41.045666 -73.163391 25,050 48 521 -960
2019-01-20 17:49:41 GMT 41.045666 -73.163391 25,100 48 521 -1024
2019-01-20 17:49:38 GMT 41.041801 -73.169067 25,150 48 521 -1024
2019-01-20 17:49:34 GMT 41.031052 -73.184998 25,225 48 521 -1088
2019-01-20 17:49:28 GMT 41.024441 -73.194725 25,300 48 522 -960
2019-01-20 17:49:23 GMT 41.017365 -73.205215 25,375 48 524 -960
2019-01-20 17:49:17 GMT 41.008163 -73.218811 25,450 48 522 -960
2019-01-20 17:49:14 GMT 41.003349 -73.225998 25,550 48 522 -960
2019-01-20 17:49:11 GMT 40.996902 -73.235535 25,575 48 522 -960
2019-01-20 17:49:07 GMT 40.992596 -73.241920 25,675 48 521 -960
2019-01-20 17:49:02 GMT 40.982803 -73.256409 25,725 48 519 -1024
2019-01-20 17:48:58 GMT 40.976864 -73.265198 25,775 48 519 -1024
2019-01-20 17:48:54 GMT 40.966946 -73.279869 25,875 48 518 -960
2019-01-20 17:48:51 GMT 40.959320 -73.291260 25,975 48 517 -1024
2019-01-20 17:48:47 GMT 40.959320 -73.291260 26,000 48 518 -960
2019-01-20 17:48:41 GMT 40.943893 -73.314209 26,075 48 518 -960
2019-01-20 17:48:38 GMT 40.943893 -73.314209 26,150 48 518 -1024
2019-01-20 17:48:35 GMT 40.941341 -73.318008 26,150 48 519 -960
2019-01-20 17:48:31 GMT 40.930870 -73.333679 26,275 48 524 -960
2019-01-20 17:48:25 GMT 40.925003 -73.342415 26,325 48 519 -1088
2019-01-20 17:48:22 GMT 40.914322 -73.358337 26,400 48 519 -1024
2019-01-20 17:48:19 GMT 40.909012 -73.366150 26,475 48 522 -1152
2019-01-20 17:48:15 GMT 40.909012 -73.366150 26,675 48 524 -1024
2019-01-20 17:48:12 GMT 40.903263 -73.374687 26,525 48 522 -1152
2019-01-20 17:48:09 GMT 40.899399 -73.380432 26,600 48 522 -1024
2019-01-20 17:48:04 GMT 40.891579 -73.392044 26,675 48 523 -1088
2019-01-20 17:48:01 GMT 40.885620 -73.400909 26,775 48 524 -1088
2019-01-20 17:47:58 GMT 40.881729 -73.406616 26,800 48 524 -1088
2019-01-20 17:47:55 GMT 40.877060 -73.413513 26,825 48 524 -960
2019-01-20 17:47:52 GMT 40.871063 -73.422363 26,900 48 524 -1024
2019-01-20 17:47:49 GMT 40.866211 -73.429504 26,950 48 523 -832
2019-01-20 17:47:46 GMT 40.861084 -73.437134 27,000 48 523 0
2019-01-20 17:47:43 GMT 40.858200 -73.441406 27,000 48 523 0
2019-01-20 17:47:40 GMT 40.853210 -73.448792 27,000 48 523 64
2019-01-20 17:47:37 GMT 40.848221 -73.456177 27,000 48 524 64
2019-01-20 17:47:33 GMT 40.841125 -73.466736 27,000 48 524 0
2019-01-20 17:47:30 GMT 40.835495 -73.475098 27,000 48 524 -64
2019-01-20 17:47:27 GMT 40.831341 -73.481308 27,000 48 524 -64
2019-01-20 17:47:24 GMT 40.827484 -73.487000 27,000 48 524 -64
2019-01-20 17:47:21 GMT 40.821053 -73.496597 27,000 48 527 -64
2019-01-20 17:47:18 GMT 40.817184 -73.502319 27,000 48 524 128
2019-01-20 17:47:15 GMT 40.808205 -73.515701 27,000 48 525 192
2019-01-20 17:47:12 GMT 40.808205 -73.515701 26,975 48 525 128
2019-01-20 17:47:09 GMT 40.798241 -73.530617 27,000 48 525 -64
2019-01-20 17:47:03 GMT 40.793587 -73.537552 27,000 48 525 -128
2019-01-20 17:47:00 GMT 40.788605 -73.544975 27,000 48 526 192
2019-01-20 17:46:57 GMT 40.783264 -73.552856 27,000 48 526 192
2019-01-20 17:46:54 GMT 40.777954 -73.560791 27,000 48 527 -64
2019-01-20 17:46:50 GMT 40.771149 -73.570885 27,000 48 527 64
2019-01-20 17:46:47 GMT 40.767426 -73.576378 27,000 48 527 128
2019-01-20 17:46:44 GMT 40.763515 -73.582123 27,000 47 579 0
2019-01-20 17:46:41 GMT 40.756996 -73.591728 27,000 48 529 -192
2019-01-20 17:46:38 GMT 40.751270 -73.600159 27,000 48 533 -64
2019-01-20 17:46:35 GMT 40.747330 -73.605896 27,000 48 533 0
2019-01-20 17:46:32 GMT 40.742569 -73.612915 27,000 48 535 -64
2019-01-20 17:46:29 GMT 40.737583 -73.620193 27,000 47 542 -64
2019-01-20 17:46:26 GMT 40.732601 -73.627434 27,000 47 541 -64
2019-01-20 17:46:23 GMT 40.729065 -73.632553 27,000 47 543 -64
2019-01-20 17:46:20 GMT 40.722500 -73.642166 26,975 47 551 0
2019-01-20 17:46:17 GMT 40.717937 -73.648788 26,975 47 552 0
2019-01-20 17:46:14 GMT 40.712769 -73.656250 26,975 47 553 -64
2019-01-20 17:46:11 GMT 40.708302 -73.662766 26,975 47 564 64
2019-01-20 17:46:08 GMT 40.702744 -73.670837 26,975 47 566 64
2019-01-20 17:46:05 GMT 40.696804 -73.679436 26,975 47 568 64
2019-01-20 17:46:02 GMT 40.691685 -73.686867 26,975 47 571 64
2019-01-20 17:45:59 GMT 40.685303 -73.696167 26,975 47 575 -64
2019-01-20 17:45:56 GMT 40.675808 -73.709900 27,000 47 578 -64
2019-01-20 17:45:53 GMT 40.675808 -73.709900 27,000 47 578 0
2019-01-20 17:45:50 GMT 40.670425 -73.717712 27,000 47 579 0
2019-01-20 17:45:47 GMT 40.663422 -73.727905 27,000 47 579 -64
2019-01-20 17:45:43 GMT 40.656738 -73.737549 27,000 47 580 64
2019-01-20 17:45:40 GMT 40.652069 -73.744354 27,000 47 580 64
2019-01-20 17:45:36 GMT 40.639172 -73.763206 27,000 49 577 0
2019-01-20 17:45:33 GMT 40.633911 -73.771194 27,000 50 576 -64
2019-01-20 17:45:30 GMT 40.633911 -73.771194 27,000 50 576 -64
2019-01-20 17:45:27 GMT 40.628769 -73.779297 27,025 51 575 -64
2019-01-20 17:45:24 GMT 40.622089 -73.790169 27,025 51 575 0
2019-01-20 17:45:21 GMT 40.619293 -73.794853 27,025 51 574 0
2019-01-20 17:45:18 GMT 40.613846 -73.803894 27,025 51 575 -64
2019-01-20 17:45:15 GMT 40.605286 -73.818176 27,025 51 575 -64
2019-01-20 17:45:09 GMT 40.598721 -73.829124 27,025 51 576 0
2019-01-20 17:45:05 GMT 40.591965 -73.840393 27,025 51 576 0
2019-01-20 17:45:02 GMT 40.586849 -73.848915 27,025 51 576 0
2019-01-20 17:44:59 GMT 40.581711 -73.857422 27,025 51 576 -64
2019-01-20 17:44:55 GMT 40.576950 -73.865417 27,025 51 576 0
2019-01-20 17:44:52 GMT 40.570370 -73.876442 27,025 51 576 0
2019-01-20 17:44:49 GMT 40.565735 -73.884155 27,025 51 576 0
2019-01-20 17:44:46 GMT 40.560974 -73.892090 27,000 51 576 64
2019-01-20 17:44:43 GMT 40.556030 -73.900414 27,000 51 576 64
2019-01-20 17:44:40 GMT 40.547836 -73.914146 27,000 51 576 384
2019-01-20 17:44:37 GMT 40.540436 -73.926567 26,975 51 576 704
2019-01-20 17:44:34 GMT 40.540436 -73.926567 26,950 51 574 896
2019-01-20 17:44:30 GMT 40.535034 -73.935616 26,800 51 574 1472
2019-01-20 17:44:27 GMT 40.531082 -73.942200 26,825 51 574 1664
2019-01-20 17:44:23 GMT 40.523895 -73.954285 26,550 51 574 1792
2019-01-20 17:44:20 GMT 40.518997 -73.962524 26,625 51 575 1856
2019-01-20 17:44:17 GMT 40.514412 -73.970200 26,150 47 581 1280
2019-01-20 17:44:13 GMT 40.507851 -73.980751 26,425 49 578 2048
2019-01-20 17:44:10 GMT 40.501007 -73.991486 26,300 49 579 2048
2019-01-20 17:44:07 GMT 40.489151 -74.009216 26,050 37 592 512
2019-01-20 17:44:03 GMT 40.489151 -74.009216 26,050 37 592 512
2019-01-20 17:44:00 GMT 40.484062 -74.016457 26,025 45 583 320
2019-01-20 17:43:57 GMT 40.476471 -74.026939 26,025 45 583 320
2019-01-20 17:43:54 GMT 40.473450 -74.031006 26,025 44 583 256
2019-01-20 17:43:51 GMT 40.466976 -74.039490 26,025 43 584 64
2019-01-20 17:43:48 GMT 40.460972 -74.047104 26,025 42 585 -128
2019-01-20 17:43:42 GMT 40.449055 -74.061584 26,025 41 587 -64
2019-01-20 17:43:38 GMT 40.439713 -74.072449 26,025 40 589 -64
2019-01-20 17:43:35 GMT 40.435822 -74.076843 26,025 39 589 -64
2019-01-20 17:43:31 GMT 40.427673 -74.085815 26,025 39 591 0
2019-01-20 17:43:28 GMT 40.420425 -74.093483 26,025 38 592 0
2019-01-20 17:43:25 GMT 40.413769 -74.100349 26,025 37 593 0
2019-01-20 17:43:22 GMT 40.407436 -74.106651 25,950 37 592 1344
2019-01-20 17:43:19 GMT 40.400436 -74.113647 25,950 37 592 896
2019-01-20 17:43:16 GMT 40.394356 -74.119759 25,925 37 592 1088
2019-01-20 17:43:13 GMT 40.381691 -74.132370 25,850 37 592 1728
2019-01-20 17:43:10 GMT 40.375809 -74.138245 25,700 37 592 2304
2019-01-20 17:43:07 GMT 40.375809 -74.138245 25,575 37 593 2112
2019-01-20 17:43:04 GMT 40.368423 -74.145668 25,375 37 592 1344
2019-01-20 17:43:01 GMT 40.362095 -74.151970 25,475 37 593 1664
2019-01-20 17:42:57 GMT 40.353390 -74.160713 25,375 37 592 1216
2019-01-20 17:42:53 GMT 40.345551 -74.168518 25,325 37 589 704
2019-01-20 17:42:50 GMT 40.339890 -74.174194 25,300 37 588 448
2019-01-20 17:42:47 GMT 40.332348 -74.181808 25,250 37 584 320
2019-01-20 17:42:44 GMT 40.324585 -74.189514 25,250 37 583 384
2019-01-20 17:42:40 GMT 40.316849 -74.197266 25,225 37 581 512
2019-01-20 17:42:37 GMT 40.309162 -74.204971 25,175 37 578 512
2019-01-20 17:42:34 GMT 40.304928 -74.209213 25,175 37 577 448
2019-01-20 17:42:31 GMT 40.296021 -74.218140 25,150 37 575 384
2019-01-20 17:42:28 GMT 40.291992 -74.222168 25,125 37 572 320
2019-01-20 17:42:25 GMT 40.285446 -74.228699 25,100 37 571 384
2019-01-20 17:42:22 GMT 40.276253 -74.237930 25,075 37 568 704
2019-01-20 17:42:19 GMT 40.265404 -74.248787 25,050 37 566 512
2019-01-20 17:42:16 GMT 40.265404 -74.248787 25,050 37 562 0
2019-01-20 17:42:13 GMT 40.259171 -74.255005 25,025 37 562 0
2019-01-20 17:42:10 GMT 40.250748 -74.263489 25,025 37 557 0
2019-01-20 17:42:05 GMT 40.241524 -74.272697 25,025 37 553 0
2019-01-20 17:42:01 GMT 40.234028 -74.280251 25,025 37 549 0
2019-01-20 17:41:58 GMT 40.229782 -74.284485 25,025 37 544 0
2019-01-20 17:41:55 GMT 40.216370 -74.297913 25,025 37 541 64
2019-01-20 17:41:52 GMT 40.216370 -74.297913 25,025 37 540 128
2019-01-20 17:41:49 GMT 40.210800 -74.303474 25,000 37 536 576
2019-01-20 17:41:46 GMT 40.203911 -74.310402 24,975 37 535 960
2019-01-20 17:41:43 GMT 40.192272 -74.321945 24,825 37 532 1664
2019-01-20 17:41:40 GMT 40.192272 -74.321945 24,825 37 532 1920
2019-01-20 17:41:37 GMT 40.188545 -74.325691 24,700 37 532 1792
2019-01-20 17:41:34 GMT 40.182121 -74.332123 24,725 37 532 1984
2019-01-20 17:41:31 GMT 40.169228 -74.344978 24,550 37 531 1984
2019-01-20 17:41:28 GMT 40.169228 -74.344978 24,475 37 530 1920
2019-01-20 17:41:25 GMT 40.162804 -74.351471 24,375 37 529 1792
2019-01-20 17:41:21 GMT 40.155029 -74.359253 24,250 37 528 1984
2019-01-20 17:41:17 GMT 40.149399 -74.364868 24,125 37 527 1984
2019-01-20 17:41:14 GMT 40.142441 -74.371887 24,000 37 526 2176
2019-01-20 17:41:11 GMT 40.135849 -74.378441 23,850 37 526 2624
2019-01-20 17:41:07 GMT 40.129898 -74.384460 23,725 37 526 2560
2019-01-20 17:41:02 GMT 40.121017 -74.393433 23,575 37 525 1856
2019-01-20 17:40:59 GMT 40.114483 -74.400040 23,550 37 524 1280
2019-01-20 17:40:55 GMT 40.107605 -74.406982 23,500 37 520 640
2019-01-20 17:40:52 GMT 40.099640 -74.415039 23,450 37 515 448
2019-01-20 17:40:49 GMT 40.095070 -74.419640 23,425 38 509 768
2019-01-20 17:40:45 GMT 40.087994 -74.426880 23,400 38 510 640
2019-01-20 17:40:42 GMT 40.081924 -74.433228 23,325 39 504 1280
2019-01-20 17:40:39 GMT 40.076340 -74.439270 23,250 40 502 1664
2019-01-20 17:40:33 GMT 40.063660 -74.453491 23,000 41 497 1600
2019-01-20 17:40:29 GMT 40.058350 -74.459656 22,950 42 493 1408
2019-01-20 17:40:26 GMT 40.045670 -74.475098 22,825 43 491 1216
2019-01-20 17:40:21 GMT 40.045670 -74.475098 22,800 43 489 1152
2019-01-20 17:40:18 GMT 40.041595 -74.480225 22,750 43 487 1344
2019-01-20 17:40:15 GMT 40.034912 -74.488525 22,600 43 486 2432
2019-01-20 17:40:11 GMT 40.024338 -74.501709 22,375 43 485 2432
2019-01-20 17:40:05 GMT 40.019005 -74.508400 22,150 43 484 2304
2019-01-20 17:40:02 GMT 40.014175 -74.514465 22,075 43 484 2368
2019-01-20 17:39:59 GMT 40.010147 -74.519531 22,025 43 484 2240
2019-01-20 17:39:56 GMT 40.005798 -74.525024 21,900 43 483 2112
2019-01-20 17:39:53 GMT 39.999802 -74.532471 21,750 43 482 2240
2019-01-20 17:39:50 GMT 39.994858 -74.538757 21,575 44 480 2560
2019-01-20 17:39:47 GMT 39.990978 -74.543610 21,525 44 480 2688
2019-01-20 17:39:44 GMT 39.985886 -74.550049 21,400 44 480 2944
2019-01-20 17:39:41 GMT 39.979481 -74.558090 21,175 44 482 3072
2019-01-20 17:39:37 GMT 39.974716 -74.564148 20,675 44 478 1216
2019-01-20 17:39:33 GMT 39.967804 -74.572876 20,850 44 481 2240
2019-01-20 17:39:30 GMT 39.962219 -74.579956 20,750 44 480 1728
2019-01-20 17:39:27 GMT 39.957275 -74.586243 20,675 44 478 1024
2019-01-20 17:39:22 GMT 39.951370 -74.593628 20,600 43 473 896
2019-01-20 17:39:19 GMT 39.947433 -74.598572 20,575 43 472 1216
2019-01-20 17:39:16 GMT 39.940983 -74.606659 20,500 44 470 1984
2019-01-20 17:39:13 GMT 39.935211 -74.613899 20,275 43 469 3072
2019-01-20 17:39:09 GMT 39.930496 -74.619812 20,150 43 470 2944
2019-01-20 17:39:06 GMT 39.924271 -74.627693 20,000 43 470 3008
2019-01-20 17:39:03 GMT 39.919235 -74.633949 19,750 43 470 2944
2019-01-20 17:38:59 GMT 39.914539 -74.639771 19,575 43 469 3008
2019-01-20 17:38:56 GMT 39.910305 -74.645081 19,475 43 470 3136
2019-01-20 17:38:53 GMT 39.904812 -74.651917 19,225 43 469 2496
2019-01-20 17:38:46 GMT 39.894608 -74.664696 19,100 43 467 1472
2019-01-20 17:38:43 GMT 39.889633 -74.670898 19,050 43 465 1344
2019-01-20 17:38:40 GMT 39.884674 -74.677055 18,950 43 463 2048
2019-01-20 17:38:37 GMT 39.881104 -74.681534 18,625 43 462 2624
2019-01-20 17:38:33 GMT 39.869244 -74.696350 18,550 43 459 1856
2019-01-20 17:38:30 GMT 39.869244 -74.696350 18,500 43 460 1920
2019-01-20 17:38:26 GMT 39.864349 -74.702492 18,350 43 457 1920
2019-01-20 17:38:23 GMT 39.858818 -74.709351 18,275 43 456 1984
2019-01-20 17:38:20 GMT 39.853184 -74.716370 18,150 43 455 2240
2019-01-20 17:38:15 GMT 39.846634 -74.724525 17,950 43 454 2560
2019-01-20 17:38:12 GMT 39.842060 -74.730164 17,950 43 454 2560
2019-01-20 17:38:09 GMT 39.837662 -74.735573 17,750 43 452 2624
2019-01-20 17:38:05 GMT 39.829742 -74.745300 17,500 43 451 2368
2019-01-20 17:38:02 GMT 39.827454 -74.748055 17,275 43 447 2368
2019-01-20 17:37:59 GMT 39.821388 -74.755493 17,275 43 447 2304
2019-01-20 17:37:54 GMT 39.814266 -74.764160 17,100 45 445 2496
2019-01-20 17:37:51 GMT 39.809326 -74.770622 16,950 47 444 2560
2019-01-20 17:37:48 GMT 39.806076 -74.775101 16,850 49 442 2560
2019-01-20 17:37:44 GMT 39.799976 -74.784485 16,650 53 441 2624
2019-01-20 17:37:41 GMT 39.797089 -74.789307 16,500 55 439 2688
2019-01-20 17:37:38 GMT 39.792480 -74.797791 16,375 58 437 2752
2019-01-20 17:37:33 GMT 39.788292 -74.806519 16,200 61 434 2752
2019-01-20 17:37:30 GMT 39.784927 -74.814270 15,875 66 429 2752
2019-01-20 17:37:27 GMT 39.782318 -74.821014 15,900 66 429 2752
2019-01-20 17:37:23 GMT 39.778473 -74.832420 15,675 71 425 2880
2019-01-20 17:37:18 GMT 39.776279 -74.840637 15,525 74 422 2752
2019-01-20 17:37:15 GMT 39.774372 -74.849243 15,350 76 420 2816
2019-01-20 17:37:10 GMT 39.771606 -74.865677 15,025 78 418 3072
2019-01-20 17:37:07 GMT 39.771011 -74.869377 14,875 78 417 2880
2019-01-20 17:37:04 GMT 39.770088 -74.875549 14,875 78 417 2880
2019-01-20 17:37:01 GMT 39.768879 -74.883179 14,675 78 416 2624
2019-01-20 17:36:58 GMT 39.767761 -74.890518 14,500 78 415 2624
2019-01-20 17:36:55 GMT 39.766365 -74.899292 14,325 78 412 2432
2019-01-20 17:36:51 GMT 39.765015 -74.908012 14,250 78 411 2432
2019-01-20 17:36:48 GMT 39.763805 -74.915771 13,975 78 409 3008
2019-01-20 17:36:45 GMT 39.762268 -74.925621 13,900 78 408 3456
2019-01-20 17:36:41 GMT 39.761009 -74.933533 13,650 78 409 4288
2019-01-20 17:36:38 GMT 39.759987 -74.940002 13,500 78 410 4224
2019-01-20 17:36:34 GMT 39.758312 -74.950623 13,200 78 412 3648
2019-01-20 17:36:30 GMT 39.757008 -74.959106 13,025 78 413 2816
2019-01-20 17:36:25 GMT 39.754852 -74.972969 12,775 78 414 2176
2019-01-20 17:36:22 GMT 39.754261 -74.976624 12,700 78 414 1856
2019-01-20 17:36:18 GMT 39.752151 -74.990524 12,575 78 414 704
2019-01-20 17:36:13 GMT 39.750305 -75.002502 12,525 78 414 0
2019-01-20 17:36:07 GMT 39.748302 -75.015442 12,525 78 414 0
2019-01-20 17:36:03 GMT 39.746658 -75.026413 12,525 79 414 0
2019-01-20 17:35:59 GMT 39.745422 -75.034470 12,525 79 414 0
2019-01-20 17:35:56 GMT 39.744049 -75.043488 12,525 79 414 -64
2019-01-20 17:35:51 GMT 39.742577 -75.053284 12,525 79 415 -64
2019-01-20 17:35:48 GMT 39.741486 -75.060623 12,550 79 415 0
2019-01-20 17:35:45 GMT 39.740295 -75.068687 12,550 79 415 0
2019-01-20 17:35:41 GMT 39.739014 -75.077286 12,550 79 415 -64
2019-01-20 17:35:37 GMT 39.737270 -75.089233 12,550 79 416 -64
2019-01-20 17:35:33 GMT 39.735825 -75.098816 12,550 79 416 -64
2019-01-20 17:35:30 GMT 39.735031 -75.104210 12,550 79 416 -64
2019-01-20 17:35:27 GMT 39.733685 -75.113525 12,550 79 416 64
2019-01-20 17:35:23 GMT 39.732010 -75.124809 12,525 79 415 576
2019-01-20 17:35:19 GMT 39.731033 -75.131653 12,500 79 407 2112
2019-01-20 17:35:16 GMT 39.729450 -75.142334 12,375 79 411 1920
2019-01-20 17:35:10 GMT 39.727753 -75.154007 12,200 79 407 2112
2019-01-20 17:35:05 GMT 39.725967 -75.166550 12,025 79 405 1344
2019-01-20 17:35:00 GMT 39.724049 -75.179626 11,925 79 397 1024
2019-01-20 17:34:56 GMT 39.721390 -75.197533 11,850 76 348 704
2019-01-20 17:34:49 GMT 39.720417 -75.203918 11,750 78 381 1088
2019-01-20 17:34:44 GMT 39.718735 -75.214493 11,600 77 370 896
2019-01-20 17:34:39 GMT 39.716492 -75.227692 11,625 114 303 3136
2019-01-20 17:34:33 GMT 39.714691 -75.238159 11,450 76 351 768
2019-01-20 17:34:25 GMT 39.711433 -75.256653 11,375 77 341 1280
2019-01-20 17:34:20 GMT 39.709991 -75.264465 11,300 78 338 1600
2019-01-20 17:34:15 GMT 39.708267 -75.276001 11,125 85 326 1984
2019-01-20 17:34:11 GMT 39.707748 -75.283516 10,975 90 323 2496
2019-01-20 17:34:06 GMT 39.708069 -75.293129 10,750 98 316 2560
2019-01-20 17:34:03 GMT 39.708824 -75.299133 10,625 106 310 2816
2019-01-20 17:34:00 GMT 39.709663 -75.303711 10,500 106 310 2816
2019-01-20 17:33:56 GMT 39.711433 -75.311401 9,800 126 293 2752
2019-01-20 17:33:53 GMT 39.713928 -75.318924 10,050 119 300 2944
2019-01-20 17:33:50 GMT 39.714832 -75.321411 9,975 119 300 2880
2019-01-20 17:33:44 GMT 39.719925 -75.331940 9,675 131 288 2688
2019-01-20 17:33:38 GMT 39.724003 -75.337891 9,450 137 283 2944
2019-01-20 17:33:32 GMT 39.731461 -75.345253 9,050 154 269 3712
2019-01-20 17:33:29 GMT 39.733749 -75.346863 8,925 158 267 4032
2019-01-20 17:33:25 GMT 39.739876 -75.349915 8,550 168 262 4160
2019-01-20 17:33:20 GMT 39.744534 -75.351074 8,275 176 259 4224
2019-01-20 17:33:15 GMT 39.750259 -75.351440 7,925 187 257 5184
2019-01-20 17:33:12 GMT 39.753708 -75.351044 7,650 192 258 5440
2019-01-20 17:33:08 GMT 39.758545 -75.349792 7,275 201 260 6080
2019-01-20 17:33:03 GMT 39.765289 -75.346504 6,650 207 264 6272
2019-01-20 17:32:57 GMT 39.770691 -75.342690 6,150 212 275 4864
2019-01-20 17:32:52 GMT 39.777443 -75.337219 5,625 212 276 4288
2019-01-20 17:32:44 GMT 39.785385 -75.330803 5,200 212 273 2496
2019-01-20 17:32:40 GMT 39.788616 -75.328186 5,075 211 269 2624
2019-01-20 17:32:34 GMT 39.794853 -75.323364 4,775 211 263 2816
2019-01-20 17:32:31 GMT 39.799118 -75.320114 4,625 211 261 2624
2019-01-20 17:32:22 GMT 39.808960 -75.312592 4,375 211 247 1600
2019-01-20 17:32:19 GMT 39.811241 -75.310913 4,300 211 245 1664
2019-01-20 17:32:11 GMT 39.825989 -75.300117 3,700 210 229 4160
2019-01-20 17:32:03 GMT 39.825989 -75.300117 3,600 210 229 3072
2019-01-20 17:31:59 GMT 39.830841 -75.296593 3,275 210 230 3456
We lost coverage of the aircraft here for a total of 71 minutes
2019-01-20 16:21:25 GMT 39.871250 -75.248154 0 30 10 0
2019-01-20 16:21:21 GMT 39.871124 -75.248276 0 8 10 0
2019-01-20 16:20:41 GMT 39.870991 -75.244247 0 255 54 0
2019-01-20 16:20:03 GMT 39.875996 -75.218994 675 256 154 -768
2019-01-20 16:19:53 GMT 39.877766 -75.210083 825 256 153 -896
2019-01-20 16:19:43 GMT 39.879639 -75.200760 1,000 256 152 -832
2019-01-20 16:19:34 GMT 39.881069 -75.193420 1,100 256 144 -768
2019-01-20 16:19:24 GMT 39.882744 -75.185120 1,200 255 145 -640
2019-01-20 16:19:14 GMT 39.884560 -75.176025 1,350 257 143 -704
2019-01-20 16:19:03 GMT 39.886276 -75.167023 1,475 257 137 -640
2019-01-20 16:18:53 GMT 39.887726 -75.159119 1,600 257 137 -768
2019-01-20 16:18:42 GMT 39.889400 -75.150085 1,750 256 137 -768
2019-01-20 16:18:32 GMT 39.890938 -75.142395 1,875 255 136 -896
2019-01-20 16:18:22 GMT 39.892776 -75.133705 2,025 255 137 -704
2019-01-20 16:18:11 GMT 39.894569 -75.125549 2,150 256 137 -832
2019-01-20 16:18:01 GMT 39.896244 -75.117004 2,300 256 136 -768
2019-01-20 16:17:49 GMT 39.897949 -75.108513 2,425 256 141 -768
2019-01-20 16:17:40 GMT 39.899506 -75.100586 2,600 256 148 -832
2019-01-20 16:17:27 GMT 39.901970 -75.088318 2,750 255 155 -896
2019-01-20 16:17:22 GMT 39.902756 -75.084686 2,800 256 155 -896
2019-01-20 16:17:19 GMT 39.903397 -75.081581 2,875 256 152 -896
2019-01-20 16:17:15 GMT 39.904018 -75.078308 2,925 256 152 -832
2019-01-20 16:17:06 GMT 39.905510 -75.070618 3,025 256 152 -768
2019-01-20 16:17:01 GMT 39.906326 -75.066299 3,075 256 152 -832
2019-01-20 16:16:58 GMT 39.906967 -75.063133 3,150 256 152 -896
2019-01-20 16:16:48 GMT 39.908909 -75.053589 3,325 257 149 -1024
2019-01-20 16:16:44 GMT 39.909393 -75.050949 3,375 257 150 -832
2019-01-20 16:16:37 GMT 39.910488 -75.045044 3,500 256 152 -832
2019-01-20 16:16:31 GMT 39.911636 -75.039490 3,550 256 151 -768
2019-01-20 16:16:27 GMT 39.912369 -75.035782 3,600 257 153 -832
2019-01-20 16:16:22 GMT 39.913143 -75.031616 3,625 256 155 -704
2019-01-20 16:16:16 GMT 39.914291 -75.025696 3,800 256 157 -832
2019-01-20 16:16:11 GMT 39.915054 -75.021729 3,825 256 157 -832
2019-01-20 16:16:06 GMT 39.916168 -75.016144 3,900 256 158 -832
2019-01-20 16:16:03 GMT 39.916626 -75.013992 3,925 256 159 -832
2019-01-20 16:16:00 GMT 39.917103 -75.011597 3,975 256 159 -832
2019-01-20 16:15:53 GMT 39.918777 -75.002991 4,100 256 160 -896
2019-01-20 16:15:50 GMT 39.918961 -75.002167 4,125 256 160 -896
2019-01-20 16:15:43 GMT 39.920380 -74.994766 4,250 256 160 -1088
2019-01-20 16:15:39 GMT 39.920837 -74.992439 4,300 256 159 -1024
2019-01-20 16:15:33 GMT 39.922176 -74.985840 4,400 256 158 -832
2019-01-20 16:15:27 GMT 39.923126 -74.981140 4,475 256 158 -832
2019-01-20 16:15:23 GMT 39.924179 -74.975952 4,550 256 159 -704
2019-01-20 16:15:18 GMT 39.924873 -74.972450 4,600 256 159 -576
2019-01-20 16:15:10 GMT 39.926834 -74.962463 4,650 256 165 -256
2019-01-20 16:15:00 GMT 39.928802 -74.952393 4,725 256 173 -448
2019-01-20 16:14:49 GMT 39.930367 -74.944359 4,800 256 179 -640
2019-01-20 16:14:46 GMT 39.931019 -74.941116 4,825 255 180 -640
2019-01-20 16:14:39 GMT 39.932648 -74.933434 4,900 255 186 -448
2019-01-20 16:14:35 GMT 39.933487 -74.929443 4,925 255 189 -192
2019-01-20 16:14:30 GMT 39.934616 -74.924133 4,950 255 194 -640
2019-01-20 16:14:27 GMT 39.935623 -74.919434 5,000 255 196 -640
2019-01-20 16:14:18 GMT 39.937584 -74.909966 5,075 256 202 -640
2019-01-20 16:14:14 GMT 39.938324 -74.906311 5,125 256 206 -704
2019-01-20 16:14:07 GMT 39.940750 -74.893066 5,225 259 215 -448
2019-01-20 16:14:04 GMT 39.940750 -74.893066 5,225 259 216 -448
2019-01-20 16:13:57 GMT 39.942238 -74.883560 5,300 260 222 -576
2019-01-20 16:13:53 GMT 39.942810 -74.879639 5,325 260 224 -256
2019-01-20 16:13:46 GMT 39.944241 -74.869576 5,350 260 230 -384
2019-01-20 16:13:42 GMT 39.944893 -74.864838 5,375 259 233 -384
2019-01-20 16:13:36 GMT 39.946476 -74.854851 5,425 257 236 -576
2019-01-20 16:13:32 GMT 39.947407 -74.849915 5,475 256 239 -704
2019-01-20 16:13:29 GMT 39.948303 -74.845154 5,500 256 240 -704
2019-01-20 16:13:25 GMT 39.949177 -74.840675 5,550 256 241 -704
2019-01-20 16:13:21 GMT 39.950245 -74.835182 5,575 256 242 -832
2019-01-20 16:13:17 GMT 39.951691 -74.827820 5,700 257 243 -1344
2019-01-20 16:13:12 GMT 39.952759 -74.822014 5,775 257 243 -1408
2019-01-20 16:13:08 GMT 39.954025 -74.815308 5,900 257 242 -1344
2019-01-20 16:13:02 GMT 39.955627 -74.806824 6,025 257 242 -1280
2019-01-20 16:12:57 GMT 39.956818 -74.800415 6,250 257 243 -1152
2019-01-20 16:12:54 GMT 39.957596 -74.796021 6,175 257 243 -1152
2019-01-20 16:12:50 GMT 39.958420 -74.791565 6,225 257 243 -1152
2019-01-20 16:12:46 GMT 39.959602 -74.785187 6,350 256 244 -1216
2019-01-20 16:12:43 GMT 39.960342 -74.781311 6,350 256 244 -1216
2019-01-20 16:12:38 GMT 39.961761 -74.774170 6,450 256 244 -1216
2019-01-20 16:12:33 GMT 39.963326 -74.766022 6,550 256 245 -1088
2019-01-20 16:12:28 GMT 39.964630 -74.759277 6,650 257 246 -1088
2019-01-20 16:12:24 GMT 39.965698 -74.753784 6,750 257 246 -1280
2019-01-20 16:12:21 GMT 39.966660 -74.748596 6,825 257 246 -1280
2019-01-20 16:12:17 GMT 39.967468 -74.744110 6,875 257 248 -1088
2019-01-20 16:12:12 GMT 39.969131 -74.735291 7,000 257 248 -1216
2019-01-20 16:12:08 GMT 39.970230 -74.729614 7,075 257 249 -1152
2019-01-20 16:12:04 GMT 39.971195 -74.724510 7,150 256 250 -1024
2019-01-20 16:12:01 GMT 39.972015 -74.720154 7,475 257 251 -1536
2019-01-20 16:11:58 GMT 39.972931 -74.715332 7,250 257 250 -1344
2019-01-20 16:11:53 GMT 39.974266 -74.708282 7,350 257 251 -1216
2019-01-20 16:11:50 GMT 39.975037 -74.704163 7,475 257 251 -1536
2019-01-20 16:11:47 GMT 39.977234 -74.692505 8,525 279 254 -1216
2019-01-20 16:11:43 GMT 39.977806 -74.689430 7,700 257 253 -1280
2019-01-20 16:11:36 GMT 39.979065 -74.682800 7,725 257 252 -1344
2019-01-20 16:11:33 GMT 39.979759 -74.678940 7,825 257 252 -1472
2019-01-20 16:11:30 GMT 39.981857 -74.667542 7,975 257 251 -1600
2019-01-20 16:11:26 GMT 39.981857 -74.667542 8,050 257 247 -2048
2019-01-20 16:11:22 GMT 39.982601 -74.663399 8,050 257 251 -1600
2019-01-20 16:11:19 GMT 39.983551 -74.658081 8,150 257 250 -1600
2019-01-20 16:11:12 GMT 39.985291 -74.648376 8,450 257 248 -1856
2019-01-20 16:11:09 GMT 39.986389 -74.642395 8,475 257 247 -2048
2019-01-20 16:11:04 GMT 39.987717 -74.634827 8,650 257 244 -2240
2019-01-20 16:11:01 GMT 39.988232 -74.631935 8,725 257 244 -2240
2019-01-20 16:10:58 GMT 39.989025 -74.627502 8,825 258 243 -2048
2019-01-20 16:10:54 GMT 39.990189 -74.620827 8,975 257 241 -1728
2019-01-20 16:10:51 GMT 39.990887 -74.617020 9,075 257 241 -1728
2019-01-20 16:10:48 GMT 39.991772 -74.612022 9,175 257 240 -1792
2019-01-20 16:10:40 GMT 39.993633 -74.602036 9,400 257 239 -1664
2019-01-20 16:10:37 GMT 39.994720 -74.596191 9,475 258 239 -1536
2019-01-20 16:10:32 GMT 39.995632 -74.590797 9,875 275 250 -1216
2019-01-20 16:10:29 GMT 39.996101 -74.587242 9,650 264 243 -1344
2019-01-20 16:10:26 GMT 39.996552 -74.582275 9,700 268 246 -1280
2019-01-20 16:10:22 GMT 39.996754 -74.575073 9,825 272 249 -1280
2019-01-20 16:10:18 GMT 39.996658 -74.571327 9,900 278 253 -1216
2019-01-20 16:10:15 GMT 39.996334 -74.566330 9,925 279 254 -1216
2019-01-20 16:10:12 GMT 39.995499 -74.559692 10,025 288 262 -1280
2019-01-20 16:10:09 GMT 39.994610 -74.555161 10,100 288 262 -1280
2019-01-20 16:10:05 GMT 39.993576 -74.550964 10,150 293 266 -1344
2019-01-20 16:10:01 GMT 39.990967 -74.543274 10,275 298 271 -1344
2019-01-20 16:09:58 GMT 39.989777 -74.540222 10,400 298 272 -1344
2019-01-20 16:09:55 GMT 39.987442 -74.534546 10,400 298 273 -1280
2019-01-20 16:09:50 GMT 39.985207 -74.529068 10,475 298 274 -1152
2019-01-20 16:09:47 GMT 39.983826 -74.525574 10,525 298 275 -1088
2019-01-20 16:09:43 GMT 39.981308 -74.519226 10,600 298 275 -1152
2019-01-20 16:09:40 GMT 39.978836 -74.513062 10,700 298 275 -1280
2019-01-20 16:09:36 GMT 39.976688 -74.507782 10,775 298 277 -1280
2019-01-20 16:09:33 GMT 39.974407 -74.501976 10,850 298 279 -1024
2019-01-20 16:09:29 GMT 39.972683 -74.497604 10,925 298 282 -832
2019-01-20 16:09:26 GMT 39.970779 -74.492859 10,975 298 286 -1280
2019-01-20 16:09:22 GMT 39.968811 -74.487854 11,000 298 283 -960
2019-01-20 16:09:19 GMT 39.966431 -74.481750 11,075 297 287 -1344
2019-01-20 16:09:15 GMT 39.964397 -74.476570 11,150 297 287 -1408
2019-01-20 16:09:12 GMT 39.962448 -74.471619 11,175 297 287 -1536
2019-01-20 16:09:08 GMT 39.960251 -74.465881 11,450 297 289 -1600
2019-01-20 16:09:05 GMT 39.953613 -74.449219 11,450 298 292 -1152
2019-01-20 16:09:01 GMT 39.953613 -74.449219 11,550 298 296 -1216
2019-01-20 16:08:56 GMT 39.952515 -74.446533 11,575 298 298 -1216
2019-01-20 16:08:53 GMT 39.950573 -74.441734 11,650 297 300 -1152
2019-01-20 16:08:48 GMT 39.947800 -74.434692 11,725 295 302 -960
2019-01-20 16:08:45 GMT 39.945557 -74.428589 11,800 290 300 -1088
2019-01-20 16:08:42 GMT 39.943771 -74.422668 11,850 284 297 -1152
2019-01-20 16:08:37 GMT 39.942425 -74.415207 11,925 272 291 -1600
2019-01-20 16:08:33 GMT 39.941895 -74.408875 12,025 268 290 -1728
2019-01-20 16:08:30 GMT 39.941959 -74.404282 12,100 264 288 -1728
2019-01-20 16:08:26 GMT 39.942936 -74.395546 12,225 252 284 -1344
2019-01-20 16:08:23 GMT 39.943638 -74.392052 12,325 246 283 -1664
2019-01-20 16:08:20 GMT 39.945236 -74.386536 12,375 243 282 -1792
2019-01-20 16:08:17 GMT 39.947205 -74.381531 12,475 240 283 -1856
2019-01-20 16:08:12 GMT 39.950340 -74.374634 12,600 240 285 -1664
2019-01-20 16:08:09 GMT 39.952332 -74.370178 12,700 240 285 -1664
2019-01-20 16:08:05 GMT 39.955399 -74.363586 12,825 240 286 -1728
2019-01-20 16:08:01 GMT 39.957275 -74.359398 13,000 240 289 -2176
2019-01-20 16:07:56 GMT 39.961281 -74.350784 13,075 240 289 -1856
2019-01-20 16:07:52 GMT 39.964142 -74.344543 13,225 240 289 -2112
2019-01-20 16:07:49 GMT 39.965935 -74.340675 13,375 240 289 -2240
2019-01-20 16:07:46 GMT 39.968494 -74.335182 13,450 240 289 -2304
2019-01-20 16:07:41 GMT 39.972080 -74.327377 13,650 240 288 -2432
2019-01-20 16:07:35 GMT 39.975449 -74.319885 13,850 241 287 -2688
2019-01-20 16:07:30 GMT 39.978836 -74.312378 14,000 241 288 -2176
2019-01-20 16:07:25 GMT 39.982635 -74.303772 14,250 241 288 -2496
2019-01-20 16:07:20 GMT 39.985764 -74.296730 14,475 240 285 -2944
2019-01-20 16:07:17 GMT 39.987579 -74.292603 14,625 241 284 -3136
2019-01-20 16:07:13 GMT 39.989723 -74.287865 14,775 240 281 -3072
2019-01-20 16:07:10 GMT 39.994080 -74.278015 15,075 240 279 -3008
2019-01-20 16:07:04 GMT 39.996147 -74.273384 15,275 240 276 -3072
2019-01-20 16:07:01 GMT 39.998474 -74.268188 15,625 240 274 -3200
2019-01-20 16:06:58 GMT 39.999496 -74.265892 15,550 240 272 -3328
2019-01-20 16:06:55 GMT 40.002136 -74.259949 15,650 240 271 -3392
2019-01-20 16:06:52 GMT 40.003464 -74.256958 15,900 240 268 -3456
2019-01-20 16:06:48 GMT 40.006165 -74.250977 16,150 240 269 -1088
2019-01-20 16:06:45 GMT 40.007786 -74.247353 16,275 240 265 -2752
2019-01-20 16:06:42 GMT 40.010067 -74.242233 16,400 240 265 -2048
2019-01-20 16:06:38 GMT 40.012527 -74.236694 16,500 240 269 -1088
2019-01-20 16:06:33 GMT 40.018661 -74.223022 16,675 240 268 -1024
2019-01-20 16:06:28 GMT 40.018661 -74.223022 16,700 240 269 -1024
2019-01-20 16:06:25 GMT 40.020630 -74.218689 16,750 240 268 -1024
2019-01-20 16:06:21 GMT 40.023010 -74.213562 16,800 240 269 -1024
2019-01-20 16:06:18 GMT 40.025116 -74.208984 16,875 239 269 -960
2019-01-20 16:06:15 GMT 40.027660 -74.203407 16,925 240 270 -960
2019-01-20 16:06:12 GMT 40.032085 -74.193916 16,975 240 305 -1728
2019-01-20 16:06:07 GMT 40.032085 -74.193916 17,000 240 271 -832
2019-01-20 16:06:04 GMT 40.034088 -74.189552 17,075 240 272 -832
2019-01-20 16:06:01 GMT 40.035873 -74.185608 17,125 240 274 -832
2019-01-20 16:05:58 GMT 40.038231 -74.180496 17,175 240 278 -640
2019-01-20 16:05:55 GMT 40.040085 -74.176514 17,175 240 278 -640
2019-01-20 16:05:50 GMT 40.043152 -74.169678 17,250 240 282 -1472
2019-01-20 16:05:47 GMT 40.045486 -74.164551 17,375 240 285 -1792
2019-01-20 16:05:44 GMT 40.046860 -74.161438 17,425 240 285 -2048
2019-01-20 16:05:39 GMT 40.050194 -74.153969 17,575 241 288 -2368
2019-01-20 16:05:36 GMT 40.053032 -74.147667 17,750 240 291 -1984
2019-01-20 16:05:30 GMT 40.056564 -74.139771 17,950 240 293 -2176
2019-01-20 16:05:26 GMT 40.059082 -74.134155 18,100 240 294 -1920
2019-01-20 16:05:23 GMT 40.062252 -74.127251 18,225 240 297 -1664
2019-01-20 16:05:19 GMT 40.064812 -74.121574 18,325 240 298 -1600
2019-01-20 16:05:15 GMT 40.067505 -74.115723 18,400 240 301 -1408
2019-01-20 16:05:12 GMT 40.068626 -74.113205 18,450 240 301 -1344
2019-01-20 16:05:08 GMT 40.071934 -74.106026 18,550 240 304 -1664
2019-01-20 16:05:05 GMT 40.073868 -74.101746 18,650 240 310 -1600
2019-01-20 16:05:02 GMT 40.075752 -74.097664 18,700 240 307 -1728
2019-01-20 16:04:58 GMT 40.079475 -74.089302 18,850 240 310 -1664
2019-01-20 16:04:55 GMT 40.081375 -74.085144 19,075 239 313 -1536
2019-01-20 16:04:52 GMT 40.083755 -74.079773 19,000 240 313 -1536
2019-01-20 16:04:48 GMT 40.086693 -74.073257 19,100 238 314 -1408
2019-01-20 16:04:45 GMT 40.089432 -74.067505 19,200 237 315 -1344
2019-01-20 16:04:42 GMT 40.094650 -74.057373 19,400 232 318 -1216
2019-01-20 16:04:38 GMT 40.094650 -74.057373 19,325 234 317 -1088
2019-01-20 16:04:34 GMT 40.097862 -74.051598 19,450 232 318 -1280
2019-01-20 16:04:31 GMT 40.104752 -74.040611 20,100 227 319 -2240
2019-01-20 16:04:27 GMT 40.104752 -74.040611 19,600 228 318 -1984
2019-01-20 16:04:24 GMT 40.108337 -74.035522 19,725 227 319 -2240
2019-01-20 16:04:21 GMT 40.110352 -74.032715 20,100 227 321 -2240
2019-01-20 16:04:16 GMT 40.115112 -74.026123 20,000 227 320 -2304
2019-01-20 16:04:13 GMT 40.119186 -74.020508 20,150 227 321 -2240
2019-01-20 16:04:10 GMT 40.120811 -74.018204 20,200 227 321 -2304
2019-01-20 16:04:06 GMT 40.125702 -74.011459 20,375 227 323 -2304
2019-01-20 16:04:03 GMT 40.128662 -74.007324 20,550 227 323 -2240
2019-01-20 16:04:00 GMT 40.132782 -74.001648 20,725 227 325 -2240
2019-01-20 16:03:56 GMT 40.136810 -73.996155 20,775 227 325 -2240
2019-01-20 16:03:52 GMT 40.144501 -73.985657 20,950 227 326 -2240
2019-01-20 16:03:49 GMT 40.144501 -73.985657 21,075 227 326 -2304
2019-01-20 16:03:45 GMT 40.147442 -73.981682 21,175 227 325 -2304
2019-01-20 16:03:40 GMT 40.152557 -73.974731 21,525 227 322 0
2019-01-20 16:03:37 GMT 40.156521 -73.969383 21,525 227 323 -2304
2019-01-20 16:03:33 GMT 40.160942 -73.963272 21,700 227 320 -2176
2019-01-20 16:03:30 GMT 40.163635 -73.959656 21,775 227 321 -2176
2019-01-20 16:03:27 GMT 40.165459 -73.957092 21,900 227 320 -2176
2019-01-20 16:03:24 GMT 40.168854 -73.952469 21,975 227 319 -2240
2019-01-20 16:03:21 GMT 40.171600 -73.948723 22,125 227 318 -2240
2019-01-20 16:03:18 GMT 40.176270 -73.942322 22,250 227 316 -2240
2019-01-20 16:03:15 GMT 40.182129 -73.934265 22,375 227 316 -2240
2019-01-20 16:03:12 GMT 40.182129 -73.934265 22,450 227 322 -2240
2019-01-20 16:03:09 GMT 40.184647 -73.930786 22,550 227 317 -2304
2019-01-20 16:03:04 GMT 40.190277 -73.923035 22,775 227 318 -2368
2019-01-20 16:03:01 GMT 40.192932 -73.919373 23,100 227 319 -2368
2019-01-20 16:02:58 GMT 40.195576 -73.915764 22,975 227 319 -2304
2019-01-20 16:02:54 GMT 40.200649 -73.908775 23,200 227 320 -2304
2019-01-20 16:02:51 GMT 40.202682 -73.905945 23,250 227 321 -2304
2019-01-20 16:02:48 GMT 40.206142 -73.901161 23,325 227 321 -2304
2019-01-20 16:02:45 GMT 40.208706 -73.897598 23,400 227 321 -2304
2019-01-20 16:02:41 GMT 40.213081 -73.891487 23,625 227 323 -2240
2019-01-20 16:02:38 GMT 40.216141 -73.887268 23,800 227 324 -2240
2019-01-20 16:02:35 GMT 40.219643 -73.882370 23,800 227 324 -2240
2019-01-20 16:02:31 GMT 40.223648 -73.876770 24,100 227 326 -2368
2019-01-20 16:02:27 GMT 40.226860 -73.872322 24,150 227 326 -2368
2019-01-20 16:02:24 GMT 40.229652 -73.868446 24,200 227 326 -2368
2019-01-20 16:02:20 GMT 40.234955 -73.861145 24,525 227 327 -2368
2019-01-20 16:02:17 GMT 40.238079 -73.856773 24,650 227 326 -2368
2019-01-20 16:02:14 GMT 40.240685 -73.853218 24,675 227 326 -2368
2019-01-20 16:02:11 GMT 40.243469 -73.849365 24,775 227 326 -2368
2019-01-20 16:02:08 GMT 40.246811 -73.844788 25,075 227 325 -2240
2019-01-20 16:02:05 GMT 40.250088 -73.840172 25,000 227 324 -2240
2019-01-20 16:02:02 GMT 40.253815 -73.835083 25,225 227 322 -2240
2019-01-20 16:01:59 GMT 40.257305 -73.830246 25,975 227 338 -1088
2019-01-20 16:01:56 GMT 40.259857 -73.826721 25,350 227 321 -1280
2019-01-20 16:01:53 GMT 40.262333 -73.823318 25,400 227 321 -1600
2019-01-20 16:01:50 GMT 40.265808 -73.818542 25,550 227 323 -1088
2019-01-20 16:01:47 GMT 40.269196 -73.813843 25,600 227 323 -1088
2019-01-20 16:01:43 GMT 40.271759 -73.810303 25,625 227 325 -1088
2019-01-20 16:01:39 GMT 40.277042 -73.803032 25,700 227 326 -1152
2019-01-20 16:01:36 GMT 40.280136 -73.798767 25,775 227 328 -1088
2019-01-20 16:01:33 GMT 40.283615 -73.794006 25,800 227 330 -1088
2019-01-20 16:01:28 GMT 40.288029 -73.787865 26,025 227 334 -1088
2019-01-20 16:01:25 GMT 40.291443 -73.783203 26,000 227 337 -1088
2019-01-20 16:01:22 GMT 40.294739 -73.778625 26,000 227 337 -1088
2019-01-20 16:01:18 GMT 40.298923 -73.772881 26,100 227 342 -960
2019-01-20 16:01:15 GMT 40.302925 -73.767387 26,150 227 341 -1088
2019-01-20 16:01:12 GMT 40.305313 -73.764099 26,200 227 342 -1024
2019-01-20 16:01:08 GMT 40.309677 -73.758148 26,200 227 342 -1024
2019-01-20 16:01:05 GMT 40.312958 -73.753601 26,275 227 343 -960
2019-01-20 16:01:02 GMT 40.317444 -73.747498 26,350 227 342 -960
2019-01-20 16:00:57 GMT 40.322803 -73.740112 26,425 227 341 -960
2019-01-20 16:00:54 GMT 40.325226 -73.736816 26,450 227 340 -960
2019-01-20 16:00:51 GMT 40.328568 -73.732178 26,525 227 340 -960
2019-01-20 16:00:47 GMT 40.332367 -73.726990 26,600 227 338 -960
2019-01-20 16:00:44 GMT 40.336349 -73.721436 26,625 227 337 -1024
2019-01-20 16:00:40 GMT 40.339417 -73.717163 26,700 227 335 -1024
2019-01-20 16:00:37 GMT 40.343262 -73.711792 26,800 227 334 -960
2019-01-20 16:00:34 GMT 40.346546 -73.707214 26,800 227 334 -1024
2019-01-20 16:00:30 GMT 40.350224 -73.702095 26,875 227 335 -1152
2019-01-20 16:00:26 GMT 40.354923 -73.695541 26,925 227 335 -1088
2019-01-20 16:00:22 GMT 40.358650 -73.690422 27,025 227 336 -1024
2019-01-20 16:00:19 GMT 40.362186 -73.685493 27,075 227 337 -1024
2019-01-20 16:00:16 GMT 40.365257 -73.681183 27,125 227 338 -1088
2019-01-20 16:00:12 GMT 40.370193 -73.674377 27,325 227 339 -1024
2019-01-20 16:00:08 GMT 40.373547 -73.669762 27,250 227 339 -1024
2019-01-20 16:00:05 GMT 40.381969 -73.658028 27,325 227 341 -960
2019-01-20 16:00:02 GMT 40.381969 -73.658028 27,375 227 342 -1024
2019-01-20 15:59:59 GMT 40.383911 -73.655334 27,400 227 342 -1024
2019-01-20 15:59:56 GMT 40.388023 -73.649597 27,475 227 344 -960
2019-01-20 15:59:53 GMT 40.391739 -73.644409 27,525 227 344 -960
2019-01-20 15:59:50 GMT 40.393703 -73.641670 27,525 227 345 -1024
2019-01-20 15:59:47 GMT 40.396454 -73.637878 27,600 227 345 -1024
2019-01-20 15:59:44 GMT 40.400265 -73.632553 27,675 227 345 -1024
2019-01-20 15:59:41 GMT 40.404007 -73.627441 27,725 227 344 -1152
2019-01-20 15:59:38 GMT 40.407532 -73.622620 27,800 228 345 -1088
2019-01-20 15:59:34 GMT 40.411652 -73.616760 27,850 229 346 -1024
2019-01-20 15:59:30 GMT 40.415771 -73.610596 27,900 231 348 -1024
2019-01-20 15:59:27 GMT 40.418888 -73.605774 27,975 238 354 -960
2019-01-20 15:59:23 GMT 40.425293 -73.594788 28,050 235 353 -960
2019-01-20 15:59:17 GMT 40.428711 -73.588234 28,125 238 356 -896
2019-01-20 15:59:14 GMT 40.431061 -73.583557 28,175 238 355 -960
2019-01-20 15:59:10 GMT 40.435181 -73.574951 28,225 238 354 -1024
2019-01-20 15:59:07 GMT 40.437744 -73.569702 28,300 238 354 -960
2019-01-20 15:59:04 GMT 40.439713 -73.565491 28,325 238 354 -896
2019-01-20 15:59:01 GMT 40.442963 -73.558777 28,400 238 355 -1088
2019-01-20 15:58:58 GMT 40.444427 -73.555725 28,425 238 355 -1088
2019-01-20 15:58:55 GMT 40.448307 -73.547722 28,500 238 357 -1088
2019-01-20 15:58:51 GMT 40.451939 -73.540230 28,575 238 357 -1024
2019-01-20 15:58:48 GMT 40.453800 -73.536423 28,625 238 357 -1024
2019-01-20 15:58:44 GMT 40.458458 -73.526878 28,700 238 357 -960
2019-01-20 15:58:41 GMT 40.460461 -73.522690 28,750 238 357 -1024
2019-01-20 15:58:38 GMT 40.463058 -73.517395 28,800 238 357 -960
2019-01-20 15:58:34 GMT 40.466370 -73.510643 28,875 238 358 -1024
2019-01-20 15:58:31 GMT 40.469376 -73.504395 28,900 238 357 -1024
2019-01-20 15:58:28 GMT 40.472122 -73.498718 28,950 238 357 -1088
2019-01-20 15:58:24 GMT 40.475784 -73.491272 29,050 238 357 -1024
2019-01-20 15:58:21 GMT 40.477451 -73.487801 29,100 238 357 -1088
2019-01-20 15:58:18 GMT 40.480663 -73.481178 29,175 238 358 -1088
2019-01-20 15:58:13 GMT 40.485901 -73.470398 29,225 238 359 -1088
2019-01-20 15:58:10 GMT 40.487137 -73.467773 29,275 238 359 -1088
2019-01-20 15:58:07 GMT 40.490204 -73.461334 29,325 238 360 -1088
2019-01-20 15:58:03 GMT 40.494095 -73.453247 29,400 238 360 -1024
2019-01-20 15:58:00 GMT 40.496338 -73.448608 29,425 238 361 -1024
2019-01-20 15:57:57 GMT 40.499004 -73.443039 29,500 238 361 -1024
2019-01-20 15:57:53 GMT 40.503250 -73.434143 29,600 238 363 -1216
2019-01-20 15:57:50 GMT 40.506317 -73.427795 29,625 238 364 -1152
2019-01-20 15:57:47 GMT 40.507801 -73.424629 29,725 238 364 -1088
2019-01-20 15:57:44 GMT 40.511574 -73.416763 29,750 238 366 -1088
2019-01-20 15:57:41 GMT 40.513596 -73.412598 29,750 238 365 -1152
2019-01-20 15:57:37 GMT 40.516788 -73.405838 29,875 238 367 -1088
2019-01-20 15:57:34 GMT 40.519951 -73.399223 29,925 238 369 -960
2019-01-20 15:57:31 GMT 40.522705 -73.393555 29,975 239 370 -768
2019-01-20 15:57:28 GMT 40.525314 -73.388000 29,975 239 370 -768
2019-01-20 15:57:25 GMT 40.527866 -73.382683 30,000 238 372 0
2019-01-20 15:57:22 GMT 40.531174 -73.375793 30,000 238 375 128
2019-01-20 15:57:19 GMT 40.534012 -73.369812 30,000 238 375 128
2019-01-20 15:57:16 GMT 40.536850 -73.363892 30,000 238 375 -64
2019-01-20 15:57:11 GMT 40.540901 -73.355400 30,000 238 375 0
2019-01-20 15:57:08 GMT 40.543415 -73.350159 30,000 238 375 64
2019-01-20 15:57:05 GMT 40.546440 -73.343788 30,000 238 375 128
2019-01-20 15:57:01 GMT 40.550583 -73.335144 30,000 238 375 0
2019-01-20 15:56:58 GMT 40.552727 -73.330681 30,000 239 375 -64
2019-01-20 15:56:55 GMT 40.556122 -73.323547 30,000 238 376 -64
2019-01-20 15:56:52 GMT 40.558357 -73.318886 30,000 238 376 0
2019-01-20 15:56:49 GMT 40.561199 -73.312889 30,000 238 376 0
2019-01-20 15:56:46 GMT 40.564728 -73.305542 30,000 238 376 0
2019-01-20 15:56:43 GMT 40.567612 -73.299561 30,000 238 376 0
2019-01-20 15:56:40 GMT 40.568600 -73.297470 30,000 238 376 0
2019-01-20 15:56:37 GMT 40.571732 -73.290894 30,000 238 376 0
2019-01-20 15:56:34 GMT 40.575073 -73.283936 30,000 238 376 64
2019-01-20 15:56:31 GMT 40.578506 -73.276733 30,000 238 376 0
2019-01-20 15:56:28 GMT 40.580429 -73.272705 30,000 238 377 0
2019-01-20 15:56:25 GMT 40.586380 -73.260315 30,000 238 376 0
2019-01-20 15:56:22 GMT 40.589733 -73.253342 30,000 238 376 0
2019-01-20 15:56:18 GMT 40.589733 -73.253342 30,000 238 376 0
2019-01-20 15:56:15 GMT 40.592514 -73.247498 30,000 238 376 0
2019-01-20 15:56:12 GMT 40.594803 -73.242676 30,000 238 377 -64
2019-01-20 15:56:09 GMT 40.597416 -73.237236 30,000 238 377 -64
2019-01-20 15:56:06 GMT 40.600937 -73.229858 30,000 238 377 0
2019-01-20 15:56:03 GMT 40.608307 -73.214325 30,000 238 377 0
2019-01-20 15:55:58 GMT 40.608307 -73.214325 30,000 238 377 0
2019-01-20 15:55:55 GMT 40.611099 -73.208496 30,000 238 377 0
2019-01-20 15:55:52 GMT 40.613850 -73.202652 30,000 238 377 -64
2019-01-20 15:55:49 GMT 40.616180 -73.197815 30,000 238 377 0
2019-01-20 15:55:46 GMT 40.619659 -73.190430 30,000 238 377 0
2019-01-20 15:55:42 GMT 40.623825 -73.181641 30,000 238 377 0
2019-01-20 15:55:39 GMT 40.625904 -73.177437 30,000 238 377 64
2019-01-20 15:55:35 GMT 40.629410 -73.169983 30,000 239 376 0
2019-01-20 15:55:32 GMT 40.632248 -73.164001 30,000 239 368 0
2019-01-20 15:55:28 GMT 40.635960 -73.156212 30,000 238 375 64
2019-01-20 15:55:25 GMT 40.638519 -73.150818 30,000 239 371 0
2019-01-20 15:55:22 GMT 40.641499 -73.144661 30,000 239 373 0
2019-01-20 15:55:19 GMT 40.644897 -73.137550 30,000 238 372 0
2019-01-20 15:55:16 GMT 40.647629 -73.131775 30,000 238 371 0
2019-01-20 15:55:13 GMT 40.649647 -73.127556 30,000 238 371 0
2019-01-20 15:55:10 GMT 40.652439 -73.121628 30,000 239 371 0
2019-01-20 15:55:06 GMT 40.655651 -73.114952 30,000 239 368 0
2019-01-20 15:55:03 GMT 40.658913 -73.108086 30,000 239 369 0
2019-01-20 15:55:00 GMT 40.661427 -73.102715 30,000 239 368 0
2019-01-20 15:54:57 GMT 40.664963 -73.095284 30,000 239 368 0
2019-01-20 15:54:54 GMT 40.667198 -73.090546 30,000 239 368 0
2019-01-20 15:54:49 GMT 40.671154 -73.082176 30,000 238 367 -64
2019-01-20 15:54:46 GMT 40.674133 -73.075935 30,000 237 364 0
2019-01-20 15:54:42 GMT 40.677765 -73.068695 30,000 235 363 64
2019-01-20 15:54:39 GMT 40.680679 -73.063293 30,000 234 362 64
2019-01-20 15:54:36 GMT 40.684433 -73.056824 30,000 232 361 0
2019-01-20 15:54:32 GMT 40.687454 -73.051819 30,000 232 361 64
2019-01-20 15:54:29 GMT 40.691208 -73.045654 30,000 232 366 64
2019-01-20 15:54:25 GMT 40.695221 -73.039169 29,975 232 361 0
2019-01-20 15:54:22 GMT 40.698246 -73.034241 29,975 232 361 -64
2019-01-20 15:54:19 GMT 40.702011 -73.028076 30,000 232 361 0
2019-01-20 15:54:15 GMT 40.706020 -73.021568 30,000 232 361 -64
2019-01-20 15:54:11 GMT 40.709793 -73.015442 30,000 232 362 0
2019-01-20 15:54:08 GMT 40.713364 -73.009583 30,000 232 362 0
2019-01-20 15:54:05 GMT 40.715797 -73.005646 30,000 232 362 -64
2019-01-20 15:54:01 GMT 40.720779 -72.997620 30,000 232 364 -64
2019-01-20 15:53:58 GMT 40.724487 -72.991577 30,000 232 366 64
2019-01-20 15:53:53 GMT 40.728378 -72.985229 30,000 231 365 0
2019-01-20 15:53:50 GMT 40.731998 -72.979370 30,000 231 365 0
2019-01-20 15:53:47 GMT 40.735302 -72.973999 30,000 231 365 0
2019-01-20 15:53:44 GMT 40.737957 -72.969696 30,000 231 366 128
2019-01-20 15:53:41 GMT 40.742100 -72.962952 30,000 231 366 0
2019-01-20 15:53:38 GMT 40.745453 -72.957581 30,000 231 366 0
2019-01-20 15:53:35 GMT 40.747787 -72.953796 30,000 231 366 0
2019-01-20 15:53:32 GMT 40.752136 -72.946716 30,000 231 366 64
2019-01-20 15:53:29 GMT 40.757370 -72.938232 30,000 231 366 0
2019-01-20 15:53:26 GMT 40.757370 -72.938232 30,000 232 366 -64
2019-01-20 15:53:21 GMT 40.763672 -72.927979 30,000 232 366 -64
2019-01-20 15:53:18 GMT 40.765701 -72.924690 30,000 232 366 0
2019-01-20 15:53:15 GMT 40.769192 -72.919006 30,000 232 366 0
2019-01-20 15:53:12 GMT 40.772919 -72.912903 30,000 232 366 64
2019-01-20 15:53:09 GMT 40.776031 -72.907898 30,000 232 366 0
2019-01-20 15:53:06 GMT 40.780197 -72.901123 30,000 232 367 64
2019-01-20 15:53:02 GMT 40.784317 -72.894348 30,000 232 367 64
2019-01-20 15:52:59 GMT 40.787201 -72.889648 30,000 232 367 64
2019-01-20 15:52:56 GMT 40.789536 -72.885803 30,000 232 367 0
2019-01-20 15:52:51 GMT 40.795258 -72.876343 30,000 231 366 0
2019-01-20 15:52:48 GMT 40.798241 -72.871445 30,000 229 365 0
2019-01-20 15:52:45 GMT 40.802525 -72.864822 30,000 228 366 64
2019-01-20 15:52:41 GMT 40.806946 -72.858391 30,000 226 364 0
2019-01-20 15:52:38 GMT 40.810345 -72.853775 30,000 225 363 0
2019-01-20 15:52:35 GMT 40.812927 -72.850281 30,000 224 362 64
2019-01-20 15:52:32 GMT 40.821705 -72.839668 30,000 221 361 0
2019-01-20 15:52:28 GMT 40.821705 -72.839668 30,000 220 361 -64
2019-01-20 15:52:25 GMT 40.829132 -72.831726 30,000 216 360 64
2019-01-20 15:52:19 GMT 40.834179 -72.826744 30,000 215 359 64
2019-01-20 15:52:16 GMT 40.837624 -72.823624 30,000 213 359 128
2019-01-20 15:52:13 GMT 40.841675 -72.820129 30,000 213 359 128
2019-01-20 15:52:08 GMT 40.848770 -72.814453 30,000 211 360 0
2019-01-20 15:52:05 GMT 40.856827 -72.808167 30,000 211 360 -64
2019-01-20 15:51:59 GMT 40.862411 -72.803833 30,000 211 360 -64
2019-01-20 15:51:56 GMT 40.867001 -72.800217 30,000 211 359 -64
2019-01-20 15:51:53 GMT 40.869747 -72.798096 30,000 211 360 0
2019-01-20 15:51:50 GMT 40.875332 -72.793724 30,000 211 360 128
2019-01-20 15:51:47 GMT 40.880917 -72.789352 30,000 211 360 128
2019-01-20 15:51:41 GMT 40.886810 -72.784790 30,000 211 360 0
2019-01-20 15:51:38 GMT 40.892788 -72.780052 30,000 211 359 -128
2019-01-20 15:51:35 GMT 40.895508 -72.777954 30,000 211 359 -64
2019-01-20 15:51:32 GMT 40.901680 -72.773125 30,000 211 359 0
2019-01-20 15:51:27 GMT 40.908829 -72.767578 30,000 211 358 64
2019-01-20 15:51:24 GMT 40.912525 -72.764633 30,000 211 358 64
2019-01-20 15:51:21 GMT 40.915100 -72.762634 30,000 211 358 0
2019-01-20 15:51:18 GMT 40.921921 -72.757263 30,000 211 358 -64
2019-01-20 15:51:15 GMT 40.925190 -72.754707 30,000 211 358 -64
2019-01-20 15:51:11 GMT 40.931427 -72.749840 30,000 211 357 -64
2019-01-20 15:51:08 GMT 40.935699 -72.746521 30,000 211 358 64
2019-01-20 15:51:05 GMT 40.938412 -72.744408 30,000 211 357 64
2019-01-20 15:51:01 GMT 40.945129 -72.739136 30,000 211 358 64
2019-01-20 15:50:57 GMT 40.949955 -72.735359 30,000 211 358 64
2019-01-20 15:50:54 GMT 40.956333 -72.730370 30,000 211 358 -128
2019-01-20 15:50:51 GMT 40.958633 -72.728577 30,000 211 358 0
2019-01-20 15:50:48 GMT 40.964767 -72.723755 30,000 211 360 0
2019-01-20 15:50:45 GMT 40.967743 -72.721375 30,000 211 358 -64
2019-01-20 15:50:42 GMT 40.972733 -72.717468 30,000 211 358 64
2019-01-20 15:50:39 GMT 40.975838 -72.715012 30,000 211 358 0
2019-01-20 15:50:34 GMT 40.988937 -72.704651 30,000 211 359 64
2019-01-20 15:50:31 GMT 40.988937 -72.704651 30,000 211 359 64
2019-01-20 15:50:28 GMT 40.992226 -72.702087 30,000 211 359 0
2019-01-20 15:50:22 GMT 41.000336 -72.695618 30,000 211 360 -64
2019-01-20 15:50:19 GMT 41.009766 -72.688171 30,000 211 360 -64
2019-01-20 15:50:13 GMT 41.012615 -72.685921 30,000 211 360 0
2019-01-20 15:50:10 GMT 41.017227 -72.682312 30,000 211 360 64
2019-01-20 15:50:07 GMT 41.022949 -72.677811 30,000 211 360 0
2019-01-20 15:50:04 GMT 41.026657 -72.674866 30,000 211 360 0
2019-01-20 15:50:01 GMT 41.035538 -72.667847 30,000 211 361 -64
2019-01-20 15:49:58 GMT 41.035538 -72.667847 30,000 211 361 0
2019-01-20 15:49:54 GMT 41.040527 -72.663940 30,000 211 361 0
2019-01-20 15:49:51 GMT 41.045666 -72.659828 30,000 211 361 0
2019-01-20 15:49:47 GMT 41.050690 -72.655884 30,000 211 361 64
2019-01-20 15:49:44 GMT 41.053440 -72.653770 30,000 211 361 64
2019-01-20 15:49:41 GMT 41.059616 -72.648926 30,000 211 362 0
2019-01-20 15:49:38 GMT 41.062656 -72.646530 30,000 211 362 -64
2019-01-20 15:49:35 GMT 41.067673 -72.642639 30,000 211 362 0
2019-01-20 15:49:32 GMT 41.071884 -72.639343 30,000 211 362 -128
2019-01-20 15:49:29 GMT 41.076370 -72.635864 30,000 211 362 -64
2019-01-20 15:49:26 GMT 41.079975 -72.633049 30,000 211 362 -64
2019-01-20 15:49:22 GMT 41.087471 -72.627182 30,000 211 362 64
2019-01-20 15:49:19 GMT 41.091103 -72.624374 30,000 211 362 64
2019-01-20 15:49:16 GMT 41.096409 -72.620193 30,000 211 362 0
2019-01-20 15:49:13 GMT 41.098736 -72.618378 30,000 211 362 0
2019-01-20 15:49:10 GMT 41.103622 -72.614571 30,000 211 363 0
2019-01-20 15:49:07 GMT 41.107674 -72.611389 30,000 211 363 0
2019-01-20 15:49:04 GMT 41.113029 -72.607147 30,000 211 363 0
2019-01-20 15:49:00 GMT 41.119080 -72.602402 30,000 211 363 0
2019-01-20 15:48:56 GMT 41.123383 -72.598938 30,000 211 363 0
2019-01-20 15:48:53 GMT 41.129608 -72.594055 30,000 211 363 0
2019-01-20 15:48:49 GMT 41.133602 -72.590851 30,000 211 363 0
2019-01-20 15:48:46 GMT 41.137939 -72.587402 30,000 211 363 0
2019-01-20 15:48:42 GMT 41.143707 -72.582863 30,000 211 363 0
2019-01-20 15:48:39 GMT 41.148781 -72.578865 30,000 211 363 0
2019-01-20 15:48:35 GMT 41.153687 -72.574951 30,000 211 363 0
2019-01-20 15:48:32 GMT 41.158859 -72.570862 30,000 211 363 0
2019-01-20 15:48:29 GMT 41.162750 -72.567749 30,000 211 363 0
2019-01-20 15:48:25 GMT 41.168655 -72.563049 30,000 211 363 0
2019-01-20 15:48:21 GMT 41.175751 -72.557434 30,000 212 364 0
2019-01-20 15:48:18 GMT 41.177902 -72.555725 30,000 212 364 0
2019-01-20 15:48:14 GMT 41.187698 -72.547913 30,000 211 363 0
2019-01-20 15:48:08 GMT 41.192585 -72.544037 30,000 212 364 0
2019-01-20 15:48:04 GMT 41.199802 -72.538292 30,000 211 363 -64
2019-01-20 15:48:01 GMT 41.203293 -72.535484 30,000 211 364 0
2019-01-20 15:47:57 GMT 41.208042 -72.531738 30,000 211 364 64
2019-01-20 15:47:53 GMT 41.214977 -72.526245 30,000 211 364 64
2019-01-20 15:47:50 GMT 41.217911 -72.523987 30,000 211 364 0
2019-01-20 15:47:47 GMT 41.222797 -72.520065 30,000 211 364 0
2019-01-20 15:47:43 GMT 41.229034 -72.515137 30,000 211 364 0
2019-01-20 15:47:40 GMT 41.238190 -72.507935 30,000 211 365 0
2019-01-20 15:47:37 GMT 41.238190 -72.507935 30,000 211 365 0
2019-01-20 15:47:33 GMT 41.243980 -72.503334 30,000 211 365 0
2019-01-20 15:47:30 GMT 41.247757 -72.500366 30,000 211 365 0
2019-01-20 15:47:27 GMT 41.252964 -72.496223 30,000 211 365 0
2019-01-20 15:47:22 GMT 41.259521 -72.491089 30,000 211 364 0
2019-01-20 15:47:19 GMT 41.263138 -72.488220 30,000 211 365 0
2019-01-20 15:47:15 GMT 41.268768 -72.483704 30,000 211 365 64
2019-01-20 15:47:10 GMT 41.277786 -72.476562 30,000 211 365 0
2019-01-20 15:47:06 GMT 41.283417 -72.472107 30,000 211 365 0
2019-01-20 15:47:01 GMT 41.290375 -72.466553 30,000 211 365 0
2019-01-20 15:46:58 GMT 41.293697 -72.463951 30,000 211 365 0
2019-01-20 15:46:54 GMT 41.302124 -72.457268 30,000 211 365 0
2019-01-20 15:46:51 GMT 41.305344 -72.454712 30,000 211 365 0
2019-01-20 15:46:48 GMT 41.307953 -72.452698 30,000 211 365 0
2019-01-20 15:46:45 GMT 41.314041 -72.447845 30,000 211 365 0
2019-01-20 15:46:42 GMT 41.317673 -72.444969 30,000 211 365 -64
2019-01-20 15:46:39 GMT 41.323196 -72.440613 30,000 211 365 0
2019-01-20 15:46:35 GMT 41.327820 -72.436951 30,000 211 365 0
2019-01-20 15:46:32 GMT 41.332893 -72.432922 30,000 211 365 0
2019-01-20 15:46:29 GMT 41.336105 -72.430359 30,000 211 365 0
2019-01-20 15:46:26 GMT 41.340435 -72.426933 30,000 211 365 0
2019-01-20 15:46:23 GMT 41.345123 -72.423218 30,000 211 365 0
2019-01-20 15:46:19 GMT 41.351212 -72.418396 30,000 211 365 0
2019-01-20 15:46:16 GMT 41.356125 -72.414513 30,000 211 365 0
2019-01-20 15:46:13 GMT 41.359756 -72.411575 30,000 211 365 -64
2019-01-20 15:46:08 GMT 41.367901 -72.405144 30,000 211 365 0
2019-01-20 15:46:05 GMT 41.372086 -72.401794 30,000 212 366 -64
2019-01-20 15:46:01 GMT 41.379089 -72.396240 30,000 212 366 -64
2019-01-20 15:45:58 GMT 41.381264 -72.394531 30,000 212 366 -64
2019-01-20 15:45:52 GMT 41.389687 -72.387764 30,000 212 366 0
2019-01-20 15:45:48 GMT 41.397228 -72.381760 30,000 212 366 0
2019-01-20 15:45:45 GMT 41.400116 -72.379463 30,000 212 366 0
2019-01-20 15:45:42 GMT 41.405933 -72.374802 30,000 212 366 0
2019-01-20 15:45:39 GMT 41.408260 -72.372948 30,000 212 366 0
2019-01-20 15:45:36 GMT 41.413513 -72.368752 30,000 212 366 0
2019-01-20 15:45:33 GMT 41.419006 -72.364319 30,000 212 366 128
2019-01-20 15:45:29 GMT 41.423355 -72.360825 30,000 212 367 0
2019-01-20 15:45:26 GMT 41.428745 -72.356529 30,000 211 367 -64
2019-01-20 15:45:23 GMT 41.432377 -72.353592 30,000 211 367 64
2019-01-20 15:45:19 GMT 41.438381 -72.348869 30,000 212 366 320
2019-01-20 15:45:16 GMT 41.442848 -72.345222 29,950 212 366 768
2019-01-20 15:45:13 GMT 41.447205 -72.341789 29,900 211 365 1664
2019-01-20 15:45:10 GMT 41.451557 -72.338264 29,425 212 366 1664
2019-01-20 15:45:07 GMT 41.455902 -72.334793 29,775 212 366 1664
2019-01-20 15:45:04 GMT 41.466499 -72.326317 29,600 212 366 1792
2019-01-20 15:45:00 GMT 41.466499 -72.326317 29,525 212 366 1728
2019-01-20 15:44:57 GMT 41.470131 -72.323448 29,450 212 366 1728
2019-01-20 15:44:54 GMT 41.476089 -72.318657 29,350 212 366 1728
2019-01-20 15:44:50 GMT 41.481033 -72.314697 29,200 212 366 1856
2019-01-20 15:44:47 GMT 41.487305 -72.309700 29,050 211 367 1856
2019-01-20 15:44:44 GMT 41.489502 -72.307953 29,050 212 367 1856
2019-01-20 15:44:41 GMT 41.497192 -72.301773 28,875 212 367 1920
2019-01-20 15:44:38 GMT 41.503040 -72.297127 28,800 212 367 1920
2019-01-20 15:44:35 GMT 41.503040 -72.297127 28,750 212 368 1984
2019-01-20 15:44:32 GMT 41.505661 -72.294968 28,675 212 368 1984
2019-01-20 15:44:29 GMT 41.512527 -72.289474 28,525 212 370 2112
2019-01-20 15:44:26 GMT 41.514866 -72.287613 28,500 212 370 2112
2019-01-20 15:44:23 GMT 41.519852 -72.283607 28,325 211 370 2240
2019-01-20 15:44:20 GMT 41.523514 -72.280678 27,425 212 375 1984
2019-01-20 15:44:17 GMT 41.529671 -72.275734 28,100 212 372 2176
2019-01-20 15:44:13 GMT 41.534409 -72.271996 28,000 212 372 2176
2019-01-20 15:44:10 GMT 41.538513 -72.268639 27,725 212 373 2240
2019-01-20 15:44:07 GMT 41.542969 -72.265137 27,775 212 377 1792
2019-01-20 15:44:04 GMT 41.547272 -72.261696 27,700 212 373 2240
2019-01-20 15:44:01 GMT 41.552170 -72.257767 27,475 212 375 2048
2019-01-20 15:43:58 GMT 41.555878 -72.254768 27,425 212 375 1984
2019-01-20 15:43:55 GMT 41.562119 -72.249733 27,325 212 375 2112
2019-01-20 15:43:52 GMT 41.569702 -72.243599 27,125 212 377 2304
2019-01-20 15:43:49 GMT 41.575836 -72.238663 27,025 212 377 2112
2019-01-20 15:43:45 GMT 41.575836 -72.238663 26,925 212 377 1408
2019-01-20 15:43:42 GMT 41.585255 -72.231148 26,825 211 376 1536
2019-01-20 15:43:34 GMT 41.597214 -72.221565 26,650 211 376 1856
2019-01-20 15:43:31 GMT 41.597214 -72.221565 26,600 211 376 1792
2019-01-20 15:43:28 GMT 41.600941 -72.218567 26,525 211 376 1600
2019-01-20 15:43:24 GMT 41.606186 -72.214386 26,425 211 376 1472
2019-01-20 15:43:21 GMT 41.612915 -72.209015 25,975 211 374 1280
2019-01-20 15:43:18 GMT 41.617981 -72.204956 26,225 211 376 1728
2019-01-20 15:43:15 GMT 41.621704 -72.201958 26,175 212 375 1664
2019-01-20 15:43:10 GMT 41.628269 -72.196716 26,075 211 375 1216
2019-01-20 15:43:07 GMT 41.633194 -72.192787 25,925 211 374 1472
2019-01-20 15:43:03 GMT 41.638229 -72.188736 25,900 211 374 1536
2019-01-20 15:43:00 GMT 41.643585 -72.184456 25,800 211 373 1600
2019-01-20 15:42:56 GMT 41.650242 -72.179153 25,700 211 372 1344
2019-01-20 15:42:53 GMT 41.652943 -72.177048 25,650 211 371 1280
2019-01-20 15:42:50 GMT 41.658966 -72.172188 25,575 211 370 1216
2019-01-20 15:42:47 GMT 41.662354 -72.169502 25,550 211 370 1216
2019-01-20 15:42:44 GMT 41.667652 -72.165291 25,425 211 369 1664
2019-01-20 15:42:39 GMT 41.674393 -72.159889 25,300 212 369 1664
2019-01-20 15:42:36 GMT 41.678329 -72.156708 25,250 212 368 1600
2019-01-20 15:42:33 GMT 41.682861 -72.153023 25,175 212 368 1536
2019-01-20 15:42:29 GMT 41.689407 -72.147713 25,025 212 367 1536
2019-01-20 15:42:26 GMT 41.692749 -72.145035 24,950 212 367 1600
2019-01-20 15:42:23 GMT 41.697956 -72.140762 24,875 212 366 1664
2019-01-20 15:42:18 GMT 41.704285 -72.135544 24,800 213 365 1664
2019-01-20 15:42:15 GMT 41.712994 -72.128181 24,600 213 365 1728
2019-01-20 15:42:12 GMT 41.712994 -72.128181 24,575 213 364 1664
2019-01-20 15:42:08 GMT 41.719929 -72.122246 24,400 214 363 1792
2019-01-20 15:42:05 GMT 41.723469 -72.119179 24,025 215 362 1920
2019-01-20 15:42:02 GMT 41.727844 -72.115341 24,275 214 363 1856
2019-01-20 15:41:58 GMT 41.733849 -72.109978 24,125 215 363 1856
2019-01-20 15:41:55 GMT 41.738548 -72.105698 24,025 215 363 1984
2019-01-20 15:41:51 GMT 41.742413 -72.102058 23,950 215 363 1984
2019-01-20 15:41:47 GMT 41.749352 -72.095734 23,475 211 362 1728
2019-01-20 15:41:44 GMT 41.753494 -72.092415 23,700 207 361 1856
2019-01-20 15:41:41 GMT 41.764343 -72.084923 23,550 205 361 2048
2019-01-20 15:41:36 GMT 41.764343 -72.084923 23,475 202 362 2368
2019-01-20 15:41:33 GMT 41.767914 -72.082924 23,225 191 366 1664
2019-01-20 15:41:29 GMT 41.774094 -72.080116 23,100 188 367 1536
2019-01-20 15:41:26 GMT 41.780029 -72.078232 23,100 186 367 1472
2019-01-20 15:41:23 GMT 41.792225 -72.076889 23,000 183 369 1664
2019-01-20 15:41:20 GMT 41.792225 -72.076889 22,950 181 369 1728
2019-01-20 15:41:16 GMT 41.803490 -72.076767 22,800 181 369 1792
2019-01-20 15:41:13 GMT 41.803490 -72.076767 22,750 181 368 1856
2019-01-20 15:41:09 GMT 41.808800 -72.076767 22,575 185 351 2496
2019-01-20 15:41:06 GMT 41.818993 -72.076767 21,350 181 355 1984
2019-01-20 15:40:59 GMT 41.826965 -72.076744 22,300 181 365 1920
2019-01-20 15:40:56 GMT 41.831177 -72.076744 22,175 181 364 1920
2019-01-20 15:40:53 GMT 41.835892 -72.076744 22,125 181 363 1856
2019-01-20 15:40:50 GMT 41.840103 -72.076744 22,050 181 362 1856
2019-01-20 15:40:46 GMT 41.846649 -72.076683 21,875 181 361 1856
2019-01-20 15:40:43 GMT 41.854511 -72.076637 21,800 181 360 1728
2019-01-20 15:40:40 GMT 41.857635 -72.076553 21,750 181 359 1728
2019-01-20 15:40:37 GMT 41.863632 -72.076492 21,625 181 357 1920
2019-01-20 15:40:32 GMT 41.871223 -72.076317 21,500 181 356 1984
2019-01-20 15:40:29 GMT 41.876175 -72.076241 21,375 181 354 1920
2019-01-20 15:40:26 GMT 41.881420 -72.076126 21,275 181 353 1856
2019-01-20 15:40:23 GMT 41.886166 -72.075996 21,150 182 352 2112
2019-01-20 15:40:20 GMT 41.891052 -72.075928 21,075 182 352 2368
2019-01-20 15:40:16 GMT 41.902405 -72.075310 20,725 191 347 2176
2019-01-20 15:40:13 GMT 41.908138 -72.074211 20,725 191 347 2176
2019-01-20 15:40:09 GMT 41.908138 -72.074211 20,650 195 345 2112
2019-01-20 15:40:05 GMT 41.916428 -72.071075 20,450 205 344 2368
2019-01-20 15:40:02 GMT 41.919250 -72.069565 20,425 207 343 2432
2019-01-20 15:39:59 GMT 41.923050 -72.066940 20,200 219 346 2496
2019-01-20 15:39:55 GMT 41.927925 -72.062904 20,125 219 346 2496
2019-01-20 15:39:52 GMT 41.933121 -72.057205 19,950 229 348 2112
2019-01-20 15:39:49 GMT 41.936600 -72.052399 19,850 234 350 2112
2019-01-20 15:39:45 GMT 41.941147 -72.044510 19,675 241 354 2304
2019-01-20 15:39:42 GMT 41.943195 -72.039780 19,575 244 356 2496
2019-01-20 15:39:39 GMT 41.945068 -72.035103 19,550 245 355 2496
2019-01-20 15:39:34 GMT 41.948090 -72.024246 19,250 257 365 2496
2019-01-20 15:39:30 GMT 41.949554 -72.016068 19,100 265 375 2432
2019-01-20 15:39:24 GMT 41.950409 -72.000687 18,850 271 381 2432
2019-01-20 15:39:21 GMT 41.950424 -71.995033 18,775 271 381 2432
2019-01-20 15:39:18 GMT 41.950378 -71.988167 18,700 271 381 2432
2019-01-20 15:39:12 GMT 41.950241 -71.966751 17,700 269 377 3008
2019-01-20 15:39:09 GMT 41.950241 -71.966751 18,200 270 379 2944
2019-01-20 15:39:06 GMT 41.950241 -71.961327 17,400 269 376 3008
2019-01-20 15:39:03 GMT 41.950241 -71.950340 17,875 270 377 2880
2019-01-20 15:39:00 GMT 41.950363 -71.936493 17,600 269 376 3072
2019-01-20 15:38:51 GMT 41.950596 -71.922958 17,225 268 372 2368
2019-01-20 15:38:47 GMT 41.950790 -71.914635 17,000 268 372 2304
2019-01-20 15:38:42 GMT 41.951248 -71.902397 16,925 267 369 2560
2019-01-20 15:38:39 GMT 41.951477 -71.896652 16,800 266 368 2880
2019-01-20 15:38:36 GMT 41.951889 -71.888664 16,625 266 369 3328
2019-01-20 15:38:32 GMT 41.952366 -71.880928 16,425 267 370 3328
2019-01-20 15:38:29 GMT 41.952805 -71.871750 16,300 269 372 3008
2019-01-20 15:38:26 GMT 41.952831 -71.865723 16,200 270 374 2752
2019-01-20 15:38:21 GMT 41.952038 -71.847137 15,800 279 380 2624
2019-01-20 15:38:17 GMT 41.952038 -71.847137 15,150 283 385 3136
2019-01-20 15:38:14 GMT 41.950085 -71.831741 15,425 285 386 3136
2019-01-20 15:38:11 GMT 41.950085 -71.831741 15,450 287 390 3072
2019-01-20 15:38:08 GMT 41.948593 -71.824806 15,175 297 401 2496
2019-01-20 15:38:05 GMT 41.943924 -71.810326 15,125 300 403 2368
2019-01-20 15:38:01 GMT 41.939796 -71.801086 14,900 303 406 2624
2019-01-20 15:37:58 GMT 41.939796 -71.801086 14,825 305 408 2816
2019-01-20 15:37:52 GMT 41.934490 -71.790932 14,625 307 408 2688
2019-01-20 15:37:48 GMT 41.928902 -71.780708 14,300 307 405 3008
2019-01-20 15:37:44 GMT 41.924011 -71.771744 14,175 307 405 3136
2019-01-20 15:37:38 GMT 41.918243 -71.761200 13,925 307 404 3008
2019-01-20 15:37:32 GMT 41.912201 -71.750023 13,775 307 403 2560
2019-01-20 15:37:29 GMT 41.905766 -71.738167 13,450 306 398 2560
2019-01-20 15:37:23 GMT 41.901997 -71.731209 13,275 307 395 2752
2019-01-20 15:37:19 GMT 41.897461 -71.722809 13,075 307 394 2752
2019-01-20 15:37:16 GMT 41.894989 -71.718254 12,975 307 394 2752
2019-01-20 15:37:13 GMT 41.891647 -71.712135 12,925 307 393 2752
2019-01-20 15:37:06 GMT 41.883957 -71.698029 12,475 306 388 3136
2019-01-20 15:37:03 GMT 41.879654 -71.690033 12,250 306 388 3456
2019-01-20 15:36:56 GMT 41.872433 -71.676529 11,875 306 385 2752
2019-01-20 15:36:51 GMT 41.868618 -71.669250 11,575 306 375 896
2019-01-20 15:36:48 GMT 41.862167 -71.657074 11,575 306 376 960
2019-01-20 15:36:41 GMT 41.858749 -71.650597 11,550 306 371 896
2019-01-20 15:36:35 GMT 41.851364 -71.636665 11,450 306 362 896
2019-01-20 15:36:32 GMT 41.849064 -71.632324 11,375 306 354 960
2019-01-20 15:36:24 GMT 41.841751 -71.618690 11,250 306 341 960
2019-01-20 15:36:21 GMT 41.839008 -71.613487 11,200 306 336 896
2019-01-20 15:36:14 GMT 41.828026 -71.593048 10,950 307 310 1024
2019-01-20 15:36:08 GMT 41.828026 -71.593048 11,000 307 316 960
2019-01-20 15:36:05 GMT 41.824345 -71.586273 10,925 307 307 1088
2019-01-20 15:36:02 GMT 41.821739 -71.581482 10,875 307 305 1216
2019-01-20 15:35:54 GMT 41.816208 -71.571304 10,650 306 295 2432
2019-01-20 15:35:45 GMT 41.805954 -71.552269 10,000 306 286 3584
2019-01-20 15:35:33 GMT 41.799908 -71.540794 9,475 305 286 3904
2019-01-20 15:35:27 GMT 41.795105 -71.531296 9,125 304 284 2944
2019-01-20 15:35:24 GMT 41.792179 -71.525467 8,950 304 282 2432
2019-01-20 15:35:21 GMT 41.790688 -71.522339 8,875 304 281 2176
2019-01-20 15:35:13 GMT 41.784916 -71.510773 8,625 305 280 1344
2019-01-20 15:35:06 GMT 41.779175 -71.499458 8,500 304 279 832
2019-01-20 15:35:03 GMT 41.775841 -71.492889 8,450 305 278 320
2019-01-20 15:34:50 GMT 41.767647 -71.476540 8,400 305 279 64
2019-01-20 15:34:42 GMT 41.762009 -71.465500 8,375 305 281 0
2019-01-20 15:34:30 GMT 41.752609 -71.447350 8,400 305 281 0
2019-01-20 15:34:21 GMT 41.746902 -71.436287 8,375 305 283 -128
2019-01-20 15:34:18 GMT 41.738571 -71.420311 8,400 305 286 64
2019-01-20 15:34:11 GMT 41.738571 -71.420311 8,400 305 283 -128
2019-01-20 15:34:08 GMT 41.737385 -71.417969 8,400 305 283 -64
2019-01-20 15:34:01 GMT 41.732483 -71.408638 8,400 305 284 0
2019-01-20 15:33:58 GMT 41.729893 -71.403534 8,400 305 284 0
2019-01-20 15:33:50 GMT 41.723694 -71.391655 8,375 305 285 -64
2019-01-20 15:33:47 GMT 41.721977 -71.388329 8,400 305 285 -128
2019-01-20 15:33:41 GMT 41.716393 -71.377602 8,400 305 287 0
2019-01-20 15:33:38 GMT 41.714016 -71.373062 8,400 305 287 -64
2019-01-20 15:33:31 GMT 41.709270 -71.363991 8,400 305 290 64
2019-01-20 15:33:27 GMT 41.705963 -71.357674 8,375 305 290 192
2019-01-20 15:33:20 GMT 41.700981 -71.347961 8,325 305 289 896
2019-01-20 15:33:17 GMT 41.698105 -71.342346 8,275 305 287 1088
2019-01-20 15:33:08 GMT 41.691998 -71.330330 8,075 305 285 1920
2019-01-20 15:33:05 GMT 41.690140 -71.326675 7,975 305 283 2112
2019-01-20 15:32:59 GMT 41.685665 -71.317879 7,750 304 280 2688
2019-01-20 15:32:55 GMT 41.682907 -71.312378 7,625 305 278 3072
2019-01-20 15:32:50 GMT 41.678684 -71.304016 7,200 304 275 3712
2019-01-20 15:32:45 GMT 41.675400 -71.297523 7,000 304 275 3648
2019-01-20 15:32:40 GMT 41.671600 -71.289909 6,625 304 271 3456
2019-01-20 15:32:37 GMT 41.669281 -71.285172 6,475 304 270 3456
2019-01-20 15:32:34 GMT 41.667835 -71.282234 6,400 304 269 3456
2019-01-20 15:32:29 GMT 41.664505 -71.275612 6,050 307 267 2752
2019-01-20 15:32:25 GMT 41.660713 -71.268822 5,850 312 263 2176
2019-01-20 15:32:19 GMT 41.656723 -71.262695 5,675 313 256 2112
2019-01-20 15:32:13 GMT 41.652054 -71.255951 5,425 313 251 3072
2019-01-20 15:32:09 GMT 41.648472 -71.250748 5,175 315 249 3648
2019-01-20 15:32:03 GMT 41.643398 -71.244354 4,925 328 253 2304
2019-01-20 15:31:58 GMT 41.638275 -71.240471 4,750 340 256 1280
2019-01-20 15:31:54 GMT 41.633606 -71.238350 4,625 354 259 1664
2019-01-20 15:31:48 GMT 41.627243 -71.237335 4,500 3 264 1536
2019-01-20 15:31:44 GMT 41.621613 -71.237976 4,425 15 269 320
2019-01-20 15:31:41 GMT 41.614883 -71.240906 4,400 41 283 0
2019-01-20 15:31:38 GMT 41.614883 -71.240906 4,400 26 274 128
2019-01-20 15:31:33 GMT 41.609089 -71.245445 4,400 37 280 64
2019-01-20 15:31:28 GMT 41.604538 -71.250648 4,400 43 283 0
2019-01-20 15:31:22 GMT 41.599358 -71.257324 4,400 42 283 -192
2019-01-20 15:31:18 GMT 41.594650 -71.262939 4,400 40 283 -64
2019-01-20 15:31:13 GMT 41.586044 -71.272652 4,400 39 282 128
2019-01-20 15:31:07 GMT 41.584229 -71.274635 4,400 39 283 192
2019-01-20 15:31:02 GMT 41.578781 -71.280701 4,375 39 281 64
2019-01-20 15:30:57 GMT 41.574234 -71.285851 4,375 40 280 64
2019-01-20 15:30:52 GMT 41.568054 -71.292778 4,375 40 280 64
2019-01-20 15:30:47 GMT 41.563885 -71.297501 4,375 40 280 64
2019-01-20 15:30:41 GMT 41.557892 -71.304329 4,375 40 280 -64
2019-01-20 15:30:37 GMT 41.553864 -71.308945 4,375 40 282 -64
2019-01-20 15:30:31 GMT 41.547222 -71.316536 4,375 40 284 -64
2019-01-20 15:30:26 GMT 41.543308 -71.321007 4,400 40 285 -64
2019-01-20 15:30:19 GMT 41.536606 -71.328735 4,400 42 288 -64
2019-01-20 15:30:16 GMT 41.533356 -71.332603 4,400 44 289 -64
2019-01-20 15:30:10 GMT 41.527405 -71.341347 4,400 57 288 0
2019-01-20 15:30:06 GMT 41.524887 -71.346649 4,400 65 289 64
2019-01-20 15:29:58 GMT 41.521179 -71.359322 4,400 79 287 0
2019-01-20 15:29:55 GMT 41.520454 -71.364250 4,400 86 285 64
2019-01-20 15:29:48 GMT 41.520401 -71.376801 4,400 130 264 0
2019-01-20 15:29:45 GMT 41.521317 -71.382729 4,400 108 277 0
2019-01-20 15:29:38 GMT 41.524704 -71.393715 4,400 123 268 -64
2019-01-20 15:29:35 GMT 41.526737 -71.397850 4,400 130 264 0
2019-01-20 15:29:28 GMT 41.532852 -71.406265 4,400 145 251 128
2019-01-20 15:29:25 GMT 41.535370 -71.408699 4,400 149 247 64
2019-01-20 15:29:18 GMT 41.543289 -71.414627 4,400 157 241 -64
2019-01-20 15:29:14 GMT 41.546337 -71.416367 4,400 160 238 -64
2019-01-20 15:29:07 GMT 41.553955 -71.419495 4,400 170 231 -64
2019-01-20 15:29:03 GMT 41.557323 -71.420265 4,400 172 229 0
2019-01-20 15:28:56 GMT 41.564896 -71.420937 4,400 185 221 -64
2019-01-20 15:28:52 GMT 41.568958 -71.420647 4,400 187 219 -64
2019-01-20 15:28:44 GMT 41.577015 -71.418541 4,400 199 213 -64
2019-01-20 15:28:36 GMT 41.585579 -71.414772 4,400 199 214 64
2019-01-20 15:28:23 GMT 41.596474 -71.409859 4,400 199 214 64
2019-01-20 15:28:15 GMT 41.605499 -71.405701 4,400 199 215 -128
2019-01-20 15:28:03 GMT 41.615700 -71.401039 4,400 200 215 0
2019-01-20 15:27:52 GMT 41.625824 -71.396339 4,400 200 214 -64
2019-01-20 15:27:42 GMT 41.635017 -71.392036 4,400 199 212 128
2019-01-20 15:27:32 GMT 41.644821 -71.387535 4,400 200 210 0
2019-01-20 15:27:21 GMT 41.654987 -71.382835 4,375 199 210 0
2019-01-20 15:27:11 GMT 41.664047 -71.378738 4,375 200 211 0
2019-01-20 15:27:01 GMT 41.673248 -71.374428 4,400 200 212 0
2019-01-20 15:26:51 GMT 41.682640 -71.369995 4,400 200 210 -64
2019-01-20 15:26:41 GMT 41.692139 -71.365593 4,400 199 209 -64
2019-01-20 15:26:30 GMT 41.701775 -71.361244 4,400 199 210 64
2019-01-20 15:26:19 GMT 41.712204 -71.356453 4,375 200 213 0
2019-01-20 15:26:09 GMT 41.721512 -71.351982 4,375 200 211 -192
2019-01-20 15:25:58 GMT 41.731018 -71.347527 4,375 202 212 64
2019-01-20 15:25:48 GMT 41.740040 -71.341766 4,375 212 211 0
2019-01-20 15:25:37 GMT 41.749008 -71.334419 4,400 212 211 -64
2019-01-20 15:25:27 GMT 41.757660 -71.327484 4,400 212 211 -64
2019-01-20 15:25:17 GMT 41.766529 -71.320305 4,400 212 210 64
2019-01-20 15:25:07 GMT 41.775093 -71.313339 4,400 212 211 -64
2019-01-20 15:24:58 GMT 41.781658 -71.308037 4,400 212 211 0
2019-01-20 15:24:55 GMT 41.784264 -71.305931 4,400 212 212 0
2019-01-20 15:24:46 GMT 41.792831 -71.298843 4,400 212 212 0
2019-01-20 15:24:38 GMT 41.798927 -71.293793 4,400 213 211 0
2019-01-20 15:24:35 GMT 41.801331 -71.291718 4,400 213 211 64
2019-01-20 15:24:28 GMT 41.807030 -71.286964 4,400 213 211 -64
2019-01-20 15:24:25 GMT 41.809914 -71.284470 4,400 213 211 -64
2019-01-20 15:24:17 GMT 41.815750 -71.279671 4,400 212 210 0
2019-01-20 15:24:14 GMT 41.818619 -71.277252 4,400 212 209 64
2019-01-20 15:24:07 GMT 41.823879 -71.272842 4,400 213 208 0
2019-01-20 15:24:04 GMT 41.827278 -71.270035 4,400 212 209 0
2019-01-20 15:23:57 GMT 41.832596 -71.265503 4,400 213 209 64
2019-01-20 15:23:53 GMT 41.836124 -71.262566 4,400 213 208 64
2019-01-20 15:23:46 GMT 41.841202 -71.258263 4,400 213 209 0
2019-01-20 15:23:43 GMT 41.844635 -71.255325 4,400 213 209 0
2019-01-20 15:23:39 GMT 41.848297 -71.252205 4,400 213 209 0
2019-01-20 15:23:36 GMT 41.850788 -71.250107 4,400 213 209 -64
2019-01-20 15:23:32 GMT 41.853302 -71.247932 4,400 213 209 0
2019-01-20 15:23:25 GMT 41.858421 -71.243652 4,400 213 209 0
2019-01-20 15:23:22 GMT 41.861774 -71.240784 4,400 213 208 -64
2019-01-20 15:23:15 GMT 41.867641 -71.235863 4,400 213 205 0
2019-01-20 15:23:11 GMT 41.870544 -71.233414 4,400 213 204 -64
2019-01-20 15:23:04 GMT 41.876019 -71.228645 4,400 214 202 64
2019-01-20 15:23:00 GMT 41.878647 -71.226303 4,400 214 201 64
2019-01-20 15:22:53 GMT 41.884354 -71.221298 4,400 214 201 -64
2019-01-20 15:22:47 GMT 41.889194 -71.217087 4,400 214 200 0
2019-01-20 15:22:43 GMT 41.892406 -71.214272 4,400 214 200 0
2019-01-20 15:22:39 GMT 41.895035 -71.211945 4,400 214 200 64
2019-01-20 15:22:35 GMT 41.898605 -71.208824 4,400 215 200 0
2019-01-20 15:22:29 GMT 41.902954 -71.204826 4,400 217 201 -64
2019-01-20 15:22:25 GMT 41.906139 -71.201561 4,400 223 200 0
2019-01-20 15:22:20 GMT 41.909225 -71.197960 4,400 223 200 0
2019-01-20 15:22:16 GMT 41.912384 -71.193901 4,400 224 203 0
2019-01-20 15:22:12 GMT 41.915077 -71.190575 4,400 223 201 0
2019-01-20 15:22:09 GMT 41.917419 -71.187660 4,400 223 202 0
2019-01-20 15:22:04 GMT 41.920258 -71.184227 4,400 222 201 64
2019-01-20 15:22:01 GMT 41.923317 -71.180550 4,400 222 200 0
2019-01-20 15:21:58 GMT 41.924835 -71.178734 4,400 221 200 0
2019-01-20 15:21:54 GMT 41.927582 -71.175613 4,375 220 198 192
2019-01-20 15:21:47 GMT 41.932255 -71.170586 4,375 218 201 -192
2019-01-20 15:21:44 GMT 41.934814 -71.167900 4,400 217 203 -64
2019-01-20 15:21:39 GMT 41.938400 -71.164391 4,400 216 204 64
2019-01-20 15:21:36 GMT 41.940632 -71.162277 4,400 216 203 0
2019-01-20 15:21:33 GMT 41.942642 -71.160385 4,400 216 203 0
2019-01-20 15:21:29 GMT 41.946266 -71.156975 4,400 217 203 64
2019-01-20 15:21:25 GMT 41.950150 -71.153076 4,400 220 203 64
2019-01-20 15:21:18 GMT 41.954647 -71.147911 4,400 225 202 0
2019-01-20 15:21:15 GMT 41.956322 -71.145676 4,400 225 202 0
2019-01-20 15:21:11 GMT 41.958649 -71.142609 4,400 225 202 0
2019-01-20 15:21:08 GMT 41.960999 -71.139404 4,400 225 202 -64
2019-01-20 15:21:05 GMT 41.963013 -71.136726 4,375 225 202 -64
2019-01-20 15:21:02 GMT 41.964386 -71.134850 4,375 225 202 -64
2019-01-20 15:20:58 GMT 41.967869 -71.130219 4,400 225 201 0
2019-01-20 15:20:55 GMT 41.969879 -71.127548 4,400 225 200 64
2019-01-20 15:20:52 GMT 41.972076 -71.124611 4,400 225 200 0
2019-01-20 15:20:46 GMT 41.975082 -71.120636 4,400 225 199 0
2019-01-20 15:20:41 GMT 41.978760 -71.115715 4,400 226 198 64
2019-01-20 15:20:36 GMT 41.981506 -71.111946 4,400 226 200 -128
2019-01-20 15:20:32 GMT 41.984440 -71.107986 4,400 225 205 0
2019-01-20 15:20:27 GMT 41.988117 -71.103004 4,400 225 201 -64
2019-01-20 15:20:22 GMT 41.991142 -71.098984 4,400 225 202 0
2019-01-20 15:20:16 GMT 41.995193 -71.093613 4,400 225 202 0
2019-01-20 15:20:11 GMT 41.998032 -71.089912 4,400 225 204 0
2019-01-20 15:20:06 GMT 42.002335 -71.084167 4,400 225 205 0
2019-01-20 15:20:02 GMT 42.004688 -71.081032 4,400 225 206 0
2019-01-20 15:19:59 GMT 42.006271 -71.078987 4,400 225 207 0
2019-01-20 15:19:55 GMT 42.009346 -71.074898 4,400 225 207 -64
2019-01-20 15:19:50 GMT 42.012222 -71.071121 4,400 225 207 64
2019-01-20 15:19:44 GMT 42.016434 -71.065628 4,400 225 206 0
2019-01-20 15:19:40 GMT 42.019547 -71.061508 4,375 225 205 128
2019-01-20 15:19:35 GMT 42.023575 -71.056259 4,375 225 202 64
2019-01-20 15:19:28 GMT 42.027824 -71.050758 4,375 225 202 0
2019-01-20 15:19:24 GMT 42.030525 -71.047241 4,375 225 203 64
2019-01-20 15:19:20 GMT 42.033180 -71.043793 4,375 225 202 -384
2019-01-20 15:19:17 GMT 42.035786 -71.040344 4,425 225 202 -576
2019-01-20 15:19:14 GMT 42.037460 -71.038170 4,450 225 200 -576
2019-01-20 15:19:09 GMT 42.040211 -71.034599 4,475 225 199 -576
2019-01-20 15:19:03 GMT 42.044586 -71.028908 4,550 225 196 -576
2019-01-20 15:18:59 GMT 42.046959 -71.025780 4,575 225 195 -576
2019-01-20 15:18:52 GMT 42.051243 -71.020226 4,650 225 194 -640
2019-01-20 15:18:48 GMT 42.053833 -71.016808 4,700 225 194 -640
2019-01-20 15:18:42 GMT 42.057770 -71.011627 4,750 225 194 -640
2019-01-20 15:18:39 GMT 42.060459 -71.008087 4,800 225 195 -640
2019-01-20 15:18:32 GMT 42.064545 -71.002769 4,850 225 195 -640
2019-01-20 15:18:29 GMT 42.066284 -71.000519 4,900 225 195 -640
2019-01-20 15:18:25 GMT 42.069809 -70.995903 4,950 225 196 -576
2019-01-20 15:18:22 GMT 42.071445 -70.993782 4,975 225 196 -576
2019-01-20 15:18:18 GMT 42.073975 -70.990471 5,000 224 196 -576
2019-01-20 15:18:14 GMT 42.076984 -70.986626 5,025 224 196 -576
2019-01-20 15:18:11 GMT 42.078056 -70.985222 5,050 224 196 -576
2019-01-20 15:18:07 GMT 42.080750 -70.981789 5,100 224 195 -576
2019-01-20 15:18:01 GMT 42.084915 -70.976364 5,300 234 195 -576
2019-01-20 15:17:56 GMT 42.087784 -70.972702 5,225 226 194 -640
2019-01-20 15:17:51 GMT 42.094162 -70.963379 5,300 232 194 -576
2019-01-20 15:17:46 GMT 42.094162 -70.963379 5,325 237 195 -512
2019-01-20 15:17:43 GMT 42.095398 -70.960945 5,350 239 196 -512
2019-01-20 15:17:38 GMT 42.099422 -70.949966 5,400 253 204 -64
2019-01-20 15:17:34 GMT 42.099422 -70.949966 5,400 253 204 -64
2019-01-20 15:17:30 GMT 42.100525 -70.944962 5,400 260 206 0
2019-01-20 15:17:25 GMT 42.101284 -70.939423 5,400 266 207 0
2019-01-20 15:17:19 GMT 42.101612 -70.931374 5,400 274 210 -64
2019-01-20 15:17:15 GMT 42.101303 -70.925552 5,400 279 213 64
2019-01-20 15:17:07 GMT 42.099838 -70.915810 5,400 290 220 -64
2019-01-20 15:17:03 GMT 42.098351 -70.909981 5,400 300 225 64
2019-01-20 15:16:57 GMT 42.095901 -70.903076 5,400 301 225 64
2019-01-20 15:16:53 GMT 42.093842 -70.898643 5,400 306 228 64
2019-01-20 15:16:50 GMT 42.091789 -70.894646 5,375 311 230 64
2019-01-20 15:16:46 GMT 42.089367 -70.890877 5,375 314 231 64
2019-01-20 15:16:43 GMT 42.086807 -70.887238 5,375 319 233 128
2019-01-20 15:16:36 GMT 42.081573 -70.881355 5,375 328 234 -128
2019-01-20 15:16:33 GMT 42.078232 -70.878357 5,375 332 234 -128
2019-01-20 15:16:26 GMT 42.071686 -70.873863 5,375 339 233 64
2019-01-20 15:16:23 GMT 42.068092 -70.872040 5,375 345 232 0
2019-01-20 15:16:16 GMT 42.061157 -70.869682 5,400 354 230 -64
2019-01-20 15:16:12 GMT 42.056919 -70.868973 5,400 359 232 0
2019-01-20 15:16:05 GMT 42.050495 -70.868843 5,400 5 236 0
2019-01-20 15:16:02 GMT 42.045937 -70.869484 5,400 10 238 0
2019-01-20 15:15:55 GMT 42.039558 -70.871208 5,400 16 241 0
2019-01-20 15:15:51 GMT 42.034332 -70.873489 5,400 56 247 0
2019-01-20 15:15:45 GMT 42.028381 -70.877045 5,400 28 245 0
2019-01-20 15:15:40 GMT 42.023621 -70.880852 5,400 34 246 0
2019-01-20 15:15:34 GMT 42.018471 -70.885895 5,400 41 247 0
2019-01-20 15:15:30 GMT 42.014652 -70.890556 5,400 46 248 -64
2019-01-20 15:15:25 GMT 42.010090 -70.897461 5,400 53 247 0
2019-01-20 15:15:19 GMT 42.005997 -70.905449 5,400 61 247 -64
2019-01-20 15:15:14 GMT 42.003803 -70.910873 5,400 66 246 0
2019-01-20 15:15:10 GMT 42.001831 -70.917061 5,400 71 245 0
2019-01-20 15:15:04 GMT 41.999847 -70.925949 5,400 78 242 0
2019-01-20 15:14:59 GMT 41.998917 -70.932266 5,400 84 240 0
2019-01-20 15:14:53 GMT 41.998444 -70.941093 5,400 90 238 -64
2019-01-20 15:14:47 GMT 41.998775 -70.949768 5,400 96 235 0
2019-01-20 15:14:42 GMT 41.999569 -70.956543 5,400 102 232 0
2019-01-20 15:14:37 GMT 42.000778 -70.963440 5,400 104 230 64
2019-01-20 15:14:33 GMT 42.002220 -70.970657 5,400 104 230 -64
2019-01-20 15:14:28 GMT 42.003616 -70.977859 5,400 104 230 0
2019-01-20 15:14:22 GMT 42.005062 -70.985153 5,400 104 230 0
2019-01-20 15:14:15 GMT 42.006737 -70.994034 5,400 104 230 0
2019-01-20 15:14:12 GMT 42.007809 -70.999718 5,400 104 231 128
2019-01-20 15:14:06 GMT 42.009205 -71.006935 5,400 113 222 0
2019-01-20 15:14:01 GMT 42.010788 -71.014153 5,375 112 223 -64
2019-01-20 15:13:56 GMT 42.012726 -71.020432 5,400 129 208 -64
2019-01-20 15:13:51 GMT 42.015244 -71.026611 5,400 125 212 0
2019-01-20 15:13:46 GMT 42.018036 -71.031853 5,400 131 206 -128
2019-01-20 15:13:40 GMT 42.021698 -71.037102 5,400 138 201 64
2019-01-20 15:13:36 GMT 42.027733 -71.043343 5,400 147 194 0
2019-01-20 15:13:32 GMT 42.027733 -71.043343 5,400 194 160 64
2019-01-20 15:13:25 GMT 42.033318 -71.046989 5,400 164 179 64
2019-01-20 15:13:22 GMT 42.035568 -71.047958 5,400 168 176 64
2019-01-20 15:13:15 GMT 42.041607 -71.049347 5,400 178 168 0
2019-01-20 15:13:12 GMT 42.043560 -71.049477 5,400 185 164 -64
2019-01-20 15:13:09 GMT 42.045959 -71.049210 5,400 190 162 0
2019-01-20 15:13:04 GMT 42.049438 -71.048393 5,400 197 160 0
2019-01-20 15:12:59 GMT 42.053337 -71.046921 5,400 198 160 0
2019-01-20 15:12:51 GMT 42.058552 -71.044685 5,400 199 161 -64
2019-01-20 15:12:48 GMT 42.060837 -71.043716 5,400 199 161 -64
2019-01-20 15:12:44 GMT 42.063995 -71.042282 5,400 199 160 -64
2019-01-20 15:12:38 GMT 42.067905 -71.040535 5,400 199 160 -64
2019-01-20 15:12:33 GMT 42.071457 -71.038910 5,400 199 160 0
2019-01-20 15:12:30 GMT 42.073029 -71.038170 5,400 199 160 0
2019-01-20 15:12:27 GMT 42.075348 -71.037163 5,400 199 160 0
2019-01-20 15:12:23 GMT 42.078846 -71.035622 5,400 200 161 64
2019-01-20 15:12:20 GMT 42.080383 -71.034912 5,400 200 161 64
2019-01-20 15:12:16 GMT 42.083130 -71.033600 5,400 200 161 -64
2019-01-20 15:12:10 GMT 42.087414 -71.031532 5,400 200 158 64
2019-01-20 15:12:07 GMT 42.090252 -71.030190 5,375 199 157 128
2019-01-20 15:12:00 GMT 42.094440 -71.028465 5,375 198 156 64
2019-01-20 15:11:56 GMT 42.097321 -71.027237 5,375 198 158 -64
2019-01-20 15:11:52 GMT 42.100983 -71.025673 5,375 197 161 -128
2019-01-20 15:11:46 GMT 42.104828 -71.024178 5,375 197 168 -320
2019-01-20 15:11:39 GMT 42.109177 -71.022369 5,375 197 165 128
2019-01-20 15:11:34 GMT 42.112877 -71.020798 5,400 198 170 192
2019-01-20 15:11:31 GMT 42.115997 -71.019432 5,400 198 166 320
2019-01-20 15:11:28 GMT 42.117626 -71.018753 5,375 198 165 384
2019-01-20 15:11:24 GMT 42.120850 -71.017433 5,375 197 168 -128
2019-01-20 15:11:20 GMT 42.123772 -71.016266 5,375 197 167 -192
2019-01-20 15:11:15 GMT 42.127914 -71.014603 5,425 198 168 -704
2019-01-20 15:11:08 GMT 42.131927 -71.012939 5,450 198 167 -640
2019-01-20 15:11:04 GMT 42.135735 -71.011345 5,500 198 165 -576
2019-01-20 15:10:57 GMT 42.141506 -71.008789 5,550 199 163 -576
2019-01-20 15:10:54 GMT 42.143276 -71.007957 5,950 198 159 -704
2019-01-20 15:10:47 GMT 42.147652 -71.005913 5,700 200 156 -896
2019-01-20 15:10:43 GMT 42.150375 -71.004578 5,750 200 156 -768
2019-01-20 15:10:38 GMT 42.157745 -71.001266 5,850 199 160 -704
2019-01-20 15:10:32 GMT 42.157745 -71.001266 5,875 198 158 -704
2019-01-20 15:10:26 GMT 42.162552 -70.999146 5,925 198 159 -704
2019-01-20 15:10:23 GMT 42.164886 -70.998146 6,000 199 160 -704
2019-01-20 15:10:17 GMT 42.168594 -70.996521 6,050 198 160 -832
2019-01-20 15:10:11 GMT 42.172230 -70.994926 6,125 199 160 -768
2019-01-20 15:10:05 GMT 42.176697 -70.992966 6,225 199 163 0
2019-01-20 15:10:02 GMT 42.179443 -70.991783 6,250 198 161 -768
2019-01-20 15:09:57 GMT 42.182938 -70.990265 6,350 198 162 -640
2019-01-20 15:09:51 GMT 42.187134 -70.988472 6,375 199 163 -320
2019-01-20 15:09:46 GMT 42.191116 -70.986725 6,375 199 163 0
2019-01-20 15:09:40 GMT 42.194485 -70.985222 6,400 199 163 0
2019-01-20 15:09:35 GMT 42.198299 -70.983559 6,375 199 164 0
2019-01-20 15:09:29 GMT 42.202816 -70.981583 6,375 198 165 0
2019-01-20 15:09:24 GMT 42.205948 -70.980232 6,400 199 168 -64
2019-01-20 15:09:19 GMT 42.209938 -70.978516 6,400 198 169 -128
2019-01-20 15:09:14 GMT 42.214874 -70.976425 6,400 198 172 -64
2019-01-20 15:09:10 GMT 42.217392 -70.975365 6,400 198 175 64
2019-01-20 15:09:06 GMT 42.220039 -70.974297 6,400 198 179 192
2019-01-20 15:09:03 GMT 42.222382 -70.973305 6,375 198 180 192
2019-01-20 15:08:58 GMT 42.225998 -70.971741 6,375 198 181 -64
2019-01-20 15:08:53 GMT 42.230301 -70.969933 6,400 198 181 -64
2019-01-20 15:08:48 GMT 42.234890 -70.968040 6,400 197 181 64
2019-01-20 15:08:44 GMT 42.237682 -70.966827 6,400 198 181 64
2019-01-20 15:08:38 GMT 42.243130 -70.964592 6,375 198 181 0
2019-01-20 15:08:35 GMT 42.244804 -70.963890 6,400 198 180 0
2019-01-20 15:08:32 GMT 42.250717 -70.961334 6,375 198 180 0
2019-01-20 15:08:28 GMT 42.250717 -70.961334 6,375 198 180 64
2019-01-20 15:08:23 GMT 42.255112 -70.959511 6,400 198 179 0
2019-01-20 15:08:18 GMT 42.258911 -70.957886 6,375 198 179 64
2019-01-20 15:08:15 GMT 42.260864 -70.957054 6,375 198 179 0
2019-01-20 15:08:11 GMT 42.263718 -70.955826 6,375 198 179 0
2019-01-20 15:08:07 GMT 42.267292 -70.954239 6,375 198 180 64
2019-01-20 15:08:04 GMT 42.269199 -70.953415 6,375 198 181 0
2019-01-20 15:08:01 GMT 42.272141 -70.952141 6,375 199 182 -64
2019-01-20 15:07:54 GMT 42.277313 -70.949829 6,375 199 185 -320
2019-01-20 15:07:51 GMT 42.279968 -70.948647 6,400 198 185 -576
2019-01-20 15:07:47 GMT 42.283997 -70.946899 6,475 198 187 -960
2019-01-20 15:07:44 GMT 42.285816 -70.946129 6,500 198 186 -1216
2019-01-20 15:07:40 GMT 42.288620 -70.944962 6,575 198 186 -1344
2019-01-20 15:07:34 GMT 42.294067 -70.942589 6,725 200 187 -1216
2019-01-20 15:07:30 GMT 42.300934 -70.939407 6,875 198 188 -1408
2019-01-20 15:07:26 GMT 42.300934 -70.939407 6,900 193 188 -1408
2019-01-20 15:07:23 GMT 42.303135 -70.938530 7,000 184 192 -1536
2019-01-20 15:07:20 GMT 42.305740 -70.937912 7,025 182 193 -1472
2019-01-20 15:07:13 GMT 42.312725 -70.937958 7,200 171 198 -1344
2019-01-20 15:07:10 GMT 42.315563 -70.938660 7,275 161 204 -640
2019-01-20 15:07:03 GMT 42.320965 -70.941147 7,300 156 209 -256
2019-01-20 15:06:59 GMT 42.324409 -70.943382 7,325 153 211 -64
2019-01-20 15:06:54 GMT 42.328693 -70.946259 7,325 153 211 64
2019-01-20 15:06:51 GMT 42.331440 -70.948044 7,325 153 211 0
2019-01-20 15:06:48 GMT 42.333813 -70.949646 7,325 153 210 0
2019-01-20 15:06:45 GMT 42.336594 -70.951515 7,325 153 210 -64
2019-01-20 15:06:42 GMT 42.339539 -70.953537 7,325 153 210 0
2019-01-20 15:06:39 GMT 42.342865 -70.955765 7,325 153 210 0
2019-01-20 15:06:36 GMT 42.345566 -70.957573 7,325 153 208 0
2019-01-20 15:06:32 GMT 42.348587 -70.959633 7,325 153 208 0
2019-01-20 15:06:28 GMT 42.351608 -70.961632 7,325 153 208 0
2019-01-20 15:06:22 GMT 42.357330 -70.965378 7,325 153 207 -64
2019-01-20 15:06:17 GMT 42.360767 -70.967659 7,325 153 207 0
2019-01-20 15:06:11 GMT 42.366772 -70.971680 7,325 154 207 0
2019-01-20 15:06:06 GMT 42.370377 -70.973991 7,325 154 210 0
2019-01-20 15:06:03 GMT 42.374222 -70.976532 7,325 153 211 0
2019-01-20 15:06:00 GMT 42.375687 -70.977486 7,325 153 210 0
2019-01-20 15:05:56 GMT 42.378754 -70.979546 7,325 153 211 0
2019-01-20 15:05:51 GMT 42.384693 -70.983559 7,325 153 209 -64
2019-01-20 15:05:47 GMT 42.388233 -70.985985 7,325 153 209 64
2019-01-20 15:05:43 GMT 42.390656 -70.987648 7,325 153 209 0
2019-01-20 15:05:40 GMT 42.393494 -70.989594 7,325 153 209 0
2019-01-20 15:05:36 GMT 42.396797 -70.991798 7,325 153 209 64
2019-01-20 15:05:32 GMT 42.401138 -70.994774 7,325 153 211 64
2019-01-20 15:05:29 GMT 42.402527 -70.995697 7,325 153 213 -64
2019-01-20 15:05:26 GMT 42.405853 -70.997894 7,325 153 212 -64
2019-01-20 15:05:22 GMT 42.410019 -71.000710 7,325 153 213 64
2019-01-20 15:05:19 GMT 42.412033 -71.002075 7,325 153 213 0
2019-01-20 15:05:15 GMT 42.415047 -71.004128 7,325 153 213 0
2019-01-20 15:05:09 GMT 42.420822 -71.008011 7,325 154 214 -64
2019-01-20 15:05:04 GMT 42.424915 -71.010704 7,325 154 215 0
2019-01-20 15:04:59 GMT 42.430130 -71.014091 7,350 151 216 -192
2019-01-20 15:04:55 GMT 42.433762 -71.016777 7,350 145 222 64
2019-01-20 15:04:50 GMT 42.437851 -71.020554 7,325 139 229 192
2019-01-20 15:04:47 GMT 42.439545 -71.022491 7,325 134 237 192
2019-01-20 15:04:43 GMT 42.442612 -71.026489 7,325 129 244 0
2019-01-20 15:04:40 GMT 42.445770 -71.031731 7,325 120 257 -192
2019-01-20 15:04:37 GMT 42.447727 -71.035744 7,325 114 266 -192
2019-01-20 15:04:33 GMT 42.449020 -71.039284 7,350 110 271 -384
2019-01-20 15:04:28 GMT 42.451450 -71.049416 7,425 99 283 -704
2019-01-20 15:04:22 GMT 42.452545 -71.058258 7,475 97 288 -576
2019-01-20 15:04:19 GMT 42.453220 -71.065063 7,500 96 290 -576
2019-01-20 15:04:16 GMT 42.453690 -71.070435 7,525 96 291 -576
2019-01-20 15:04:13 GMT 42.454105 -71.075157 7,550 96 292 -576
2019-01-20 15:04:09 GMT 42.455246 -71.088036 7,600 96 295 -640
2019-01-20 15:04:03 GMT 42.455841 -71.094467 7,650 96 298 -704
2019-01-20 15:03:56 GMT 42.456848 -71.105949 7,725 96 299 -768
2019-01-20 15:03:53 GMT 42.457504 -71.112968 7,800 96 301 -896
2019-01-20 15:03:47 GMT 42.458405 -71.123238 7,900 96 302 -960
2019-01-20 15:03:44 GMT 42.458805 -71.127914 7,925 96 301 -896
2019-01-20 15:03:41 GMT 42.459457 -71.135643 7,975 96 300 -704
2019-01-20 15:03:37 GMT 42.459969 -71.141777 8,050 99 296 -640
2019-01-20 15:03:34 GMT 42.460529 -71.147522 8,050 99 296 -640
2019-01-20 15:03:31 GMT 42.461151 -71.152267 8,075 100 294 -704
2019-01-20 15:03:28 GMT 42.461929 -71.157883 8,150 103 290 -1152
2019-01-20 15:03:25 GMT 42.462982 -71.164131 8,250 104 290 -1152
2019-01-20 15:03:20 GMT 42.464348 -71.171539 8,325 104 289 -1152
2019-01-20 15:03:16 GMT 42.466095 -71.180420 8,350 105 288 -1152
2019-01-20 15:03:12 GMT 42.467140 -71.185661 8,425 105 287 -1152
2019-01-20 15:03:09 GMT 42.469513 -71.197472 8,500 105 287 -1152
2019-01-20 15:03:06 GMT 42.469513 -71.197472 8,550 105 287 -1152
2019-01-20 15:03:03 GMT 42.470581 -71.202705 8,600 105 287 -1152
2019-01-20 15:02:59 GMT 42.471748 -71.208397 8,675 105 287 -1152
2019-01-20 15:02:56 GMT 42.473236 -71.215500 8,750 105 285 -1088
2019-01-20 15:02:49 GMT 42.475571 -71.226860 8,875 105 284 -1152
2019-01-20 15:02:46 GMT 42.476776 -71.232666 8,975 105 284 -1152
2019-01-20 15:02:40 GMT 42.478775 -71.242783 9,075 105 285 -1152
2019-01-20 15:02:37 GMT 42.479874 -71.248146 9,100 105 285 -1152
2019-01-20 15:02:33 GMT 42.480965 -71.253616 9,175 105 285 -1152
2019-01-20 15:02:29 GMT 42.482346 -71.260506 9,250 104 286 -1152
2019-01-20 15:02:24 GMT 42.484085 -71.269310 9,350 104 287 -1088
2019-01-20 15:02:21 GMT 42.485275 -71.275429 9,400 104 287 -1152
2019-01-20 15:02:18 GMT 42.486145 -71.279793 9,450 104 288 -1088
2019-01-20 15:02:14 GMT 42.488087 -71.289711 9,550 105 296 -1088
2019-01-20 15:02:10 GMT 42.488892 -71.293777 9,550 105 296 -1088
2019-01-20 15:02:06 GMT 42.491409 -71.306572 9,725 104 291 -1152
2019-01-20 15:02:02 GMT 42.493057 -71.314880 9,800 105 296 -1088
2019-01-20 15:01:58 GMT 42.493057 -71.314880 9,825 105 293 -1152
2019-01-20 15:01:55 GMT 42.493954 -71.319534 9,925 104 293 -1216
2019-01-20 15:01:52 GMT 42.495071 -71.325180 9,950 104 293 -1216
2019-01-20 15:01:48 GMT 42.496746 -71.333717 10,425 105 296 -1088
2019-01-20 15:01:45 GMT 42.497585 -71.337807 10,075 105 296 -1088
2019-01-20 15:01:42 GMT 42.498653 -71.343170 10,125 105 296 -1088
2019-01-20 15:01:38 GMT 42.500336 -71.351585 10,250 105 296 -1088
2019-01-20 15:01:35 GMT 42.501389 -71.356575 10,275 105 298 -1024
2019-01-20 15:01:31 GMT 42.504959 -71.373741 10,675 105 324 -832
2019-01-20 15:01:25 GMT 42.504959 -71.373741 10,400 105 302 -640
2019-01-20 15:01:22 GMT 42.506428 -71.380859 10,425 105 305 -448
2019-01-20 15:01:15 GMT 42.509224 -71.394142 10,475 105 309 -576
2019-01-20 15:01:11 GMT 42.510433 -71.399956 10,525 105 313 -576
2019-01-20 15:01:06 GMT 42.512856 -71.411514 10,575 105 318 -576
2019-01-20 15:01:02 GMT 42.514160 -71.418060 10,625 105 321 -576
2019-01-20 15:00:56 GMT 42.516449 -71.429298 10,675 105 324 -832
2019-01-20 15:00:53 GMT 42.517365 -71.433792 10,725 105 325 -1216
2019-01-20 15:00:49 GMT 42.519379 -71.443405 10,800 105 325 -1664
2019-01-20 15:00:45 GMT 42.521255 -71.452393 10,975 105 325 -1664
2019-01-20 15:00:41 GMT 42.522491 -71.458260 11,100 105 325 -1728
2019-01-20 15:00:34 GMT 42.525330 -71.471809 11,225 105 326 -1728
2019-01-20 15:00:30 GMT 42.527115 -71.480232 11,350 105 326 -1728
2019-01-20 15:00:27 GMT 42.528400 -71.486565 11,475 105 325 -1664
2019-01-20 15:00:24 GMT 42.529240 -71.490463 11,600 105 326 -1728
2019-01-20 15:00:21 GMT 42.530273 -71.495590 11,600 105 326 -1728
2019-01-20 15:00:18 GMT 42.531693 -71.502457 11,700 105 326 -1728
2019-01-20 15:00:14 GMT 42.533707 -71.512131 11,850 105 326 -1728
2019-01-20 15:00:08 GMT 42.535805 -71.522148 11,950 105 325 -1664
2019-01-20 15:00:04 GMT 42.538689 -71.536201 12,150 105 322 64
2019-01-20 14:59:58 GMT 42.542496 -71.554451 12,375 105 322 -64
2019-01-20 14:59:52 GMT 42.542496 -71.554451 12,150 105 321 192
2019-01-20 14:59:49 GMT 42.544235 -71.562820 12,150 105 322 -64
2019-01-20 14:59:46 GMT 42.544464 -71.563789 12,150 105 322 -64
2019-01-20 14:59:42 GMT 42.546524 -71.573685 12,175 105 323 -768
2019-01-20 14:59:38 GMT 42.548309 -71.582481 12,275 106 322 -1280
2019-01-20 14:59:33 GMT 42.550282 -71.591194 12,375 108 321 -1280
2019-01-20 14:59:30 GMT 42.551399 -71.595795 12,550 110 321 -1344
2019-01-20 14:59:27 GMT 42.553028 -71.601990 12,500 110 320 -1408
2019-01-20 14:59:21 GMT 42.556686 -71.615440 12,675 109 322 -1408
2019-01-20 14:59:18 GMT 42.559174 -71.624664 12,775 109 322 -1408
2019-01-20 14:59:10 GMT 42.561813 -71.634544 12,850 109 323 -1344
2019-01-20 14:59:06 GMT 42.563690 -71.641594 12,975 109 324 -1344
2019-01-20 14:59:00 GMT 42.566994 -71.654045 13,125 109 326 -1344
2019-01-20 14:58:56 GMT 42.570511 -71.667252 13,275 109 326 -1408
2019-01-20 14:58:49 GMT 42.572388 -71.674370 13,325 109 327 -1408
2019-01-20 14:58:44 GMT 42.574581 -71.682663 13,450 109 327 -1408
2019-01-20 14:58:40 GMT 42.577049 -71.692177 13,550 109 328 -1408
2019-01-20 14:58:37 GMT 42.578819 -71.698952 13,650 109 328 -1408
2019-01-20 14:58:34 GMT 42.579620 -71.702080 13,700 109 328 -1408
2019-01-20 14:58:30 GMT 42.582458 -71.712753 13,825 109 330 -1408
2019-01-20 14:58:25 GMT 42.585251 -71.723434 13,950 109 330 -1344
2019-01-20 14:58:19 GMT 42.587757 -71.733055 14,300 109 332 -1344
2019-01-20 14:58:16 GMT 42.590424 -71.743217 14,175 109 332 -1408
2019-01-20 14:58:09 GMT 42.593109 -71.753242 14,300 110 333 -1280
2019-01-20 14:58:04 GMT 42.595947 -71.763779 14,425 110 333 -1280
2019-01-20 14:57:58 GMT 42.598602 -71.773811 14,525 110 333 -1280
2019-01-20 14:57:55 GMT 42.600231 -71.779877 14,600 110 332 -1280
2019-01-20 14:57:48 GMT 42.605865 -71.800827 14,750 110 333 -1344
2019-01-20 14:57:45 GMT 42.605865 -71.800827 14,825 110 333 -1344
2019-01-20 14:57:39 GMT 42.608612 -71.810982 14,925 109 334 -1344
2019-01-20 14:57:36 GMT 42.610840 -71.819313 15,025 109 334 -1344
2019-01-20 14:57:32 GMT 42.612579 -71.825806 15,100 109 335 -1344
2019-01-20 14:57:27 GMT 42.615143 -71.835480 15,225 109 337 -1344
2019-01-20 14:57:22 GMT 42.617706 -71.845284 15,325 109 338 -1344
2019-01-20 14:57:17 GMT 42.620483 -71.855827 15,450 109 339 -1344
2019-01-20 14:57:14 GMT 42.622112 -71.862022 15,525 109 339 -1344
2019-01-20 14:57:11 GMT 42.623657 -71.868065 15,575 109 339 -1344
2019-01-20 14:57:05 GMT 42.626301 -71.878113 15,675 109 340 -1344
2019-01-20 14:57:00 GMT 42.629013 -71.888351 15,800 109 341 -1344
2019-01-20 14:56:56 GMT 42.631348 -71.897026 15,900 109 342 -1280
2019-01-20 14:56:51 GMT 42.633728 -71.906082 16,125 109 341 -1344
2019-01-20 14:56:48 GMT 42.636032 -71.914780 16,075 109 341 -1280
2019-01-20 14:56:45 GMT 42.637024 -71.918564 16,100 109 341 -1344
2019-01-20 14:56:41 GMT 42.639908 -71.929489 16,250 109 340 -1280
2019-01-20 14:56:38 GMT 42.640732 -71.932472 16,275 109 340 -1280
2019-01-20 14:56:35 GMT 42.642456 -71.939117 16,325 109 340 -1280
2019-01-20 14:56:31 GMT 42.644943 -71.948341 16,450 109 339 -1280
2019-01-20 14:56:28 GMT 42.646088 -71.952721 16,500 109 339 -1280
2019-01-20 14:56:25 GMT 42.647762 -71.958916 16,550 109 336 -1152
2019-01-20 14:56:22 GMT 42.649715 -71.966324 16,650 109 338 -1280
2019-01-20 14:56:18 GMT 42.652092 -71.975334 16,725 109 338 -1216
2019-01-20 14:56:15 GMT 42.656204 -71.990601 17,200 109 349 -1920
2019-01-20 14:56:09 GMT 42.656204 -71.990601 16,875 109 335 -1152
2019-01-20 14:56:06 GMT 42.658127 -71.997902 16,950 109 335 -1152
2019-01-20 14:56:00 GMT 42.661121 -72.009186 17,075 109 336 -1216
2019-01-20 14:55:57 GMT 42.663208 -72.017128 17,425 109 336 -1216
2019-01-20 14:55:53 GMT 42.664333 -72.021515 17,175 109 337 -1152
2019-01-20 14:55:48 GMT 42.667313 -72.032692 17,300 109 340 -1152
2019-01-20 14:55:43 GMT 42.669735 -72.042145 17,375 109 342 -1152
2019-01-20 14:55:38 GMT 42.672913 -72.054329 17,475 109 343 -1088
2019-01-20 14:55:32 GMT 42.675274 -72.063477 17,550 109 345 -1088
2019-01-20 14:55:28 GMT 42.678299 -72.075165 17,675 109 349 -1088
2019-01-20 14:55:23 GMT 42.680862 -72.085068 17,775 109 350 -1344
2019-01-20 14:55:17 GMT 42.683979 -72.096886 17,925 109 349 -1856
2019-01-20 14:55:11 GMT 42.686588 -72.106789 18,075 109 349 -1920
2019-01-20 14:55:08 GMT 42.688797 -72.115005 18,200 109 349 -1920
2019-01-20 14:55:02 GMT 42.692081 -72.127609 18,400 109 348 -1920
2019-01-20 14:54:57 GMT 42.694874 -72.138084 18,550 109 348 -1920
2019-01-20 14:54:51 GMT 42.697807 -72.149261 18,675 109 348 -1856
2019-01-20 14:54:48 GMT 42.699966 -72.157455 18,850 109 348 -1856
2019-01-20 14:54:45 GMT 42.701065 -72.161591 18,925 109 349 -1856
2019-01-20 14:54:40 GMT 42.703583 -72.171562 19,075 109 349 -1792
2019-01-20 14:54:37 GMT 42.705719 -72.179794 19,175 109 349 -1728
2019-01-20 14:54:31 GMT 42.708931 -72.192245 19,350 109 350 -1536
2019-01-20 14:54:28 GMT 42.710312 -72.197655 19,425 109 352 -1216
2019-01-20 14:54:25 GMT 42.714432 -72.213943 19,525 109 352 -1024
2019-01-20 14:54:20 GMT 42.714432 -72.213943 19,550 109 353 -1024
2019-01-20 14:54:17 GMT 42.716629 -72.222496 19,625 109 353 -1088
2019-01-20 14:54:14 GMT 42.717449 -72.225655 19,700 109 355 -1280
2019-01-20 14:54:10 GMT 42.721500 -72.240982 19,900 107 360 -1664
2019-01-20 14:54:04 GMT 42.723450 -72.249092 19,950 106 362 -1792
2019-01-20 14:53:58 GMT 42.726200 -72.263466 20,175 100 370 -2240
2019-01-20 14:53:54 GMT 42.727386 -72.272125 20,425 97 378 -1408
2019-01-20 14:53:51 GMT 42.727879 -72.276566 20,350 95 382 -1344
2019-01-20 14:53:48 GMT 42.728436 -72.283463 20,400 93 386 -1472
2019-01-20 14:53:44 GMT 42.728764 -72.297195 20,600 87 399 -2048
2019-01-20 14:53:41 GMT 42.728622 -72.304398 20,675 84 404 -2240
2019-01-20 14:53:37 GMT 42.728027 -72.314445 20,825 82 409 -2240
2019-01-20 14:53:33 GMT 42.727180 -72.322868 20,900 77 417 -2048
2019-01-20 14:53:30 GMT 42.726471 -72.327995 20,950 78 416 -2112
2019-01-20 14:53:27 GMT 42.725456 -72.334625 21,100 74 422 -2048
2019-01-20 14:53:23 GMT 42.722397 -72.348656 21,225 70 430 -2176
2019-01-20 14:53:20 GMT 42.718895 -72.360809 21,500 64 438 -2560
2019-01-20 14:53:14 GMT 42.714432 -72.372871 21,700 60 443 -2496
2019-01-20 14:53:11 GMT 42.710281 -72.382462 21,900 56 449 -1984
2019-01-20 14:53:08 GMT 42.710281 -72.382462 21,900 55 451 -1792
2019-01-20 14:53:05 GMT 42.705719 -72.391663 21,975 52 455 -1728
2019-01-20 14:53:02 GMT 42.701439 -72.399139 22,175 48 459 -2176
2019-01-20 14:52:57 GMT 42.695431 -72.408463 22,250 43 464 -2432
2019-01-20 14:52:54 GMT 42.689896 -72.415756 22,400 41 465 -2624
2019-01-20 14:52:51 GMT 42.685375 -72.421173 22,500 39 466 -2688
2019-01-20 14:52:47 GMT 42.678543 -72.428368 22,675 34 469 -2624
2019-01-20 14:52:42 GMT 42.669594 -72.436310 22,900 29 471 -2368
2019-01-20 14:52:39 GMT 42.663071 -72.441162 23,000 25 471 -2368
2019-01-20 14:52:36 GMT 42.658562 -72.444229 23,700 7 456 -4544
2019-01-20 14:52:33 GMT 42.645676 -72.450897 23,425 16 467 -4096
2019-01-20 14:52:27 GMT 42.636913 -72.453941 23,800 10 460 -4544
2019-01-20 14:52:24 GMT 42.632492 -72.455086 23,950 8 457 -4544
2019-01-20 14:52:21 GMT 42.616104 -72.457260 24,325 2 450 -4544
2019-01-20 14:52:17 GMT 42.616104 -72.457260 24,550 0 446 -4352
2019-01-20 14:52:14 GMT 42.614044 -72.457329 24,675 356 440 -3776
2019-01-20 14:52:11 GMT 42.605988 -72.457085 24,925 354 436 -3584
2019-01-20 14:52:08 GMT 42.599716 -72.456268 25,050 352 433 -3328
2019-01-20 14:52:05 GMT 42.593948 -72.455208 25,350 347 425 -2624
2019-01-20 14:52:01 GMT 42.585430 -72.452850 25,350 346 424 -2432
2019-01-20 14:51:58 GMT 42.574348 -72.448509 25,550 339 415 -1024
2019-01-20 14:51:55 GMT 42.574348 -72.448509 25,600 337 411 -704
2019-01-20 14:51:50 GMT 42.565041 -72.443588 25,650 334 402 -640
2019-01-20 14:51:44 GMT 42.556091 -72.437790 25,700 330 391 -704
2019-01-20 14:51:40 GMT 42.548977 -72.432030 25,750 326 381 -768
2019-01-20 14:51:37 GMT 42.544556 -72.428055 25,800 324 377 -832
2019-01-20 14:51:34 GMT 42.540833 -72.424492 25,850 322 371 -896
2019-01-20 14:51:29 GMT 42.534210 -72.417130 25,900 318 364 -960
2019-01-20 14:51:25 GMT 42.530266 -72.412231 25,950 315 359 -960
2019-01-20 14:51:22 GMT 42.526016 -72.406456 26,050 310 352 -960
2019-01-20 14:51:19 GMT 42.522724 -72.401497 26,075 309 348 -960
2019-01-20 14:51:16 GMT 42.516495 -72.390724 26,175 305 342 -1024
2019-01-20 14:51:12 GMT 42.516495 -72.390724 26,175 305 342 -1024
2019-01-20 14:51:09 GMT 42.512833 -72.383423 26,225 302 337 -1024
2019-01-20 14:51:06 GMT 42.510361 -72.377869 26,275 300 334 -1024
2019-01-20 14:51:03 GMT 42.507965 -72.371986 26,325 297 329 -1088
2019-01-20 14:51:00 GMT 42.506195 -72.367256 26,425 293 323 -1152
2019-01-20 14:50:57 GMT 42.504730 -72.362762 26,450 292 322 -1152
2019-01-20 14:50:54 GMT 42.502441 -72.355331 26,500 290 318 -1152
2019-01-20 14:50:51 GMT 42.501167 -72.350464 26,550 287 314 -1152
2019-01-20 14:50:48 GMT 42.499969 -72.345535 26,650 285 311 -1152
2019-01-20 14:50:45 GMT 42.498596 -72.338982 26,675 284 308 -1152
2019-01-20 14:50:42 GMT 42.497631 -72.333534 26,725 282 306 -1088
2019-01-20 14:50:39 GMT 42.496746 -72.327728 26,800 280 302 -896
2019-01-20 14:50:36 GMT 42.496094 -72.322678 26,800 280 302 -896
2019-01-20 14:50:33 GMT 42.495621 -72.318253 26,950 276 297 -768
2019-01-20 14:50:30 GMT 42.495163 -72.313034 26,875 275 295 -768
2019-01-20 14:50:27 GMT 42.494751 -72.304955 26,925 272 291 -704
2019-01-20 14:50:24 GMT 42.494705 -72.299713 26,975 267 285 -448
2019-01-20 14:50:21 GMT 42.494843 -72.293785 27,000 266 283 -256
2019-01-20 14:50:18 GMT 42.495071 -72.289528 27,000 264 280 -64
2019-01-20 14:50:15 GMT 42.495441 -72.284996 27,000 263 279 -64
2019-01-20 14:50:12 GMT 42.496307 -72.277931 27,000 256 272 0
2019-01-20 14:50:06 GMT 42.497864 -72.269501 27,000 252 268 0
2019-01-20 14:50:03 GMT 42.498749 -72.265701 27,000 250 265 0
2019-01-20 14:50:00 GMT 42.500885 -72.258263 27,000 245 261 0
2019-01-20 14:49:56 GMT 42.502750 -72.252739 27,000 244 260 0
2019-01-20 14:49:52 GMT 42.505032 -72.247246 27,000 237 255 0
2019-01-20 14:49:49 GMT 42.506058 -72.245071 27,000 235 254 0
2019-01-20 14:49:46 GMT 42.509216 -72.238914 27,000 233 253 0
2019-01-20 14:49:42 GMT 42.511272 -72.235489 27,000 226 249 0
2019-01-20 14:49:39 GMT 42.514015 -72.231400 27,000 225 248 0
2019-01-20 14:49:36 GMT 42.516346 -72.228340 27,000 222 248 0
2019-01-20 14:49:33 GMT 42.518234 -72.226120 27,000 220 247 0
2019-01-20 14:49:30 GMT 42.521347 -72.222687 27,000 216 246 0
2019-01-20 14:49:27 GMT 42.524460 -72.219749 27,000 207 245 0
2019-01-20 14:49:23 GMT 42.528030 -72.216820 27,000 209 246 0
2019-01-20 14:49:20 GMT 42.532310 -72.213898 27,000 205 245 0
2019-01-20 14:49:17 GMT 42.535477 -72.212051 27,000 199 246 64
2019-01-20 14:49:14 GMT 42.537388 -72.211090 27,000 198 247 64
2019-01-20 14:49:11 GMT 42.541763 -72.209267 27,000 194 248 0
2019-01-20 14:49:08 GMT 42.544556 -72.208328 27,000 191 248 0
2019-01-20 14:49:04 GMT 42.549225 -72.207207 27,000 186 251 0
2019-01-20 14:49:01 GMT 42.552006 -72.206680 27,000 185 251 0
2019-01-20 14:48:58 GMT 42.555267 -72.206329 27,000 181 254 0
2019-01-20 14:48:55 GMT 42.560074 -72.206268 27,000 171 261 0
2019-01-20 14:48:52 GMT 42.562592 -72.206459 27,000 175 257 0
2019-01-20 14:48:49 GMT 42.567600 -72.207191 27,000 170 261 0
2019-01-20 14:48:46 GMT 42.571556 -72.208092 27,000 167 264 0
2019-01-20 14:48:42 GMT 42.575363 -72.209267 27,000 161 270 0
2019-01-20 14:48:39 GMT 42.577606 -72.210136 27,000 161 270 0
2019-01-20 14:48:36 GMT 42.580818 -72.211472 27,000 159 272 0
2019-01-20 14:48:33 GMT 42.585571 -72.213882 27,000 154 277 0
2019-01-20 14:48:30 GMT 42.590927 -72.217194 27,000 152 280 0
2019-01-20 14:48:27 GMT 42.592644 -72.218369 27,000 150 281 0
2019-01-20 14:48:24 GMT 42.596100 -72.220879 27,000 149 283 0
2019-01-20 14:48:21 GMT 42.599487 -72.223549 27,000 147 285 0
2019-01-20 14:48:18 GMT 42.602829 -72.226433 27,000 145 287 0
2019-01-20 14:48:15 GMT 42.607216 -72.230637 27,000 141 292 0
2019-01-20 14:48:11 GMT 42.610939 -72.234535 27,000 138 296 0
2019-01-20 14:48:08 GMT 42.613449 -72.237480 27,000 137 299 0
2019-01-20 14:48:04 GMT 42.617504 -72.242584 27,000 134 303 0
2019-01-20 14:48:00 GMT 42.621140 -72.247589 27,000 129 311 0
2019-01-20 14:47:56 GMT 42.624802 -72.253273 27,000 128 312 0
2019-01-20 14:47:53 GMT 42.628349 -72.259506 27,000 125 317 0
2019-01-20 14:47:49 GMT 42.631348 -72.265442 27,000 123 321 0
2019-01-20 14:47:45 GMT 42.634140 -72.271439 27,000 116 332 0
2019-01-20 14:47:42 GMT 42.636383 -72.277054 27,000 113 336 0
2019-01-20 14:47:39 GMT 42.638351 -72.282486 27,000 113 336 0
2019-01-20 14:47:36 GMT 42.639999 -72.287727 27,000 111 341 0
2019-01-20 14:47:33 GMT 42.642334 -72.295967 27,000 109 345 -64
2019-01-20 14:47:30 GMT 42.643433 -72.300774 27,000 104 353 0
2019-01-20 14:47:27 GMT 42.644737 -72.307602 27,000 102 357 64
2019-01-20 14:47:24 GMT 42.645622 -72.313286 27,000 99 362 64
2019-01-20 14:47:21 GMT 42.646408 -72.319565 27,000 99 362 0
2019-01-20 14:47:18 GMT 42.647324 -72.327431 27,000 99 363 0
2019-01-20 14:47:14 GMT 42.648369 -72.336159 27,000 99 363 0
2019-01-20 14:47:11 GMT 42.649204 -72.343376 27,000 99 363 0
2019-01-20 14:47:08 GMT 42.649933 -72.349403 27,000 99 363 0
2019-01-20 14:47:05 GMT 42.651253 -72.360619 27,000 99 363 0
2019-01-20 14:47:02 GMT 42.651535 -72.363136 27,000 99 363 0
2019-01-20 14:46:59 GMT 42.652405 -72.370567 27,000 99 363 0
2019-01-20 14:46:56 GMT 42.653091 -72.376183 27,000 99 363 0
2019-01-20 14:46:53 GMT 42.653908 -72.383362 27,000 99 363 0
2019-01-20 14:46:50 GMT 42.654560 -72.388977 27,000 99 363 0
2019-01-20 14:46:47 GMT 42.655350 -72.395493 27,000 99 363 0
2019-01-20 14:46:43 GMT 42.656662 -72.406708 27,000 99 363 0
2019-01-20 14:46:37 GMT 42.658237 -72.420471 27,000 98 363 0
2019-01-20 14:46:34 GMT 42.659214 -72.428772 27,000 98 364 0
2019-01-20 14:46:30 GMT 42.660095 -72.436485 27,000 98 364 0
2019-01-20 14:46:26 GMT 42.661148 -72.445908 27,000 98 364 0
2019-01-20 14:46:22 GMT 42.662102 -72.454063 27,000 98 364 0
2019-01-20 14:46:19 GMT 42.662704 -72.459450 27,000 98 364 0
2019-01-20 14:46:16 GMT 42.663311 -72.464668 27,000 98 365 0
2019-01-20 14:46:13 GMT 42.664333 -72.473679 27,000 98 365 0
2019-01-20 14:46:10 GMT 42.665218 -72.481598 27,000 98 365 0
2019-01-20 14:46:07 GMT 42.666103 -72.489517 27,000 98 365 0
2019-01-20 14:46:03 GMT 42.666988 -72.497437 27,000 98 365 0
2019-01-20 14:46:00 GMT 42.667694 -72.503777 27,000 98 365 0
2019-01-20 14:45:57 GMT 42.668564 -72.511703 27,000 98 365 0
2019-01-20 14:45:54 GMT 42.668941 -72.515068 27,000 98 365 0
2019-01-20 14:45:51 GMT 42.670059 -72.525032 27,000 98 365 0
2019-01-20 14:45:47 GMT 42.671036 -72.533607 27,000 98 366 0
2019-01-20 14:45:44 GMT 42.671829 -72.540428 27,000 97 368 -64
2019-01-20 14:45:40 GMT 42.672573 -72.548470 27,000 93 373 0
2019-01-20 14:45:37 GMT 42.672913 -72.554276 27,000 92 377 0
2019-01-20 14:45:34 GMT 42.673141 -72.562325 27,000 89 382 0
2019-01-20 14:45:31 GMT 42.672638 -72.576561 27,000 83 392 0
2019-01-20 14:45:28 GMT 42.672638 -72.576561 27,000 81 396 0
2019-01-20 14:45:25 GMT 42.671768 -72.586105 27,000 78 400 0
2019-01-20 14:45:22 GMT 42.671082 -72.591286 27,000 76 403 0
2019-01-20 14:45:19 GMT 42.670029 -72.597466 27,000 72 410 0
2019-01-20 14:45:16 GMT 42.668339 -72.605835 27,000 70 413 0
2019-01-20 14:45:13 GMT 42.666092 -72.614700 27,000 66 418 0
2019-01-20 14:45:10 GMT 42.661495 -72.628891 27,000 63 422 0
2019-01-20 14:45:07 GMT 42.661495 -72.628891 27,000 61 425 0
2019-01-20 14:45:03 GMT 42.658192 -72.637131 27,000 57 430 0
2019-01-20 14:45:00 GMT 42.654053 -72.645721 27,000 53 435 0
2019-01-20 14:44:57 GMT 42.651531 -72.650673 27,000 50 437 0
2019-01-20 14:44:54 GMT 42.646912 -72.658333 27,000 47 439 0
2019-01-20 14:44:50 GMT 42.640640 -72.667442 27,000 41 443 0
2019-01-20 14:44:47 GMT 42.636246 -72.672935 27,000 38 446 0
2019-01-20 14:44:44 GMT 42.633053 -72.676476 27,000 37 446 0
2019-01-20 14:44:41 GMT 42.626678 -72.682800 27,000 33 448 0
2019-01-20 14:44:38 GMT 42.622696 -72.686424 27,000 28 448 0
2019-01-20 14:44:35 GMT 42.614548 -72.692604 27,000 25 449 0
2019-01-20 14:44:32 GMT 42.610565 -72.695160 27,000 24 449 0
2019-01-20 14:44:29 GMT 42.605026 -72.698402 27,000 18 448 0
2019-01-20 14:44:26 GMT 42.594772 -72.703026 27,000 2 441 0
2019-01-20 14:44:23 GMT 42.594772 -72.703026 27,000 10 447 64
2019-01-20 14:44:20 GMT 42.589142 -72.704964 27,000 10 447 0
2019-01-20 14:44:17 GMT 42.580402 -72.707138 27,000 6 444 0
2019-01-20 14:44:14 GMT 42.574265 -72.708015 27,000 2 441 0
2019-01-20 14:44:11 GMT 42.571014 -72.708267 27,000 358 436 0
2019-01-20 14:44:08 GMT 42.561874 -72.708412 27,000 357 434 0
2019-01-20 14:44:05 GMT 42.558884 -72.708145 27,000 355 433 0
2019-01-20 14:44:02 GMT 42.546249 -72.706085 27,000 349 425 64
2019-01-20 14:43:56 GMT 42.540298 -72.704399 27,000 344 419 0
2019-01-20 14:43:53 GMT 42.532497 -72.701385 27,000 340 413 0
2019-01-20 14:43:50 GMT 42.527435 -72.699028 27,000 337 407 0
2019-01-20 14:43:47 GMT 42.522720 -72.696411 27,000 335 403 0
2019-01-20 14:43:44 GMT 42.517277 -72.693024 27,000 332 399 0
2019-01-20 14:43:41 GMT 42.513062 -72.689919 27,000 324 383 0
2019-01-20 14:43:37 GMT 42.508530 -72.686295 27,000 327 389 0
2019-01-20 14:43:34 GMT 42.503448 -72.681717 27,000 324 383 0
2019-01-20 14:43:31 GMT 42.497818 -72.675934 27,000 319 374 0
2019-01-20 14:43:27 GMT 42.493423 -72.670876 27,000 315 366 0
2019-01-20 14:43:24 GMT 42.489716 -72.666061 27,000 313 363 0
2019-01-20 14:43:21 GMT 42.486599 -72.661591 27,000 311 360 0
2019-01-20 14:43:18 GMT 42.481663 -72.653740 27,000 305 348 0
2019-01-20 14:43:14 GMT 42.479599 -72.650032 27,000 304 345 0
2019-01-20 14:43:11 GMT 42.475296 -72.641411 27,000 300 339 0
2019-01-20 14:43:08 GMT 42.471004 -72.631065 27,000 297 332 64
2019-01-20 14:43:05 GMT 42.471004 -72.631065 27,000 294 328 0
2019-01-20 14:43:02 GMT 42.469986 -72.628059 27,000 293 326 0
2019-01-20 14:42:59 GMT 42.467148 -72.619255 27,000 291 321 0
2019-01-20 14:42:56 GMT 42.466095 -72.615257 27,000 288 317 -64
2019-01-20 14:42:53 GMT 42.464310 -72.607460 27,000 284 311 0
2019-01-20 14:42:49 GMT 42.463257 -72.601959 27,000 282 308 0
2019-01-20 14:42:46 GMT 42.462391 -72.596313 27,000 279 303 64
2019-01-20 14:42:42 GMT 42.461655 -72.589539 27,000 277 300 0
2019-01-20 14:42:39 GMT 42.460670 -72.577026 27,000 276 300 0
2019-01-20 14:42:36 GMT 42.460670 -72.577026 27,000 276 300 0
2019-01-20 14:42:31 GMT 42.460144 -72.569565 27,000 276 300 0
2019-01-20 14:42:28 GMT 42.459644 -72.562973 27,000 277 300 0
2019-01-20 14:42:25 GMT 42.459225 -72.557800 27,000 279 304 0
2019-01-20 14:42:21 GMT 42.457718 -72.542412 27,000 279 304 0
2019-01-20 14:42:17 GMT 42.457718 -72.542412 27,000 279 304 0
2019-01-20 14:42:14 GMT 42.457169 -72.537666 27,000 279 304 0
2019-01-20 14:42:11 GMT 42.456299 -72.530365 27,000 279 304 0
2019-01-20 14:42:08 GMT 42.455612 -72.524498 27,000 279 304 0
2019-01-20 14:42:05 GMT 42.454849 -72.518135 27,000 279 304 0
2019-01-20 14:42:01 GMT 42.453552 -72.506645 27,000 279 304 0
2019-01-20 14:41:58 GMT 42.453552 -72.506645 27,000 279 304 0
2019-01-20 14:41:55 GMT 42.452682 -72.499275 27,000 279 304 0
2019-01-20 14:41:52 GMT 42.451962 -72.492905 27,000 279 304 0
2019-01-20 14:41:49 GMT 42.451313 -72.487411 27,000 280 304 0
2019-01-20 14:41:46 GMT 42.450706 -72.482361 27,000 280 304 0
2019-01-20 14:41:43 GMT 42.450195 -72.477829 27,000 280 304 0
2019-01-20 14:41:39 GMT 42.449295 -72.470123 27,000 280 304 0
2019-01-20 14:41:36 GMT 42.448700 -72.465385 27,000 280 304 0
2019-01-20 14:41:33 GMT 42.447144 -72.451836 27,000 280 305 0
2019-01-20 14:41:29 GMT 42.447144 -72.451836 27,000 280 305 0
2019-01-20 14:41:26 GMT 42.446457 -72.446030 27,000 280 305 0
2019-01-20 14:41:23 GMT 42.445724 -72.439789 27,000 280 305 0
2019-01-20 14:41:19 GMT 42.443863 -72.423790 27,000 280 305 0
2019-01-20 14:41:15 GMT 42.443863 -72.423790 27,000 279 305 0
2019-01-20 14:41:12 GMT 42.443306 -72.419067 27,000 279 305 0
2019-01-20 14:41:08 GMT 42.442326 -72.410568 27,000 279 305 0
2019-01-20 14:41:04 GMT 42.441696 -72.405334 27,000 279 305 0
2019-01-20 14:41:01 GMT 42.440872 -72.398338 27,000 279 305 0
2019-01-20 14:40:58 GMT 42.440186 -72.392303 27,000 279 305 0
2019-01-20 14:40:55 GMT 42.439629 -72.387573 27,000 279 305 0
2019-01-20 14:40:52 GMT 42.439022 -72.382080 27,000 279 305 0
2019-01-20 14:40:49 GMT 42.438278 -72.375694 27,000 280 305 0
2019-01-20 14:40:46 GMT 42.437626 -72.370201 27,000 280 305 0
2019-01-20 14:40:42 GMT 42.436787 -72.363426 27,000 278 303 0
2019-01-20 14:40:36 GMT 42.435902 -72.352760 27,000 274 296 0
2019-01-20 14:40:32 GMT 42.435532 -72.343819 27,000 267 287 0
2019-01-20 14:40:27 GMT 42.435654 -72.333298 27,000 266 285 0
2019-01-20 14:40:23 GMT 42.435902 -72.329002 27,000 264 284 0
2019-01-20 14:40:20 GMT 42.436321 -72.323128 27,000 262 281 0
2019-01-20 14:40:16 GMT 42.437252 -72.315269 27,000 259 278 0
2019-01-20 14:40:12 GMT 42.438137 -72.309326 27,000 257 276 0
2019-01-20 14:40:09 GMT 42.439545 -72.301773 27,000 254 274 0
2019-01-20 14:40:06 GMT 42.440460 -72.297653 27,000 251 272 0
2019-01-20 14:40:03 GMT 42.441147 -72.294724 27,000 249 271 0
2019-01-20 14:40:00 GMT 42.442886 -72.288544 27,000 248 269 0
2019-01-20 14:39:55 GMT 42.444794 -72.282310 27,000 243 267 0
2019-01-20 14:39:52 GMT 42.446609 -72.277138 27,000 243 267 0
2019-01-20 14:39:49 GMT 42.447960 -72.273560 27,000 241 265 0
2019-01-20 14:39:45 GMT 42.451309 -72.265572 27,000 237 264 0
2019-01-20 14:39:42 GMT 42.453312 -72.261421 27,000 235 263 0
2019-01-20 14:39:39 GMT 42.454758 -72.258553 27,000 235 262 0
2019-01-20 14:39:34 GMT 42.458679 -72.251465 27,000 231 261 0
2019-01-20 14:39:30 GMT 42.461060 -72.247528 27,000 228 259 0
2019-01-20 14:39:27 GMT 42.463928 -72.243156 27,000 219 256 0
2019-01-20 14:39:24 GMT 42.467010 -72.238792 27,000 223 258 0
2019-01-20 14:39:21 GMT 42.468750 -72.236542 27,000 222 257 0
2019-01-20 14:39:18 GMT 42.471313 -72.233421 27,000 222 257 0
2019-01-20 14:39:14 GMT 42.475296 -72.228867 27,000 218 256 0
2019-01-20 14:39:11 GMT 42.479370 -72.224686 27,000 215 256 64
2019-01-20 14:39:03 GMT 42.487061 -72.217751 27,000 210 256 0
2019-01-20 14:39:00 GMT 42.489624 -72.215759 27,000 208 256 -64
2019-01-20 14:38:57 GMT 42.491207 -72.214607 27,000 207 256 -64
2019-01-20 14:38:53 GMT 42.496811 -72.210823 27,000 204 256 0
2019-01-20 14:38:50 GMT 42.503078 -72.207260 27,000 201 257 0
2019-01-20 14:38:47 GMT 42.503078 -72.207260 27,000 199 258 0
2019-01-20 14:38:44 GMT 42.505188 -72.206146 27,000 199 258 0
2019-01-20 14:38:41 GMT 42.509922 -72.204002 27,000 196 258 0
2019-01-20 14:38:38 GMT 42.514206 -72.202339 27,000 194 259 0
2019-01-20 14:38:35 GMT 42.516037 -72.201714 27,000 190 261 0
2019-01-20 14:38:32 GMT 42.519791 -72.200554 27,000 190 261 0
2019-01-20 14:38:29 GMT 42.523361 -72.199654 27,000 188 262 0
2019-01-20 14:38:26 GMT 42.526958 -72.198891 27,000 187 262 0
2019-01-20 14:38:23 GMT 42.531052 -72.198280 27,000 184 264 0
2019-01-20 14:38:20 GMT 42.538738 -72.197678 27,000 182 266 0
2019-01-20 14:38:17 GMT 42.538738 -72.197678 27,000 181 266 64
2019-01-20 14:38:12 GMT 42.545021 -72.197739 27,000 176 268 0
2019-01-20 14:38:09 GMT 42.551678 -72.198318 27,000 173 270 0
2019-01-20 14:38:01 GMT 42.562134 -72.200401 27,000 167 275 0
2019-01-20 14:37:58 GMT 42.565247 -72.201279 27,000 166 276 0
2019-01-20 14:37:50 GMT 42.571289 -72.203400 27,000 161 280 0
2019-01-20 14:37:47 GMT 42.575134 -72.205017 27,000 159 282 0
2019-01-20 14:37:43 GMT 42.580772 -72.207832 27,000 156 285 0
2019-01-20 14:37:38 GMT 42.587524 -72.211861 27,000 152 289 0
2019-01-20 14:37:35 GMT 42.590149 -72.213570 27,000 151 291 0
2019-01-20 14:37:31 GMT 42.594772 -72.217003 27,000 147 296 0
2019-01-20 14:37:28 GMT 42.598618 -72.220184 27,000 146 297 0
2019-01-20 14:37:25 GMT 42.603287 -72.224434 27,000 143 301 0
2019-01-20 14:37:22 GMT 42.603973 -72.225060 27,000 140 305 64
2019-01-20 14:37:19 GMT 42.608517 -72.229805 27,000 137 309 0
2019-01-20 14:37:16 GMT 42.611343 -72.232986 27,000 137 309 0
2019-01-20 14:37:12 GMT 42.616573 -72.239578 27,000 133 316 0
2019-01-20 14:37:09 GMT 42.618622 -72.242409 27,000 131 317 0
2019-01-20 14:37:06 GMT 42.625854 -72.253960 27,000 127 324 0
2019-01-20 14:37:02 GMT 42.625854 -72.253960 27,000 126 326 0
2019-01-20 14:36:59 GMT 42.629471 -72.260826 27,000 121 333 0
2019-01-20 14:36:56 GMT 42.633408 -72.269318 27,000 118 340 0
2019-01-20 14:36:53 GMT 42.637474 -72.279884 27,000 115 347 0
2019-01-20 14:36:48 GMT 42.637474 -72.279884 27,000 111 355 0
2019-01-20 14:36:45 GMT 42.639175 -72.285172 27,000 111 355 0
2019-01-20 14:36:40 GMT 42.643799 -72.303337 27,000 105 371 0
2019-01-20 14:36:37 GMT 42.643799 -72.303337 27,000 105 371 0
2019-01-20 14:36:34 GMT 42.644596 -72.307602 26,975 101 382 64
2019-01-20 14:36:31 GMT 42.645668 -72.314377 26,975 99 388 0
2019-01-20 14:36:28 GMT 42.646729 -72.322563 26,975 99 393 -64
2019-01-20 14:36:25 GMT 42.647575 -72.329765 26,975 99 394 -64
2019-01-20 14:36:21 GMT 42.648880 -72.340309 26,975 99 395 -64
2019-01-20 14:36:18 GMT 42.649811 -72.347908 27,000 99 397 0
2019-01-20 14:36:15 GMT 42.650620 -72.354774 27,000 99 397 0
2019-01-20 14:36:12 GMT 42.651398 -72.360886 27,000 99 397 0
2019-01-20 14:36:09 GMT 42.652325 -72.368729 27,000 99 397 0
2019-01-20 14:36:06 GMT 42.653629 -72.379333 27,000 99 397 0
2019-01-20 14:36:03 GMT 42.654095 -72.382973 27,000 99 397 0
2019-01-20 14:36:00 GMT 42.654884 -72.389618 27,000 99 397 0
2019-01-20 14:35:57 GMT 42.656139 -72.399651 27,000 99 396 -64
2019-01-20 14:35:54 GMT 42.656746 -72.404823 27,000 99 396 0
2019-01-20 14:35:51 GMT 42.657722 -72.412933 27,000 99 396 0
2019-01-20 14:35:47 GMT 42.659088 -72.423683 27,000 99 396 0
2019-01-20 14:35:44 GMT 42.660049 -72.431740 27,000 99 396 0
2019-01-20 14:35:41 GMT 42.660656 -72.436691 27,000 99 396 0
2019-01-20 14:35:38 GMT 42.661728 -72.445251 27,000 99 395 0
2019-01-20 14:35:34 GMT 42.662659 -72.453087 27,000 99 395 0
2019-01-20 14:35:31 GMT 42.663895 -72.463074 27,000 99 395 0
2019-01-20 14:35:26 GMT 42.665359 -72.475060 27,000 99 395 0
2019-01-20 14:35:23 GMT 42.666199 -72.481918 27,000 99 395 0
2019-01-20 14:35:20 GMT 42.666870 -72.487297 27,000 99 395 0
2019-01-20 14:35:15 GMT 42.668335 -72.499275 27,000 99 395 0
2019-01-20 14:35:12 GMT 42.670155 -72.514175 27,000 99 395 -64
2019-01-20 14:35:05 GMT 42.671642 -72.526115 27,000 99 394 0
2019-01-20 14:35:02 GMT 42.672226 -72.530991 27,000 99 394 0
2019-01-20 14:34:59 GMT 42.673096 -72.538101 27,000 99 394 0
2019-01-20 14:34:55 GMT 42.674717 -72.551476 27,000 99 394 0
2019-01-20 14:34:52 GMT 42.675430 -72.557327 27,000 99 393 0
2019-01-20 14:34:49 GMT 42.676208 -72.563637 27,000 99 393 0
2019-01-20 14:34:45 GMT 42.678497 -72.582428 27,000 99 393 0
2019-01-20 14:34:42 GMT 42.678497 -72.582428 27,000 99 393 0
2019-01-20 14:34:39 GMT 42.679367 -72.589478 27,000 99 393 0
2019-01-20 14:34:36 GMT 42.679916 -72.594345 27,000 99 393 0
2019-01-20 14:34:33 GMT 42.680832 -72.601898 27,000 99 393 -64
2019-01-20 14:34:30 GMT 42.681747 -72.609451 27,000 99 393 -64
2019-01-20 14:34:26 GMT 42.683094 -72.620651 27,000 99 394 0
2019-01-20 14:34:23 GMT 42.683842 -72.626717 27,000 99 394 0
2019-01-20 14:34:20 GMT 42.684952 -72.635986 27,000 99 394 0
2019-01-20 14:34:14 GMT 42.686634 -72.650352 27,000 99 393 0
2019-01-20 14:34:11 GMT 42.687332 -72.656204 27,000 99 393 0
2019-01-20 14:34:08 GMT 42.688339 -72.664757 27,000 99 393 0
2019-01-20 14:34:05 GMT 42.689163 -72.671814 27,000 99 393 0
2019-01-20 14:34:01 GMT 42.690399 -72.682304 27,000 99 392 0
2019-01-20 14:33:58 GMT 42.691334 -72.690277 27,000 99 392 0
2019-01-20 14:33:54 GMT 42.692093 -72.696411 27,000 99 392 0
2019-01-20 14:33:51 GMT 42.693291 -72.706627 27,000 99 392 0
2019-01-20 14:33:48 GMT 42.695068 -72.721939 27,000 99 392 0
2019-01-20 14:33:45 GMT 42.695068 -72.721939 27,000 99 392 0
2019-01-20 14:33:42 GMT 42.695801 -72.727997 27,000 99 392 0
2019-01-20 14:33:39 GMT 42.696762 -72.736046 27,000 99 391 0
2019-01-20 14:33:36 GMT 42.697292 -72.740608 27,000 99 391 0
2019-01-20 14:33:32 GMT 42.698776 -72.753021 27,000 99 391 0
2019-01-20 14:33:29 GMT 42.699482 -72.758873 27,000 99 391 0
2019-01-20 14:33:26 GMT 42.700195 -72.764946 27,000 99 391 0
2019-01-20 14:33:23 GMT 42.701065 -72.772224 27,000 99 391 0
2019-01-20 14:33:20 GMT 42.701900 -72.779251 27,000 99 391 0
2019-01-20 14:33:17 GMT 42.702805 -72.786980 27,000 99 391 0
2019-01-20 14:33:14 GMT 42.704041 -72.797218 27,000 99 391 0
2019-01-20 14:33:11 GMT 42.704681 -72.803024 27,000 99 391 0
2019-01-20 14:33:08 GMT 42.705597 -72.810577 27,000 99 391 0
2019-01-20 14:33:05 GMT 42.706326 -72.816872 27,000 99 391 0
2019-01-20 14:32:59 GMT 42.708206 -72.832611 27,000 99 390 0
2019-01-20 14:32:56 GMT 42.709076 -72.840103 27,000 99 390 0
2019-01-20 14:32:53 GMT 42.709763 -72.845657 27,000 99 390 0
2019-01-20 14:32:49 GMT 42.710888 -72.855385 27,000 99 390 0
2019-01-20 14:32:46 GMT 42.711769 -72.862862 27,000 98 390 0
2019-01-20 14:32:43 GMT 42.712875 -72.872566 27,000 98 390 0
2019-01-20 14:32:39 GMT 42.713699 -72.879616 27,000 98 390 64
2019-01-20 14:32:36 GMT 42.714890 -72.889755 27,000 98 390 64
2019-01-20 14:32:33 GMT 42.715210 -72.892410 27,000 98 390 64
2019-01-20 14:32:30 GMT 42.716537 -72.903587 27,000 98 391 64
2019-01-20 14:32:27 GMT 42.717125 -72.908913 27,000 98 391 0
2019-01-20 14:32:24 GMT 42.718231 -72.918633 27,000 98 391 0
2019-01-20 14:32:21 GMT 42.718800 -72.923225 27,000 98 391 0
2019-01-20 14:32:18 GMT 42.719593 -72.930313 27,000 98 392 0
2019-01-20 14:32:15 GMT 42.720661 -72.939766 27,000 98 391 0
2019-01-20 14:32:12 GMT 42.721527 -72.947098 27,000 98 392 0
2019-01-20 14:32:06 GMT 42.722897 -72.959244 27,000 98 392 0
2019-01-20 14:32:03 GMT 42.723736 -72.966270 27,000 98 392 0
2019-01-20 14:31:56 GMT 42.725876 -72.984985 27,000 98 392 -64
2019-01-20 14:31:53 GMT 42.727367 -72.997894 27,000 98 391 -64
2019-01-20 14:31:47 GMT 42.728210 -73.005150 27,000 98 391 0
2019-01-20 14:31:43 GMT 42.729416 -73.015839 27,000 98 391 0
2019-01-20 14:31:40 GMT 42.730545 -73.025558 27,000 98 391 0
2019-01-20 14:31:36 GMT 42.731506 -73.034050 27,000 98 391 0
2019-01-20 14:31:33 GMT 42.732441 -73.042091 27,000 98 391 0
2019-01-20 14:31:30 GMT 42.733093 -73.047905 27,000 98 391 0
2019-01-20 14:31:25 GMT 42.734444 -73.059532 27,000 98 391 0
2019-01-20 14:31:22 GMT 42.735306 -73.067070 27,000 98 390 64
2019-01-20 14:31:16 GMT 42.737045 -73.082115 27,000 98 391 64
2019-01-20 14:31:13 GMT 42.738773 -73.098366 27,000 97 393 64
2019-01-20 14:31:10 GMT 42.738773 -73.098366 27,000 96 394 0
2019-01-20 14:31:07 GMT 42.739422 -73.106026 27,000 95 396 64
2019-01-20 14:31:04 GMT 42.739796 -73.111206 27,000 94 397 0
2019-01-20 14:31:01 GMT 42.740250 -73.117943 27,000 94 398 0
2019-01-20 14:30:58 GMT 42.740635 -73.125961 27,000 92 400 0
2019-01-20 14:30:54 GMT 42.741005 -73.138031 27,000 91 403 -128
2019-01-20 14:30:51 GMT 42.741100 -73.145889 27,000 90 404 -64
2019-01-20 14:30:48 GMT 42.741146 -73.149910 27,025 90 403 0
2019-01-20 14:30:45 GMT 42.741238 -73.158791 27,000 90 403 0
2019-01-20 14:30:42 GMT 42.741348 -73.168137 27,000 90 403 0
2019-01-20 14:30:39 GMT 42.741440 -73.176003 27,000 90 402 64
2019-01-20 14:30:36 GMT 42.741516 -73.183571 27,000 90 402 64
2019-01-20 14:30:33 GMT 42.741577 -73.189354 27,000 90 402 64
2019-01-20 14:30:29 GMT 42.741669 -73.197159 27,000 90 402 64
2019-01-20 14:30:26 GMT 42.741753 -73.205734 27,000 90 402 0
2019-01-20 14:30:23 GMT 42.741852 -73.217133 27,000 90 402 0
2019-01-20 14:30:20 GMT 42.741936 -73.223938 27,000 90 402 0
2019-01-20 14:30:17 GMT 42.741989 -73.227997 27,000 90 402 -64
2019-01-20 14:30:14 GMT 42.742126 -73.243103 27,000 90 401 -64
2019-01-20 14:30:08 GMT 42.742264 -73.255684 27,000 90 401 0
2019-01-20 14:30:05 GMT 42.742355 -73.261703 27,000 90 400 0
2019-01-20 14:30:02 GMT 42.742401 -73.267509 27,000 90 400 0
2019-01-20 14:29:59 GMT 42.742538 -73.276253 27,000 90 399 0
2019-01-20 14:29:55 GMT 42.742630 -73.284050 27,000 90 399 -64
2019-01-20 14:29:52 GMT 42.742676 -73.290543 27,000 90 399 -64
2019-01-20 14:29:49 GMT 42.742775 -73.300781 27,000 90 398 0
2019-01-20 14:29:46 GMT 42.742859 -73.306770 27,000 90 398 0
2019-01-20 14:29:41 GMT 42.742950 -73.318069 27,000 90 398 0
2019-01-20 14:29:38 GMT 42.743099 -73.328056 27,000 90 398 0
2019-01-20 14:29:32 GMT 42.743240 -73.343513 27,000 90 398 0
2019-01-20 14:29:28 GMT 42.743382 -73.354240 27,000 90 398 0
2019-01-20 14:29:25 GMT 42.743382 -73.357697 27,000 90 398 0
2019-01-20 14:29:20 GMT 42.743519 -73.371681 27,000 90 398 0
2019-01-20 14:29:16 GMT 42.743637 -73.383926 27,000 90 398 0
2019-01-20 14:29:13 GMT 42.743729 -73.390419 27,000 90 398 0
2019-01-20 14:29:10 GMT 42.743752 -73.396851 27,000 90 398 0
2019-01-20 14:29:05 GMT 42.743893 -73.409370 27,000 90 398 0
2019-01-20 14:29:00 GMT 42.744003 -73.423813 27,000 90 398 -64
2019-01-20 14:28:57 GMT 42.744049 -73.431061 27,000 90 398 -64
2019-01-20 14:28:54 GMT 42.744080 -73.436066 27,000 90 398 -64
2019-01-20 14:28:51 GMT 42.744141 -73.444542 27,000 90 397 0
2019-01-20 14:28:45 GMT 42.744267 -73.461235 27,000 90 397 0
2019-01-20 14:28:41 GMT 42.744312 -73.469475 27,000 90 397 64
2019-01-20 14:28:38 GMT 42.744358 -73.474709 27,000 90 397 64
2019-01-20 14:28:34 GMT 42.744415 -73.486671 27,000 90 397 0
2019-01-20 14:28:31 GMT 42.744461 -73.493851 27,000 90 397 64
2019-01-20 14:28:28 GMT 42.744545 -73.501854 27,000 90 397 0
2019-01-20 14:28:24 GMT 42.744591 -73.513550 27,000 90 398 0
2019-01-20 14:28:20 GMT 42.744644 -73.522003 27,000 90 397 0
2019-01-20 14:28:17 GMT 42.744690 -73.527252 27,000 90 398 0
2019-01-20 14:28:14 GMT 42.744778 -73.537247 27,000 90 398 0
2019-01-20 14:28:11 GMT 42.744827 -73.545227 27,000 90 398 0
2019-01-20 14:28:08 GMT 42.744869 -73.554169 27,000 90 398 0
2019-01-20 14:28:03 GMT 42.744919 -73.562706 27,000 90 398 0
2019-01-20 14:28:00 GMT 42.745010 -73.572182 27,000 90 398 0
2019-01-20 14:27:57 GMT 42.745056 -73.578682 27,000 90 398 64
2019-01-20 14:27:53 GMT 42.745148 -73.589622 27,000 90 398 64
2019-01-20 14:27:49 GMT 42.745239 -73.599159 27,000 90 398 0
2019-01-20 14:27:46 GMT 42.745289 -73.605141 27,000 90 398 0
2019-01-20 14:27:43 GMT 42.745377 -73.614578 27,000 90 398 0
2019-01-20 14:27:40 GMT 42.745468 -73.621880 27,000 90 399 64
2019-01-20 14:27:36 GMT 42.745560 -73.631119 27,000 90 400 64
2019-01-20 14:27:33 GMT 42.745663 -73.640144 26,975 90 403 128
2019-01-20 14:27:29 GMT 42.745754 -73.649467 26,975 90 402 64
2019-01-20 14:27:26 GMT 42.746033 -73.668633 29,600 88 462 -1152
2019-01-20 14:27:21 GMT 42.746033 -73.668633 26,975 90 407 0
2019-01-20 14:27:18 GMT 42.746128 -73.679619 26,975 90 409 0
2019-01-20 14:27:15 GMT 42.746220 -73.684471 26,975 90 412 -64
2019-01-20 14:27:11 GMT 42.746265 -73.693542 26,975 90 414 -64
2019-01-20 14:27:07 GMT 42.746361 -73.703125 26,975 90 416 64
2019-01-20 14:27:04 GMT 42.746429 -73.710960 26,975 90 419 192
2019-01-20 14:27:01 GMT 42.746521 -73.722260 26,975 90 423 -192
2019-01-20 14:26:57 GMT 42.746567 -73.730499 26,975 90 425 -256
2019-01-20 14:26:54 GMT 42.746613 -73.738739 27,000 90 429 -768
2019-01-20 14:26:50 GMT 42.746685 -73.750008 27,075 90 431 -1088
2019-01-20 14:26:47 GMT 42.746704 -73.758652 27,125 90 432 -1088
2019-01-20 14:26:42 GMT 42.746796 -73.773880 27,225 90 438 -1088
2019-01-20 14:26:39 GMT 42.746826 -73.777985 27,375 90 441 -1088
2019-01-20 14:26:36 GMT 42.746872 -73.787567 27,350 90 438 -1088
2019-01-20 14:26:32 GMT 42.746918 -73.797722 27,375 89 443 -1088
2019-01-20 14:26:29 GMT 42.746887 -73.807404 27,450 88 449 -1024
2019-01-20 14:26:26 GMT 42.746658 -73.822823 27,650 88 455 -1088
2019-01-20 14:26:18 GMT 42.746311 -73.837769 27,725 87 456 -1152
2019-01-20 14:26:15 GMT 42.746109 -73.845726 27,700 87 455 -1088
2019-01-20 14:26:12 GMT 42.745834 -73.855782 27,825 88 459 -1344
2019-01-20 14:26:08 GMT 42.745567 -73.866638 27,925 88 465 -1280
2019-01-20 14:26:04 GMT 42.745239 -73.881119 27,950 87 471 -1152
2019-01-20 14:26:00 GMT 42.745056 -73.887466 27,975 88 464 -1280
2019-01-20 14:25:56 GMT 42.744682 -73.902924 28,075 88 466 -1216
2019-01-20 14:25:53 GMT 42.744499 -73.910202 28,150 87 469 -1280
2019-01-20 14:25:48 GMT 42.744003 -73.927628 28,225 87 472 -1088
2019-01-20 14:25:45 GMT 42.743820 -73.933868 28,325 87 473 -1024
2019-01-20 14:25:42 GMT 42.743591 -73.941544 28,350 87 474 -1088
2019-01-20 14:25:38 GMT 42.742916 -73.965965 28,425 88 478 -1024
2019-01-20 14:25:35 GMT 42.742916 -73.965965 28,475 88 478 -960
2019-01-20 14:25:31 GMT 42.742683 -73.975288 28,600 88 481 -768
2019-01-20 14:25:27 GMT 42.742447 -73.986740 28,600 88 481 -896
2019-01-20 14:25:24 GMT 42.742168 -73.996941 28,625 88 481 -768
2019-01-20 14:25:21 GMT 42.741989 -74.006027 28,650 88 481 -768
2019-01-20 14:25:15 GMT 42.741348 -74.033180 28,750 88 481 -832
2019-01-20 14:25:12 GMT 42.741348 -74.033180 28,775 88 480 -832
2019-01-20 14:25:04 GMT 42.740681 -74.059601 28,900 87 477 -1088
2019-01-20 14:25:01 GMT 42.740540 -74.064392 28,975 87 476 -1088
2019-01-20 14:24:58 GMT 42.739929 -74.085556 29,025 87 473 -896
2019-01-20 14:24:54 GMT 42.739929 -74.085556 29,100 87 472 -1152
2019-01-20 14:24:51 GMT 42.739655 -74.095886 29,150 88 471 -1024
2019-01-20 14:24:47 GMT 42.739334 -74.110085 29,225 88 470 -1024
2019-01-20 14:24:43 GMT 42.739002 -74.122520 29,300 88 470 -1024
2019-01-20 14:24:38 GMT 42.738724 -74.133446 29,375 88 469 -832
2019-01-20 14:24:33 GMT 42.738354 -74.149284 29,550 88 468 -1024
2019-01-20 14:24:30 GMT 42.738167 -74.156944 29,475 88 468 -1024
2019-01-20 14:24:27 GMT 42.737980 -74.164291 29,550 88 468 -960
2019-01-20 14:24:22 GMT 42.737595 -74.180435 29,650 88 468 -960
2019-01-20 14:24:19 GMT 42.737320 -74.191856 29,700 88 468 -1024
2019-01-20 14:24:15 GMT 42.737000 -74.203346 29,750 87 467 -1024
2019-01-20 14:24:11 GMT 42.736725 -74.215965 29,825 88 468 -832
2019-01-20 14:24:08 GMT 42.736584 -74.221848 29,850 88 468 -832
2019-01-20 14:24:03 GMT 42.736130 -74.239738 29,950 87 467 -1024
2019-01-20 14:24:00 GMT 42.735901 -74.247040 30,000 87 468 -960
2019-01-20 14:23:57 GMT 42.735744 -74.253204 30,025 87 468 -960
2019-01-20 14:23:54 GMT 42.735489 -74.262024 30,975 88 469 -640
2019-01-20 14:23:50 GMT 42.735142 -74.273201 30,125 87 469 -1088
2019-01-20 14:23:47 GMT 42.734848 -74.284058 30,175 88 470 -896
2019-01-20 14:23:44 GMT 42.734676 -74.292618 30,225 88 471 -896
2019-01-20 14:23:41 GMT 42.734344 -74.308273 30,275 88 471 -896
2019-01-20 14:23:32 GMT 42.733883 -74.326851 30,400 88 470 -960
2019-01-20 14:23:29 GMT 42.733658 -74.336365 30,450 88 470 -896
2019-01-20 14:23:25 GMT 42.733429 -74.347229 30,525 88 468 -1216
2019-01-20 14:23:20 GMT 42.732998 -74.363388 30,650 88 468 -1024
2019-01-20 14:23:17 GMT 42.732788 -74.372200 30,675 88 468 -960
2019-01-20 14:23:10 GMT 42.732285 -74.393356 30,775 88 468 -832
2019-01-20 14:23:07 GMT 42.732117 -74.401588 30,850 87 467 -1216
2019-01-20 14:22:58 GMT 42.731140 -74.437675 30,975 87 469 -192
2019-01-20 14:22:55 GMT 42.731140 -74.437675 30,975 87 469 -192
2019-01-20 14:22:48 GMT 42.730625 -74.456451 31,000 87 472 0
2019-01-20 14:22:45 GMT 42.730316 -74.466141 31,000 87 473 -64
2019-01-20 14:22:38 GMT 42.729630 -74.488617 31,000 87 474 -64
2019-01-20 14:22:35 GMT 42.729366 -74.495735 31,000 87 483 0
2019-01-20 14:22:28 GMT 42.728668 -74.518478 30,975 87 480 0
2019-01-20 14:22:25 GMT 42.728439 -74.525635 31,000 87 483 0
2019-01-20 14:22:17 GMT 42.727661 -74.551598 31,000 87 483 0
2019-01-20 14:22:14 GMT 42.727367 -74.561333 30,975 87 485 64
2019-01-20 14:22:10 GMT 42.727112 -74.570450 30,975 87 487 0
2019-01-20 14:22:07 GMT 42.726715 -74.582672 31,000 87 488 -320
2019-01-20 14:22:03 GMT 42.726437 -74.591545 31,000 87 488 -64
2019-01-20 14:21:58 GMT 42.725971 -74.606560 31,025 87 487 128
2019-01-20 14:21:54 GMT 42.725456 -74.621826 31,000 87 487 320
2019-01-20 14:21:48 GMT 42.724869 -74.639244 31,000 87 488 -64
2019-01-20 14:21:45 GMT 42.724571 -74.648392 31,000 87 488 -192
2019-01-20 14:21:42 GMT 42.724201 -74.659698 31,000 87 487 0
2019-01-20 14:21:38 GMT 42.723873 -74.670433 31,000 87 487 64
2019-01-20 14:21:35 GMT 42.723690 -74.676559 31,000 87 487 -64
2019-01-20 14:21:32 GMT 42.723312 -74.689056 31,000 87 488 -320
2019-01-20 14:21:28 GMT 42.722855 -74.702225 31,025 87 487 0
2019-01-20 14:21:24 GMT 42.722580 -74.711716 31,025 87 487 128
2019-01-20 14:21:21 GMT 42.722305 -74.720512 31,000 87 487 256
2019-01-20 14:21:17 GMT 42.721939 -74.731873 30,975 87 488 256
2019-01-20 14:21:14 GMT 42.721500 -74.744080 30,975 87 488 256
2019-01-20 14:21:10 GMT 42.721115 -74.756348 30,975 87 489 -320
2019-01-20 14:21:07 GMT 42.720848 -74.763687 31,000 87 491 -256
2019-01-20 14:21:04 GMT 42.720524 -74.774734 31,000 87 489 0
2019-01-20 14:21:01 GMT 42.720291 -74.782402 31,000 87 490 192
2019-01-20 14:20:57 GMT 42.719872 -74.796196 31,000 87 490 128
2019-01-20 14:20:53 GMT 42.719559 -74.807281 31,000 87 490 -64
2019-01-20 14:20:50 GMT 42.719238 -74.817390 31,000 87 490 -128
2019-01-20 14:20:44 GMT 42.718475 -74.842957 31,000 87 491 128
2019-01-20 14:20:36 GMT 42.717957 -74.859215 31,000 87 491 -64
2019-01-20 14:20:32 GMT 42.717590 -74.870934 31,000 87 491 64
2019-01-20 14:20:26 GMT 42.716984 -74.891243 31,000 87 490 -128
2019-01-20 14:20:22 GMT 42.716583 -74.903534 31,025 87 490 64
2019-01-20 14:20:19 GMT 42.716400 -74.911217 31,000 87 490 192
2019-01-20 14:20:15 GMT 42.716034 -74.923203 31,000 87 490 0
2019-01-20 14:20:11 GMT 42.715714 -74.933998 31,000 87 490 0
2019-01-20 14:20:08 GMT 42.715302 -74.947792 31,000 87 491 -64
2019-01-20 14:20:05 GMT 42.715073 -74.955536 31,000 87 491 -64
2019-01-20 14:20:01 GMT 42.714752 -74.965340 31,000 87 491 -64
2019-01-20 14:19:57 GMT 42.714249 -74.980125 31,000 87 491 -64
2019-01-20 14:19:54 GMT 42.713974 -74.987244 31,000 87 491 -64
2019-01-20 14:19:51 GMT 42.713634 -74.997658 31,000 87 491 0
2019-01-20 14:19:47 GMT 42.713261 -75.009094 31,000 87 491 -64
2019-01-20 14:19:44 GMT 42.712936 -75.017967 31,000 87 491 0
2019-01-20 14:19:40 GMT 42.712509 -75.031502 31,000 87 491 64
2019-01-20 14:19:34 GMT 42.711864 -75.050293 31,000 87 491 64
2019-01-20 14:19:30 GMT 42.711411 -75.064461 31,000 87 491 0
2019-01-20 14:19:26 GMT 42.711044 -75.074013 31,000 87 491 0
2019-01-20 14:19:23 GMT 42.710793 -75.081970 31,000 87 491 0
2019-01-20 14:19:18 GMT 42.710094 -75.102348 31,000 87 492 64
2019-01-20 14:19:14 GMT 42.709717 -75.112839 31,000 87 492 64
2019-01-20 14:19:10 GMT 42.709305 -75.124825 31,000 87 492 0
2019-01-20 14:19:06 GMT 42.708893 -75.136246 31,000 87 492 -128
2019-01-20 14:19:03 GMT 42.708572 -75.145233 31,000 87 492 -128
2019-01-20 14:18:59 GMT 42.708069 -75.157845 31,000 87 492 0
2019-01-20 14:18:56 GMT 42.707767 -75.166222 31,025 87 492 64
2019-01-20 14:18:53 GMT 42.707382 -75.176384 31,000 87 491 64
2019-01-20 14:18:47 GMT 42.706745 -75.194519 31,000 87 491 -64
2019-01-20 14:18:42 GMT 42.706280 -75.207802 31,000 87 491 -64
2019-01-20 14:18:38 GMT 42.705814 -75.221024 31,000 87 491 64
2019-01-20 14:18:35 GMT 42.705345 -75.234566 31,000 87 490 64
2019-01-20 14:18:32 GMT 42.705112 -75.240700 31,000 87 489 128
2019-01-20 14:18:28 GMT 42.704727 -75.251724 31,000 87 488 -64
2019-01-20 14:18:24 GMT 42.704231 -75.265480 31,000 87 487 0
2019-01-20 14:18:21 GMT 42.703999 -75.272255 31,000 87 487 -64
2019-01-20 14:18:18 GMT 42.703068 -75.297546 31,000 87 487 0
2019-01-20 14:18:11 GMT 42.702740 -75.305786 31,000 87 487 0
2019-01-20 14:18:08 GMT 42.702026 -75.325638 31,000 87 487 0
2019-01-20 14:18:04 GMT 42.702026 -75.325638 30,975 87 486 0
2019-01-20 14:18:00 GMT 42.701622 -75.336639 31,000 87 487 -64
2019-01-20 14:17:57 GMT 42.700970 -75.354904 31,000 87 487 64
2019-01-20 14:17:54 GMT 42.700317 -75.372345 31,000 87 487 0
2019-01-20 14:17:48 GMT 42.700317 -75.372345 31,000 87 487 0
2019-01-20 14:17:45 GMT 42.699875 -75.384254 31,000 87 487 0
2019-01-20 14:17:42 GMT 42.699554 -75.393425 31,000 87 487 0
2019-01-20 14:17:39 GMT 42.699295 -75.400764 31,000 87 487 0
2019-01-20 14:17:36 GMT 42.698875 -75.411430 31,000 87 488 0
2019-01-20 14:17:33 GMT 42.698597 -75.419098 31,000 86 488 64
2019-01-20 14:17:29 GMT 42.698036 -75.433472 31,025 86 488 -64
2019-01-20 14:17:26 GMT 42.697666 -75.442924 31,000 86 487 -64
2019-01-20 14:17:23 GMT 42.697388 -75.450584 31,000 86 487 -64
2019-01-20 14:17:20 GMT 42.697014 -75.460045 31,000 86 487 -64
2019-01-20 14:17:16 GMT 42.696350 -75.476196 31,000 86 487 -64
2019-01-20 14:17:13 GMT 42.696075 -75.482628 31,000 86 486 64
2019-01-20 14:17:10 GMT 42.695709 -75.491470 31,000 86 486 128
2019-01-20 14:17:07 GMT 42.695389 -75.499420 31,000 86 486 64
2019-01-20 14:17:03 GMT 42.694733 -75.516121 30,975 87 485 128
2019-01-20 14:16:59 GMT 42.694454 -75.523468 31,000 87 485 -192
2019-01-20 14:16:56 GMT 42.694107 -75.533188 31,000 87 485 -192
2019-01-20 14:16:52 GMT 42.693615 -75.546272 31,000 87 484 -64
2019-01-20 14:16:47 GMT 42.693104 -75.560516 31,000 86 484 64
2019-01-20 14:16:43 GMT 42.692638 -75.572334 31,000 86 484 -64
2019-01-20 14:16:39 GMT 42.692081 -75.586319 31,000 87 483 -64
2019-01-20 14:16:36 GMT 42.691753 -75.595070 31,000 87 483 -64
2019-01-20 14:16:32 GMT 42.691242 -75.607529 31,000 87 482 -64
2019-01-20 14:16:26 GMT 42.690449 -75.628029 31,000 87 481 0
2019-01-20 14:16:22 GMT 42.690079 -75.637993 31,000 87 481 -192
2019-01-20 14:16:18 GMT 42.689568 -75.651604 31,025 87 480 -64
2019-01-20 14:16:15 GMT 42.689346 -75.657288 31,000 87 480 128
2019-01-20 14:16:11 GMT 42.688889 -75.669899 31,000 87 480 0
2019-01-20 14:16:08 GMT 42.688019 -75.691559 31,000 86 480 0
2019-01-20 14:16:05 GMT 42.688019 -75.691559 31,000 86 480 -64
2019-01-20 14:16:01 GMT 42.687698 -75.700294 31,000 86 480 64
2019-01-20 14:15:57 GMT 42.686867 -75.721031 31,000 87 480 -64
2019-01-20 14:15:54 GMT 42.686867 -75.721031 31,000 86 480 64
2019-01-20 14:15:50 GMT 42.685776 -75.748108 31,000 86 481 64
2019-01-20 14:15:45 GMT 42.685776 -75.748108 31,000 86 481 128
2019-01-20 14:15:41 GMT 42.685181 -75.763153 31,000 86 481 64
2019-01-20 14:15:37 GMT 42.684860 -75.772209 31,000 87 481 0
2019-01-20 14:15:34 GMT 42.684490 -75.781906 31,000 86 482 -64
2019-01-20 14:15:30 GMT 42.684128 -75.790932 31,000 86 482 0
2019-01-20 14:15:27 GMT 42.683655 -75.803619 31,000 86 482 -64
2019-01-20 14:15:23 GMT 42.683075 -75.817833 31,000 86 482 0
2019-01-20 14:15:17 GMT 42.682434 -75.833878 31,000 86 483 64
2019-01-20 14:15:14 GMT 42.682163 -75.840538 31,000 86 483 0
2019-01-20 14:15:11 GMT 42.681744 -75.851074 31,000 86 483 0
2019-01-20 14:15:07 GMT 42.680813 -75.874069 31,000 86 483 0
2019-01-20 14:15:03 GMT 42.680813 -75.874069 31,000 86 483 64
2019-01-20 14:14:59 GMT 42.680328 -75.886497 31,000 86 483 0
2019-01-20 14:14:56 GMT 42.679916 -75.895866 31,000 86 483 0
2019-01-20 14:14:53 GMT 42.679596 -75.904045 31,000 86 483 64
2019-01-20 14:14:50 GMT 42.679001 -75.917953 31,000 86 483 0
2019-01-20 14:14:45 GMT 42.678589 -75.928261 31,000 86 483 0
2019-01-20 14:14:42 GMT 42.677856 -75.945862 31,000 86 484 0
2019-01-20 14:14:36 GMT 42.677044 -75.964966 31,000 86 484 -64
2019-01-20 14:14:33 GMT 42.677044 -75.964966 31,000 86 484 -64
2019-01-20 14:14:28 GMT 42.676346 -75.981636 31,000 86 484 0
2019-01-20 14:14:25 GMT 42.675972 -75.990135 31,000 86 484 0
2019-01-20 14:14:22 GMT 42.675613 -75.999176 31,000 86 484 0
2019-01-20 14:14:19 GMT 42.675274 -76.007378 31,000 86 484 64
2019-01-20 14:14:16 GMT 42.674763 -76.018875 31,000 86 484 64
2019-01-20 14:14:12 GMT 42.674297 -76.030113 31,000 86 484 64
2019-01-20 14:14:07 GMT 42.673645 -76.044998 31,000 86 484 0
2019-01-20 14:14:04 GMT 42.673271 -76.053818 31,000 86 484 0
2019-01-20 14:14:01 GMT 42.672947 -76.061989 31,000 86 484 0
2019-01-20 14:13:57 GMT 42.672386 -76.075020 31,000 86 484 -64
2019-01-20 14:13:54 GMT 42.672016 -76.083832 31,000 86 484 -64
2019-01-20 14:13:51 GMT 42.671585 -76.093559 31,000 86 484 -64
2019-01-20 14:13:47 GMT 42.671173 -76.104172 31,000 86 484 -64
2019-01-20 14:13:44 GMT 42.670715 -76.114777 31,000 86 484 0
2019-01-20 14:13:39 GMT 42.670029 -76.131134 31,000 86 484 0
2019-01-20 14:13:36 GMT 42.669735 -76.137550 31,000 86 484 0
2019-01-20 14:13:33 GMT 42.668896 -76.157288 31,000 86 485 64
2019-01-20 14:13:30 GMT 42.668896 -76.157288 31,000 86 485 64
2019-01-20 14:13:27 GMT 42.668293 -76.170959 31,000 86 485 128
2019-01-20 14:13:23 GMT 42.667969 -76.178513 31,000 86 485 128
2019-01-20 14:13:19 GMT 42.667500 -76.189484 31,000 86 486 0
2019-01-20 14:13:15 GMT 42.666962 -76.201981 31,000 86 486 -64
2019-01-20 14:13:11 GMT 42.666321 -76.216843 31,000 86 486 -64
2019-01-20 14:13:07 GMT 42.665871 -76.227234 31,000 86 486 -64
2019-01-20 14:13:03 GMT 42.665218 -76.241539 31,025 86 486 0
2019-01-20 14:12:58 GMT 42.664753 -76.252525 31,000 86 486 0
2019-01-20 14:12:55 GMT 42.664242 -76.263771 31,000 86 487 64
2019-01-20 14:12:52 GMT 42.663849 -76.272331 31,000 86 487 64
2019-01-20 14:12:49 GMT 42.663437 -76.281136 31,000 86 487 0
2019-01-20 14:12:46 GMT 42.662846 -76.294556 31,000 86 487 0
2019-01-20 14:12:43 GMT 42.662521 -76.301918 31,000 86 487 64
2019-01-20 14:12:40 GMT 42.662018 -76.312599 31,000 86 487 0
2019-01-20 14:12:35 GMT 42.661404 -76.326050 31,000 86 488 0
2019-01-20 14:12:31 GMT 42.660934 -76.337349 31,000 86 488 0
2019-01-20 14:12:28 GMT 42.660610 -76.343742 31,000 86 488 0
2019-01-20 14:12:24 GMT 42.659958 -76.358101 31,000 86 488 64
2019-01-20 14:12:20 GMT 42.659401 -76.370308 31,000 86 488 0
2019-01-20 14:12:16 GMT 42.658936 -76.381042 31,000 86 488 -64
2019-01-20 14:12:13 GMT 42.658470 -76.391769 31,000 86 488 -64
2019-01-20 14:12:09 GMT 42.657677 -76.408318 31,000 86 489 -64
2019-01-20 14:12:04 GMT 42.656982 -76.422958 31,000 86 489 64
2019-01-20 14:12:00 GMT 42.656662 -76.430634 31,000 86 489 64
2019-01-20 14:11:57 GMT 42.656204 -76.440125 31,000 86 489 64
2019-01-20 14:11:52 GMT 42.655380 -76.457291 31,000 86 489 0
2019-01-20 14:11:48 GMT 42.654884 -76.467720 31,000 86 489 0
2019-01-20 14:11:45 GMT 42.654510 -76.475639 31,000 86 491 0
2019-01-20 14:11:42 GMT 42.653915 -76.488251 31,000 86 490 0
2019-01-20 14:11:38 GMT 42.653320 -76.500175 31,000 86 490 64
2019-01-20 14:11:35 GMT 42.652954 -76.507851 31,000 86 490 64
2019-01-20 14:11:32 GMT 42.652466 -76.518303 31,000 86 490 64
2019-01-20 14:11:28 GMT 42.652046 -76.527824 31,000 86 490 0
2019-01-20 14:11:25 GMT 42.651627 -76.536705 31,000 86 490 0
2019-01-20 14:11:22 GMT 42.650574 -76.559097 31,000 86 490 0
2019-01-20 14:11:19 GMT 42.650574 -76.559097 31,000 86 490 0
2019-01-20 14:11:15 GMT 42.650089 -76.569534 31,000 86 491 0
2019-01-20 14:11:12 GMT 42.649521 -76.581261 31,000 86 490 0
2019-01-20 14:11:08 GMT 42.648514 -76.602112 31,000 86 490 0
2019-01-20 14:11:04 GMT 42.648514 -76.602112 31,000 86 490 0
2019-01-20 14:10:59 GMT 42.647781 -76.617775 31,000 86 490 0
2019-01-20 14:10:56 GMT 42.647232 -76.630074 31,000 86 490 0
2019-01-20 14:10:51 GMT 42.646545 -76.643867 31,000 86 489 0
2019-01-20 14:10:48 GMT 42.646179 -76.651802 31,000 86 489 0
2019-01-20 14:10:45 GMT 42.645630 -76.664093 31,000 86 489 -64
2019-01-20 14:10:40 GMT 42.644989 -76.677582 31,000 86 489 -64
2019-01-20 14:10:36 GMT 42.644459 -76.689232 31,000 86 489 0
2019-01-20 14:10:31 GMT 42.643806 -76.702965 31,000 86 488 -64
2019-01-20 14:10:28 GMT 42.643291 -76.714333 31,000 86 488 -64
2019-01-20 14:10:25 GMT 42.642654 -76.727768 31,000 86 488 -64
2019-01-20 14:10:21 GMT 42.642334 -76.734131 31,000 86 487 -64
2019-01-20 14:10:18 GMT 42.641968 -76.741814 31,000 86 487 0
2019-01-20 14:10:13 GMT 42.641197 -76.758858 31,000 86 487 0
2019-01-20 14:10:10 GMT 42.640778 -76.767097 31,000 86 487 0
2019-01-20 14:10:07 GMT 42.640320 -76.776833 31,000 86 487 0
2019-01-20 14:10:03 GMT 42.639771 -76.788750 31,000 86 487 0
2019-01-20 14:09:58 GMT 42.638992 -76.805229 31,000 86 489 0
2019-01-20 14:09:53 GMT 42.638172 -76.822029 31,000 86 489 64
2019-01-20 14:09:49 GMT 42.637619 -76.833008 31,000 86 490 0
2019-01-20 14:09:46 GMT 42.637287 -76.840363 31,000 86 490 -64
2019-01-20 14:09:42 GMT 42.636124 -76.863670 31,000 86 491 -64
2019-01-20 14:09:39 GMT 42.636124 -76.863670 31,000 86 491 0
2019-01-20 14:09:36 GMT 42.635658 -76.873123 31,000 86 491 0
2019-01-20 14:09:31 GMT 42.634964 -76.887253 31,000 86 491 64
2019-01-20 14:09:28 GMT 42.634449 -76.897720 31,000 86 492 0
2019-01-20 14:09:25 GMT 42.633240 -76.921989 31,000 86 492 -64
2019-01-20 14:09:21 GMT 42.633240 -76.921989 31,000 86 492 -64
2019-01-20 14:09:16 GMT 42.632072 -76.944733 31,000 86 492 0
2019-01-20 14:09:12 GMT 42.631702 -76.953033 31,000 86 492 0
2019-01-20 14:09:09 GMT 42.631096 -76.965042 31,000 86 492 64
2019-01-20 14:09:06 GMT 42.631096 -76.965042 31,000 86 492 64
2019-01-20 14:09:03 GMT 42.630615 -76.974274 31,000 86 493 0
2019-01-20 14:09:00 GMT 42.630074 -76.985352 31,000 86 493 0
2019-01-20 14:08:56 GMT 42.629654 -76.994232 31,000 86 493 0
2019-01-20 14:08:51 GMT 42.628906 -77.008728 31,000 86 493 64
2019-01-20 14:08:47 GMT 42.628098 -77.025642 31,000 86 494 64
2019-01-20 14:08:42 GMT 42.627327 -77.040474 30,975 85 494 -64
2019-01-20 14:08:39 GMT 42.626766 -77.051590 30,975 86 494 0
2019-01-20 14:08:35 GMT 42.626392 -77.058998 31,000 86 494 -64
2019-01-20 14:08:32 GMT 42.625763 -77.071648 31,000 85 494 -64
2019-01-20 14:08:26 GMT 42.624893 -77.088005 31,000 85 494 -128
2019-01-20 14:08:23 GMT 42.624344 -77.098183 31,025 85 494 128
2019-01-20 14:08:18 GMT 42.623520 -77.114288 31,000 85 494 192
2019-01-20 14:08:15 GMT 42.623016 -77.123833 31,000 85 495 64
2019-01-20 14:08:11 GMT 42.622391 -77.135582 31,000 85 495 64
2019-01-20 14:08:05 GMT 42.621460 -77.152924 31,000 85 495 0
2019-01-20 14:08:02 GMT 42.621140 -77.159416 31,000 85 495 -64
2019-01-20 14:07:59 GMT 42.620575 -77.169952 31,000 85 495 -64
2019-01-20 14:07:55 GMT 42.618805 -77.202713 31,000 85 495 0
2019-01-20 14:07:50 GMT 42.618805 -77.202713 31,000 85 495 0
2019-01-20 14:07:44 GMT 42.618061 -77.216644 31,000 85 495 0
2019-01-20 14:07:41 GMT 42.617386 -77.229645 31,000 85 495 0
2019-01-20 14:07:34 GMT 42.616287 -77.249428 31,000 85 495 -64
2019-01-20 14:07:29 GMT 42.615463 -77.264282 31,000 85 495 0
2019-01-20 14:07:24 GMT 42.614429 -77.283195 31,000 85 495 -64
2019-01-20 14:07:20 GMT 42.613964 -77.292137 31,000 85 495 -64
2019-01-20 14:07:15 GMT 42.612534 -77.317848 31,000 85 495 64
2019-01-20 14:07:09 GMT 42.611938 -77.328705 31,000 85 496 64
2019-01-20 14:07:02 GMT 42.610931 -77.347870 31,000 85 496 -128
2019-01-20 14:06:57 GMT 42.610195 -77.361504 31,000 85 496 -128
2019-01-20 14:06:53 GMT 42.609497 -77.374794 31,000 85 496 0
2019-01-20 14:06:50 GMT 42.608845 -77.387184 31,000 85 496 0
2019-01-20 14:06:47 GMT 42.608517 -77.393379 31,000 85 496 64
2019-01-20 14:06:43 GMT 42.607819 -77.406090 31,000 85 496 64
2019-01-20 14:06:40 GMT 42.607269 -77.415970 31,000 85 496 128
2019-01-20 14:06:36 GMT 42.606628 -77.428398 31,000 85 496 64
2019-01-20 14:06:33 GMT 42.606052 -77.438919 31,000 85 496 0
2019-01-20 14:06:30 GMT 42.605492 -77.449463 31,000 85 496 -64
2019-01-20 14:06:26 GMT 42.604885 -77.459999 31,000 85 496 -128
2019-01-20 14:06:19 GMT 42.603539 -77.484787 31,000 85 497 0
2019-01-20 14:06:15 GMT 42.603119 -77.492577 31,000 85 497 64
2019-01-20 14:06:11 GMT 42.602325 -77.506821 31,000 85 497 64
2019-01-20 14:06:08 GMT 42.601685 -77.517723 31,000 85 497 0
2019-01-20 14:06:04 GMT 42.601116 -77.527962 31,000 85 497 0
2019-01-20 14:05:58 GMT 42.600174 -77.544685 31,000 85 497 0
2019-01-20 14:05:55 GMT 42.599442 -77.557732 31,000 85 497 64
2019-01-20 14:05:50 GMT 42.598648 -77.571396 31,000 85 497 -64
2019-01-20 14:05:44 GMT 42.597656 -77.589134 31,000 85 497 128
2019-01-20 14:05:40 GMT 42.596832 -77.603401 31,000 85 498 64
2019-01-20 14:05:36 GMT 42.596100 -77.616783 31,000 85 498 64
2019-01-20 14:05:33 GMT 42.595577 -77.625816 31,000 85 498 0
2019-01-20 14:05:29 GMT 42.595001 -77.635765 31,000 85 498 -64
2019-01-20 14:05:26 GMT 42.594273 -77.648491 31,000 85 498 0
2019-01-20 14:05:23 GMT 42.593948 -77.654053 31,000 85 498 128
2019-01-20 14:05:19 GMT 42.593204 -77.667786 31,000 85 498 64
2019-01-20 14:05:13 GMT 42.591991 -77.688286 31,000 85 498 -128
2019-01-20 14:05:09 GMT 42.591293 -77.700424 31,000 85 498 -128
2019-01-20 14:05:05 GMT 42.590652 -77.710983 31,000 85 499 0
2019-01-20 14:05:02 GMT 42.590149 -77.719719 31,000 85 499 0
2019-01-20 14:04:58 GMT 42.589386 -77.732491 31,000 85 499 0
2019-01-20 14:04:55 GMT 42.588547 -77.746536 31,000 85 499 0
2019-01-20 14:04:52 GMT 42.588177 -77.753052 31,000 85 499 0
2019-01-20 14:04:47 GMT 42.587429 -77.765831 31,000 85 499 64
2019-01-20 14:04:44 GMT 42.586899 -77.775215 31,000 85 499 0
2019-01-20 14:04:37 GMT 42.584885 -77.811043 31,000 85 499 0
2019-01-20 14:04:31 GMT 42.584473 -77.818222 31,000 85 499 0
2019-01-20 14:04:27 GMT 42.583832 -77.829773 31,000 85 499 0
2019-01-20 14:04:24 GMT 42.583328 -77.838821 31,000 85 499 0
2019-01-20 14:04:19 GMT 42.582497 -77.853462 31,000 85 499 0
2019-01-20 14:04:16 GMT 42.581909 -77.863419 31,000 85 499 -64
2019-01-20 14:04:13 GMT 42.581333 -77.873390 31,000 85 499 -128
2019-01-20 14:04:10 GMT 42.580635 -77.885590 31,000 85 499 -64
2019-01-20 14:04:04 GMT 42.579609 -77.903351 31,000 85 499 0
2019-01-20 14:04:00 GMT 42.579071 -77.912041 31,000 85 499 0
2019-01-20 14:03:55 GMT 42.577560 -77.938164 31,000 85 498 0
2019-01-20 14:03:46 GMT 42.576305 -77.959366 31,000 85 498 64
2019-01-20 14:03:43 GMT 42.575775 -77.968658 31,000 85 498 64
2019-01-20 14:03:37 GMT 42.574860 -77.984825 31,000 85 498 0
2019-01-20 14:03:34 GMT 42.574265 -77.994499 31,000 85 498 0
2019-01-20 14:03:31 GMT 42.573807 -78.002869 31,000 85 498 0
2019-01-20 14:03:27 GMT 42.573048 -78.015900 31,000 85 498 64
2019-01-20 14:03:24 GMT 42.572208 -78.029884 31,000 85 498 0
2019-01-20 14:03:21 GMT 42.571793 -78.036140 31,000 85 498 -64
2019-01-20 14:03:14 GMT 42.570465 -78.058487 31,000 85 497 0
2019-01-20 14:03:11 GMT 42.569916 -78.066849 31,000 85 497 0
2019-01-20 14:03:03 GMT 42.568485 -78.090759 31,000 85 497 -64
2019-01-20 14:03:00 GMT 42.568020 -78.097908 31,000 85 497 -64
2019-01-20 14:02:54 GMT 42.566483 -78.122406 31,000 85 497 128
2019-01-20 14:02:51 GMT 42.565842 -78.132645 31,000 85 497 128
2019-01-20 14:02:45 GMT 42.564945 -78.146584 31,000 85 497 -128
2019-01-20 14:02:40 GMT 42.563873 -78.163353 31,000 85 496 0
2019-01-20 14:02:35 GMT 42.562912 -78.178833 31,000 85 496 64
2019-01-20 14:02:30 GMT 42.561905 -78.195251 31,000 85 496 0
2019-01-20 14:02:26 GMT 42.560486 -78.217789 31,000 85 495 0
2019-01-20 14:02:23 GMT 42.560486 -78.217789 31,000 85 495 -64
2019-01-20 14:02:19 GMT 42.559891 -78.227402 31,000 85 495 0
2019-01-20 14:02:14 GMT 42.558987 -78.240990 31,000 85 494 64
2019-01-20 14:02:09 GMT 42.557732 -78.261368 31,000 85 494 64
2019-01-20 14:02:04 GMT 42.556938 -78.274010 31,000 85 493 -128
2019-01-20 14:02:01 GMT 42.556046 -78.287888 31,000 85 493 -128
2019-01-20 14:01:58 GMT 42.555820 -78.291832 31,000 85 493 -64
2019-01-20 14:01:53 GMT 42.554123 -78.318909 31,000 85 493 0
2019-01-20 14:01:50 GMT 42.554123 -78.318909 31,000 85 493 64
2019-01-20 14:01:44 GMT 42.552979 -78.336449 31,000 85 493 0
2019-01-20 14:01:40 GMT 42.552330 -78.346893 31,000 85 493 0
2019-01-20 14:01:36 GMT 42.551605 -78.357986 31,000 85 492 0
2019-01-20 14:01:31 GMT 42.550140 -78.381317 31,000 85 492 0
2019-01-20 14:01:27 GMT 42.549591 -78.390572 31,000 85 492 64
2019-01-20 14:01:23 GMT 42.548977 -78.400421 31,000 85 492 0
2019-01-20 14:01:19 GMT 42.548325 -78.410828 31,000 85 492 0
2019-01-20 14:01:16 GMT 42.547668 -78.421593 31,000 85 492 0
2019-01-20 14:01:13 GMT 42.546982 -78.432961 31,000 85 492 -64
2019-01-20 14:01:09 GMT 42.546185 -78.446472 31,000 85 492 0
2019-01-20 14:01:05 GMT 42.545582 -78.455986 31,000 85 492 64
2019-01-20 14:01:00 GMT 42.544830 -78.467667 31,000 85 492 64
2019-01-20 14:00:57 GMT 42.543999 -78.480576 31,000 84 492 0
2019-01-20 14:00:54 GMT 42.543549 -78.487328 31,000 84 492 -64
2019-01-20 14:00:50 GMT 42.542599 -78.502045 31,000 84 492 -64
2019-01-20 14:00:45 GMT 42.541531 -78.518646 31,000 84 492 0
2019-01-20 14:00:41 GMT 42.540848 -78.529083 31,000 84 492 0
2019-01-20 14:00:37 GMT 42.539520 -78.549934 31,000 84 492 0
2019-01-20 14:00:34 GMT 42.539520 -78.549934 31,000 84 492 0
2019-01-20 14:00:30 GMT 42.538742 -78.561920 31,000 84 492 0
2019-01-20 14:00:27 GMT 42.538193 -78.570221 31,000 84 492 0
2019-01-20 14:00:24 GMT 42.537369 -78.582832 31,000 84 492 0
2019-01-20 14:00:18 GMT 42.536362 -78.599129 31,000 84 492 0
2019-01-20 14:00:15 GMT 42.535721 -78.608925 31,000 84 492 0
2019-01-20 14:00:10 GMT 42.534733 -78.624298 31,000 84 492 0
2019-01-20 14:00:07 GMT 42.534119 -78.633522 31,000 84 492 0
2019-01-20 14:00:04 GMT 42.533428 -78.643906 31,000 84 492 64
2019-01-20 14:00:00 GMT 42.532639 -78.656235 31,000 84 492 0
2019-01-20 13:59:56 GMT 42.531784 -78.669098 31,000 84 492 0
2019-01-20 13:59:53 GMT 42.531464 -78.674660 31,000 84 492 0
2019-01-20 13:59:50 GMT 42.530544 -78.688492 31,000 84 492 0
2019-01-20 13:59:47 GMT 42.530090 -78.695503 31,000 84 492 0
2019-01-20 13:59:43 GMT 42.529312 -78.707176 31,000 84 492 0
2019-01-20 13:59:39 GMT 42.528442 -78.721039 31,000 84 492 64
2019-01-20 13:59:35 GMT 42.527664 -78.733025 31,000 84 492 64
2019-01-20 13:59:31 GMT 42.526958 -78.744057 31,000 85 493 0
2019-01-20 13:59:28 GMT 42.526402 -78.752365 31,000 84 493 -64
2019-01-20 13:59:25 GMT 42.525608 -78.764374 31,000 84 493 0
2019-01-20 13:59:21 GMT 42.524864 -78.775742 31,000 84 494 0
2019-01-20 13:59:17 GMT 42.524277 -78.784332 31,000 84 494 0
2019-01-20 13:59:14 GMT 42.523514 -78.795670 31,000 84 494 64
2019-01-20 13:59:11 GMT 42.523041 -78.802750 31,000 84 494 0
2019-01-20 13:59:07 GMT 42.521988 -78.818169 31,000 84 494 -64
2019-01-20 13:59:03 GMT 42.521164 -78.830147 31,000 84 494 0
2019-01-20 13:59:00 GMT 42.519470 -78.854744 31,000 84 494 0
2019-01-20 13:58:55 GMT 42.519470 -78.854744 31,000 84 494 0
2019-01-20 13:58:52 GMT 42.518738 -78.865547 31,000 84 494 0
2019-01-20 13:58:47 GMT 42.517685 -78.880898 31,000 84 495 0
2019-01-20 13:58:44 GMT 42.517181 -78.887711 31,000 84 495 0
2019-01-20 13:58:40 GMT 42.516495 -78.898193 31,000 84 495 0
2019-01-20 13:58:34 GMT 42.514900 -78.921249 31,000 84 495 0
2019-01-20 13:58:30 GMT 42.514069 -78.933273 31,000 84 495 64
2019-01-20 13:58:26 GMT 42.513226 -78.945648 31,000 84 495 0
2019-01-20 13:58:23 GMT 42.512623 -78.954590 31,000 84 496 0
2019-01-20 13:58:20 GMT 42.512062 -78.962891 31,000 84 496 0
2019-01-20 13:58:13 GMT 42.510620 -78.983910 31,000 84 497 0
2019-01-20 13:58:09 GMT 42.509968 -78.994125 31,000 84 498 0
2019-01-20 13:58:03 GMT 42.508385 -79.017059 31,000 84 499 0
2019-01-20 13:57:59 GMT 42.506699 -79.042511 31,000 84 502 1408
2019-01-20 13:57:55 GMT 42.506699 -79.042511 31,000 84 500 -64
2019-01-20 13:57:52 GMT 42.506290 -79.048737 31,000 84 500 0
2019-01-20 13:57:49 GMT 42.505451 -79.061516 31,000 84 500 -64
2019-01-20 13:57:44 GMT 42.504616 -79.073647 31,000 84 500 0
2019-01-20 13:57:40 GMT 42.503777 -79.085785 31,000 84 501 0
2019-01-20 13:57:37 GMT 42.503265 -79.093262 30,950 84 502 704
2019-01-20 13:57:33 GMT 42.502075 -79.110428 31,000 84 501 0
2019-01-20 13:57:30 GMT 42.501480 -79.119476 31,000 84 501 0
2019-01-20 13:57:26 GMT 42.500931 -79.127281 31,000 84 502 64
2019-01-20 13:57:23 GMT 42.500153 -79.138206 30,975 84 502 704
2019-01-20 13:57:20 GMT 42.499283 -79.151001 30,950 84 502 1152
2019-01-20 13:57:17 GMT 42.498795 -79.157898 30,825 84 502 1472
2019-01-20 13:57:13 GMT 42.497818 -79.171951 30,750 84 502 1472
2019-01-20 13:57:10 GMT 42.497223 -79.180023 30,725 84 502 1472
2019-01-20 13:57:07 GMT 42.496513 -79.190025 30,625 84 502 1280
2019-01-20 13:57:04 GMT 42.496002 -79.197563 30,550 84 500 832
2019-01-20 13:57:01 GMT 42.494431 -79.219666 30,525 84 500 832
2019-01-20 13:56:58 GMT 42.494431 -79.219666 30,500 84 500 896
2019-01-20 13:56:54 GMT 42.493675 -79.229630 30,450 84 499 1088
2019-01-20 13:56:50 GMT 42.492512 -79.245789 30,350 84 499 1024
2019-01-20 13:56:47 GMT 42.491859 -79.255432 30,300 85 497 960
2019-01-20 13:56:44 GMT 42.491364 -79.264107 30,250 86 495 1024
2019-01-20 13:56:40 GMT 42.490906 -79.274910 30,175 88 494 1024
2019-01-20 13:56:36 GMT 42.490585 -79.287582 30,125 89 493 960
2019-01-20 13:56:33 GMT 42.490494 -79.295258 30,075 89 491 960
2019-01-20 13:56:30 GMT 42.490494 -79.312737 29,975 90 490 1280
2019-01-20 13:56:27 GMT 42.490494 -79.312737 29,850 90 489 1664
2019-01-20 13:56:24 GMT 42.490494 -79.320412 29,850 90 489 1664
2019-01-20 13:56:21 GMT 42.490494 -79.332336 29,850 90 489 1472
2019-01-20 13:56:18 GMT 42.490509 -79.352203 29,750 90 489 1408
2019-01-20 13:56:15 GMT 42.490509 -79.352203 29,700 90 489 1408
2019-01-20 13:56:11 GMT 42.490509 -79.364983 29,600 90 488 1600
2019-01-20 13:56:08 GMT 42.490509 -79.371750 29,525 90 489 1664
2019-01-20 13:56:04 GMT 42.490494 -79.403496 29,250 90 489 1856
2019-01-20 13:55:58 GMT 42.490494 -79.403496 29,225 90 489 1664
2019-01-20 13:55:55 GMT 42.490494 -79.423035 29,100 89 490 2048
2019-01-20 13:55:52 GMT 42.490494 -79.423035 29,000 89 490 2496
2019-01-20 13:55:47 GMT 42.490494 -79.435898 28,825 89 492 2688
2019-01-20 13:55:43 GMT 42.490414 -79.459641 28,575 89 494 2624
2019-01-20 13:55:40 GMT 42.490414 -79.459641 28,475 89 495 2688
2019-01-20 13:55:37 GMT 42.490402 -79.467979 28,375 89 496 2688
2019-01-20 13:55:32 GMT 42.490322 -79.481354 28,100 89 498 2176
2019-01-20 13:55:28 GMT 42.490311 -79.495636 28,000 89 499 2176
2019-01-20 13:55:25 GMT 42.490276 -79.501862 27,950 89 499 2176
2019-01-20 13:55:22 GMT 42.490231 -79.514702 27,800 89 500 2176
2019-01-20 13:55:19 GMT 42.490231 -79.524345 27,725 89 500 1984
2019-01-20 13:55:14 GMT 42.490173 -79.539391 27,525 89 501 1920
2019-01-20 13:55:11 GMT 42.490128 -79.547195 27,475 89 501 1920
2019-01-20 13:55:08 GMT 42.490082 -79.556931 26,925 89 501 1856
2019-01-20 13:55:05 GMT 42.490089 -79.566307 27,250 89 502 1792
2019-01-20 13:55:02 GMT 42.490036 -79.577599 27,150 89 502 1920
2019-01-20 13:54:58 GMT 42.489998 -79.590134 27,025 89 502 1920
2019-01-20 13:54:55 GMT 42.489948 -79.599846 26,925 89 502 1856
2019-01-20 13:54:51 GMT 42.489902 -79.622452 26,750 89 502 1856
2019-01-20 13:54:47 GMT 42.489902 -79.622452 26,700 89 503 1792
2019-01-20 13:54:44 GMT 42.489857 -79.632225 26,600 89 503 1664
2019-01-20 13:54:41 GMT 42.489807 -79.643517 26,500 89 502 1728
2019-01-20 13:54:37 GMT 42.489765 -79.654839 26,400 89 502 1600
2019-01-20 13:54:34 GMT 42.489716 -79.665184 26,325 89 502 1536
2019-01-20 13:54:31 GMT 42.489670 -79.674255 26,250 89 503 1920
2019-01-20 13:54:27 GMT 42.489624 -79.687737 26,125 89 502 1664
2019-01-20 13:54:23 GMT 42.489578 -79.706573 25,975 89 502 1728
2019-01-20 13:54:17 GMT 42.489532 -79.714371 25,850 89 502 1792
2019-01-20 13:54:14 GMT 42.489483 -79.728485 25,725 89 502 1856
2019-01-20 13:54:11 GMT 42.489437 -79.737617 25,675 89 502 1856
2019-01-20 13:54:08 GMT 42.489349 -79.761490 25,500 89 503 1920
2019-01-20 13:54:04 GMT 42.489349 -79.761490 25,375 89 503 1792
2019-01-20 13:54:01 GMT 42.489346 -79.765533 25,250 89 502 1280
2019-01-20 13:53:57 GMT 42.489300 -79.779716 25,275 89 502 1344
2019-01-20 13:53:53 GMT 42.489212 -79.805748 25,175 89 501 832
2019-01-20 13:53:50 GMT 42.489212 -79.805748 25,150 89 498 512
2019-01-20 13:53:47 GMT 42.489159 -79.813248 25,125 89 500 768
2019-01-20 13:53:43 GMT 42.489120 -79.823853 25,075 89 498 768
2019-01-20 13:53:40 GMT 42.489075 -79.834778 25,000 89 498 192
2019-01-20 13:53:35 GMT 42.488972 -79.849083 25,000 89 498 0
2019-01-20 13:53:32 GMT 42.488937 -79.857185 25,000 89 498 0
2019-01-20 13:53:29 GMT 42.488880 -79.867729 25,000 89 498 0
2019-01-20 13:53:26 GMT 42.488846 -79.875847 25,000 89 498 0
2019-01-20 13:53:22 GMT 42.488739 -79.889511 25,000 89 498 0
2019-01-20 13:53:18 GMT 42.488693 -79.902603 25,000 89 498 0
2019-01-20 13:53:14 GMT 42.488617 -79.913803 25,000 89 498 0
2019-01-20 13:53:10 GMT 42.488506 -79.929367 25,000 89 498 0
2019-01-20 13:53:06 GMT 42.488480 -79.936211 25,000 89 498 0
2019-01-20 13:53:03 GMT 42.488365 -79.949875 25,000 89 498 0
2019-01-20 13:52:58 GMT 42.488297 -79.961739 25,000 89 498 0
2019-01-20 13:52:55 GMT 42.488205 -79.974480 25,000 89 498 0
2019-01-20 13:52:52 GMT 42.488159 -79.982277 25,000 89 498 0
2019-01-20 13:52:48 GMT 42.488087 -79.994072 25,000 89 498 0
2019-01-20 13:52:45 GMT 42.487930 -80.015549 25,000 89 498 0
2019-01-20 13:52:42 GMT 42.487930 -80.015549 25,000 89 498 0
2019-01-20 13:52:38 GMT 42.487854 -80.026779 25,000 89 498 0
2019-01-20 13:52:34 GMT 42.487747 -80.038269 25,000 89 498 0
2019-01-20 13:52:31 GMT 42.487717 -80.047661 25,000 89 498 -64
2019-01-20 13:52:26 GMT 42.487564 -80.066299 25,000 89 498 0
2019-01-20 13:52:23 GMT 42.487518 -80.072853 25,000 89 498 64
2019-01-20 13:52:17 GMT 42.487389 -80.093079 25,000 89 499 0
2019-01-20 13:52:12 GMT 42.487289 -80.105560 25,000 89 499 0
2019-01-20 13:52:09 GMT 42.487244 -80.113991 25,000 89 499 0
2019-01-20 13:52:06 GMT 42.487061 -80.140457 25,000 89 499 0
2019-01-20 13:52:02 GMT 42.487061 -80.140457 25,000 89 499 0
2019-01-20 13:51:59 GMT 42.487015 -80.146072 25,000 89 499 0
2019-01-20 13:51:56 GMT 42.486923 -80.158562 25,000 89 499 0
2019-01-20 13:51:53 GMT 42.486832 -80.167297 25,000 89 499 0
2019-01-20 13:51:50 GMT 42.486736 -80.178223 25,000 89 500 0
2019-01-20 13:51:45 GMT 42.486649 -80.191330 25,000 89 500 -64
2019-01-20 13:51:42 GMT 42.486557 -80.201004 25,000 89 500 0
2019-01-20 13:51:39 GMT 42.486465 -80.210686 25,000 89 500 0
2019-01-20 13:51:35 GMT 42.486366 -80.223831 25,000 89 500 0
2019-01-20 13:51:32 GMT 42.486271 -80.232903 25,000 89 501 0
2019-01-20 13:51:29 GMT 42.486191 -80.242271 25,000 89 501 0
2019-01-20 13:51:21 GMT 42.485962 -80.267296 25,000 89 501 0
2019-01-20 13:51:18 GMT 42.485901 -80.274864 25,000 89 501 0
2019-01-20 13:51:14 GMT 42.485760 -80.289871 25,000 89 503 0
2019-01-20 13:51:11 GMT 42.485668 -80.299011 25,000 89 502 -64
2019-01-20 13:51:08 GMT 42.485596 -80.307121 25,000 89 502 -64
2019-01-20 13:51:03 GMT 42.485458 -80.322479 25,000 89 502 0
2019-01-20 13:51:00 GMT 42.485275 -80.341331 25,000 89 503 0
2019-01-20 13:50:53 GMT 42.485153 -80.355156 25,000 89 503 0
2019-01-20 13:50:50 GMT 42.484955 -80.373726 25,000 89 503 0
2019-01-20 13:50:46 GMT 42.484783 -80.393539 25,000 89 504 0
2019-01-20 13:50:40 GMT 42.484783 -80.393539 25,000 89 503 0
2019-01-20 13:50:37 GMT 42.484642 -80.407661 25,000 89 503 0
2019-01-20 13:50:32 GMT 42.484543 -80.420860 25,000 89 504 0
2019-01-20 13:50:28 GMT 42.484406 -80.431282 25,000 89 504 0
2019-01-20 13:50:25 GMT 42.484268 -80.445450 25,000 89 504 0
2019-01-20 13:50:21 GMT 42.484177 -80.454865 25,000 89 504 -64
2019-01-20 13:50:17 GMT 42.484039 -80.467506 25,000 89 504 0
2019-01-20 13:50:14 GMT 42.483944 -80.477280 25,000 89 504 0
2019-01-20 13:50:11 GMT 42.483807 -80.488907 25,000 89 504 0
2019-01-20 13:50:07 GMT 42.483711 -80.498680 25,000 89 504 0
2019-01-20 13:50:04 GMT 42.483479 -80.520714 25,000 89 504 0
2019-01-20 13:50:00 GMT 42.483479 -80.520714 25,000 89 504 0
2019-01-20 13:49:56 GMT 42.483337 -80.532402 25,000 89 504 0
2019-01-20 13:49:53 GMT 42.483246 -80.542175 25,000 89 504 0
2019-01-20 13:49:49 GMT 42.483059 -80.555717 25,000 89 504 0
2019-01-20 13:49:44 GMT 42.482895 -80.573669 25,000 89 504 0
2019-01-20 13:49:38 GMT 42.482689 -80.588806 25,000 89 504 0
2019-01-20 13:49:35 GMT 42.482456 -80.607651 25,000 89 504 0
2019-01-20 13:49:29 GMT 42.482315 -80.619911 25,000 89 504 0
2019-01-20 13:49:26 GMT 42.482208 -80.628723 25,000 89 504 0
2019-01-20 13:49:23 GMT 42.482082 -80.638817 25,000 89 504 0
2019-01-20 13:49:18 GMT 42.481750 -80.667175 25,000 89 503 0
2019-01-20 13:49:14 GMT 42.481750 -80.667175 25,000 89 503 0
2019-01-20 13:49:11 GMT 42.481659 -80.673416 25,000 89 503 0
2019-01-20 13:49:08 GMT 42.481476 -80.687614 25,000 89 503 0
2019-01-20 13:49:02 GMT 42.481293 -80.705193 25,000 89 503 0
2019-01-20 13:48:57 GMT 42.481110 -80.719048 25,000 89 503 0
2019-01-20 13:48:54 GMT 42.480972 -80.728165 25,000 89 503 0
2019-01-20 13:48:51 GMT 42.480881 -80.737587 25,000 89 503 0
2019-01-20 13:48:47 GMT 42.480686 -80.752960 25,000 89 503 0
2019-01-20 13:48:43 GMT 42.480560 -80.764931 25,000 88 503 0
2019-01-20 13:48:40 GMT 42.480423 -80.772797 25,000 88 503 0
2019-01-20 13:48:37 GMT 42.480286 -80.784409 25,000 88 503 0
2019-01-20 13:48:33 GMT 42.480103 -80.797325 25,000 88 503 0
2019-01-20 13:48:30 GMT 42.480034 -80.805466 25,000 88 503 0
2019-01-20 13:48:26 GMT 42.479847 -80.818367 25,000 88 503 0
2019-01-20 13:48:21 GMT 42.479523 -80.841934 25,000 88 503 0
2019-01-20 13:48:18 GMT 42.479427 -80.850754 25,000 88 503 0
2019-01-20 13:48:15 GMT 42.479427 -80.850754 25,000 88 503 0
2019-01-20 13:48:11 GMT 42.479095 -80.872734 25,000 88 503 0
2019-01-20 13:48:08 GMT 42.479095 -80.872734 25,000 88 503 0
2019-01-20 13:48:05 GMT 42.478916 -80.884735 25,000 88 503 0
2019-01-20 13:48:02 GMT 42.478825 -80.891953 25,000 88 503 0
2019-01-20 13:47:59 GMT 42.478546 -80.911110 25,000 88 503 0
2019-01-20 13:47:53 GMT 42.478455 -80.919296 25,000 88 503 0
2019-01-20 13:47:50 GMT 42.478264 -80.931236 25,000 88 503 0
2019-01-20 13:47:44 GMT 42.477997 -80.951012 25,000 88 503 0
2019-01-20 13:47:39 GMT 42.477814 -80.963249 25,000 88 503 0
2019-01-20 13:47:36 GMT 42.477661 -80.972687 25,000 88 503 0
2019-01-20 13:47:33 GMT 42.477520 -80.982460 25,000 88 503 0
2019-01-20 13:47:30 GMT 42.477356 -80.991837 25,000 88 503 0
2019-01-20 13:47:26 GMT 42.477173 -81.004761 25,000 88 503 64
2019-01-20 13:47:23 GMT 42.477036 -81.016365 25,000 88 503 64
2019-01-20 13:47:20 GMT 42.476898 -81.024857 25,000 88 503 64
2019-01-20 13:47:15 GMT 42.476669 -81.039589 25,000 88 503 0
2019-01-20 13:47:12 GMT 42.476532 -81.049011 25,000 88 503 -64
2019-01-20 13:47:09 GMT 42.476349 -81.059685 25,000 88 503 -64
2019-01-20 13:47:05 GMT 42.476166 -81.072922 25,000 88 503 -64
2019-01-20 13:47:00 GMT 42.475750 -81.097115 25,000 88 502 64
2019-01-20 13:46:57 GMT 42.475750 -81.097115 25,000 88 502 64
2019-01-20 13:46:54 GMT 42.475613 -81.106186 25,000 88 502 -64
2019-01-20 13:46:50 GMT 42.475342 -81.120613 25,000 88 502 64
2019-01-20 13:46:47 GMT 42.475296 -81.125359 25,000 88 502 -64
2019-01-20 13:46:41 GMT 42.474915 -81.147636 25,000 88 502 -64
2019-01-20 13:46:37 GMT 42.474728 -81.158623 25,000 88 502 0
2019-01-20 13:46:33 GMT 42.474426 -81.174606 25,000 88 502 64
2019-01-20 13:46:30 GMT 42.474354 -81.181236 25,000 88 502 0
2019-01-20 13:46:27 GMT 42.474197 -81.189964 25,000 88 502 0
2019-01-20 13:46:20 GMT 42.473785 -81.214432 25,000 88 502 0
2019-01-20 13:46:17 GMT 42.473648 -81.221046 25,000 88 502 64
2019-01-20 13:46:11 GMT 42.473377 -81.238914 25,000 88 502 0
2019-01-20 13:46:07 GMT 42.473099 -81.253944 25,000 88 502 0
2019-01-20 13:46:04 GMT 42.472958 -81.261459 25,000 88 502 0
2019-01-20 13:45:59 GMT 42.472595 -81.280602 25,000 88 501 0
2019-01-20 13:45:56 GMT 42.472446 -81.289948 25,000 88 501 0
2019-01-20 13:45:50 GMT 42.472168 -81.305916 25,000 88 501 0
2019-01-20 13:45:47 GMT 42.471954 -81.317863 25,000 88 501 0
2019-01-20 13:45:44 GMT 42.471817 -81.324425 25,000 88 501 0
2019-01-20 13:45:39 GMT 42.471561 -81.339767 25,000 88 501 0
2019-01-20 13:45:36 GMT 42.471329 -81.352608 25,000 88 501 0
2019-01-20 13:45:27 GMT 42.470818 -81.381737 25,000 88 501 0
2019-01-20 13:45:24 GMT 42.470722 -81.387360 25,000 88 501 0
2019-01-20 13:45:17 GMT 42.470306 -81.411438 25,000 88 501 0
2019-01-20 13:45:14 GMT 42.470211 -81.417702 25,000 88 501 0
2019-01-20 13:45:11 GMT 42.470024 -81.428047 25,000 88 500 0
2019-01-20 13:45:08 GMT 42.469803 -81.438652 25,000 88 500 0
2019-01-20 13:45:04 GMT 42.469528 -81.453072 25,000 88 500 64
2019-01-20 13:45:01 GMT 42.469391 -81.460564 25,000 88 500 64
2019-01-20 13:44:56 GMT 42.469162 -81.474297 25,000 88 500 0
2019-01-20 13:44:53 GMT 42.468906 -81.487450 25,000 88 500 0
2019-01-20 13:44:50 GMT 42.468769 -81.495239 25,000 88 500 0
2019-01-20 13:44:44 GMT 42.468384 -81.514313 25,000 88 500 0
2019-01-20 13:44:40 GMT 42.468163 -81.525520 25,000 88 500 0
2019-01-20 13:44:33 GMT 42.467743 -81.547104 25,000 88 500 0
2019-01-20 13:44:30 GMT 42.467560 -81.557755 25,000 88 500 0
2019-01-20 13:44:23 GMT 42.467045 -81.581154 25,000 88 500 -64
2019-01-20 13:44:20 GMT 42.466908 -81.588692 25,000 88 501 0
2019-01-20 13:44:14 GMT 42.466534 -81.606194 25,000 88 501 64
2019-01-20 13:44:11 GMT 42.466301 -81.617111 25,000 88 501 64
2019-01-20 13:44:08 GMT 42.466232 -81.622177 25,000 88 501 0
2019-01-20 13:44:02 GMT 42.465744 -81.645660 25,000 88 502 0
2019-01-20 13:43:59 GMT 42.465557 -81.654099 25,000 88 502 0
2019-01-20 13:43:52 GMT 42.465137 -81.674149 25,000 88 502 0
2019-01-20 13:43:49 GMT 42.464905 -81.683861 25,000 88 503 64
2019-01-20 13:43:41 GMT 42.464172 -81.718430 25,000 88 503 -256
2019-01-20 13:43:32 GMT 42.463650 -81.741669 25,000 88 502 128
2019-01-20 13:43:28 GMT 42.463394 -81.755447 25,000 88 503 0
2019-01-20 13:43:21 GMT 42.462982 -81.774300 25,000 88 503 0
2019-01-20 13:43:18 GMT 42.462765 -81.784081 25,000 88 503 0
2019-01-20 13:43:15 GMT 42.462616 -81.792213 25,000 88 504 64
2019-01-20 13:43:10 GMT 42.462250 -81.807320 25,000 88 503 -64
2019-01-20 13:43:07 GMT 42.462067 -81.816780 25,000 88 503 -64
2019-01-20 13:43:04 GMT 42.461792 -81.829353 25,000 88 504 0
2019-01-20 13:42:57 GMT 42.461151 -81.857635 25,000 88 504 64
2019-01-20 13:42:51 GMT 42.460876 -81.869621 25,000 88 504 0
2019-01-20 13:42:48 GMT 42.460785 -81.875298 25,000 88 504 0
2019-01-20 13:42:45 GMT 42.460556 -81.883789 25,000 88 504 -64
2019-01-20 13:42:38 GMT 42.459969 -81.909912 25,000 88 504 64
2019-01-20 13:42:34 GMT 42.459778 -81.918060 25,000 88 504 0
2019-01-20 13:42:27 GMT 42.459179 -81.943314 25,000 88 504 0
2019-01-20 13:42:24 GMT 42.459038 -81.949577 25,000 88 504 0
2019-01-20 13:42:17 GMT 42.458450 -81.974800 25,000 88 505 0
2019-01-20 13:42:14 GMT 42.458248 -81.983620 25,000 88 505 0
2019-01-20 13:42:06 GMT 42.457626 -82.009193 25,000 88 505 0
2019-01-20 13:42:03 GMT 42.457272 -82.023033 25,000 88 505 -64
2019-01-20 13:41:58 GMT 42.456985 -82.035660 25,000 88 505 -64
2019-01-20 13:41:55 GMT 42.456806 -82.042000 25,000 88 505 64
2019-01-20 13:41:52 GMT 42.456482 -82.054573 25,000 88 505 64
2019-01-20 13:41:45 GMT 42.455967 -82.077003 25,000 88 505 0
2019-01-20 13:41:41 GMT 42.455658 -82.088036 25,000 88 506 0
2019-01-20 13:41:35 GMT 42.455109 -82.110191 25,000 88 506 0
2019-01-20 13:41:30 GMT 42.454742 -82.124367 25,000 88 506 0
2019-01-20 13:41:24 GMT 42.454243 -82.144325 25,000 88 506 0
2019-01-20 13:41:21 GMT 42.454102 -82.151268 25,000 88 506 0
2019-01-20 13:41:16 GMT 42.453735 -82.165497 25,000 88 506 0
2019-01-20 13:41:13 GMT 42.453461 -82.176544 25,000 88 506 0
2019-01-20 13:41:10 GMT 42.453278 -82.184479 25,000 88 506 0
2019-01-20 13:41:06 GMT 42.452847 -82.200279 25,000 88 506 0
2019-01-20 13:41:03 GMT 42.452663 -82.208199 25,000 88 506 0
2019-01-20 13:41:00 GMT 42.452408 -82.217682 25,000 87 506 0
2019-01-20 13:40:52 GMT 42.451683 -82.246140 25,000 87 507 0
2019-01-20 13:40:49 GMT 42.451546 -82.251190 25,000 87 507 0
2019-01-20 13:40:44 GMT 42.451035 -82.271118 25,000 87 507 0
2019-01-20 13:40:35 GMT 42.450165 -82.305946 25,000 87 507 0
2019-01-20 13:40:30 GMT 42.449963 -82.313278 25,000 87 507 0
2019-01-20 13:40:27 GMT 42.449776 -82.319916 25,000 87 507 0
2019-01-20 13:40:23 GMT 42.449356 -82.336716 25,000 87 507 0
2019-01-20 13:40:20 GMT 42.449078 -82.346809 25,000 87 507 -64
2019-01-20 13:40:15 GMT 42.448799 -82.357925 25,000 87 507 -64
2019-01-20 13:40:12 GMT 42.448471 -82.368973 25,000 87 507 0
2019-01-20 13:40:09 GMT 42.448059 -82.383537 25,000 87 507 0
2019-01-20 13:40:05 GMT 42.447830 -82.392090 25,000 87 507 0
2019-01-20 13:39:59 GMT 42.447327 -82.410446 25,000 87 507 0
2019-01-20 13:39:55 GMT 42.446938 -82.424416 25,000 87 507 64
2019-01-20 13:39:50 GMT 42.446503 -82.439911 25,000 87 507 0
2019-01-20 13:39:45 GMT 42.446144 -82.452583 25,000 87 507 -64
2019-01-20 13:39:42 GMT 42.445724 -82.465874 25,000 87 507 -64
2019-01-20 13:39:38 GMT 42.445492 -82.475388 25,000 87 507 0
2019-01-20 13:39:35 GMT 42.445168 -82.485863 25,000 87 507 -64
2019-01-20 13:39:32 GMT 42.444839 -82.497551 25,000 87 507 0
2019-01-20 13:39:27 GMT 42.444305 -82.514938 25,000 87 507 0
2019-01-20 13:39:24 GMT 42.444187 -82.519394 25,000 87 507 0
2019-01-20 13:39:17 GMT 42.443527 -82.541222 25,000 87 507 0
2019-01-20 13:39:14 GMT 42.443207 -82.552330 25,000 87 507 0
2019-01-20 13:39:08 GMT 42.442654 -82.572922 25,000 87 507 -64
2019-01-20 13:39:00 GMT 42.441925 -82.596962 25,000 87 507 0
2019-01-20 13:38:57 GMT 42.441673 -82.605499 25,000 87 507 0
2019-01-20 13:38:52 GMT 42.441212 -82.620705 25,000 87 507 0
2019-01-20 13:38:46 GMT 42.440643 -82.640038 25,000 87 507 0
2019-01-20 13:38:41 GMT 42.440186 -82.654892 25,000 87 507 0
2019-01-20 13:38:36 GMT 42.439682 -82.671997 25,000 87 507 0
2019-01-20 13:38:32 GMT 42.439255 -82.686874 25,000 87 507 0
2019-01-20 13:38:25 GMT 42.438675 -82.706825 25,000 87 507 0
2019-01-20 13:38:21 GMT 42.438263 -82.719810 25,000 87 507 0
2019-01-20 13:38:17 GMT 42.437813 -82.735672 25,000 87 507 0
2019-01-20 13:38:08 GMT 42.436981 -82.763504 25,000 87 507 0
2019-01-20 13:38:05 GMT 42.436787 -82.770485 25,000 87 507 64
2019-01-20 13:37:58 GMT 42.435997 -82.795204 25,000 87 507 0
2019-01-20 13:37:54 GMT 42.435669 -82.805939 25,000 87 507 0
2019-01-20 13:37:50 GMT 42.435242 -82.819939 25,000 87 508 0
2019-01-20 13:37:44 GMT 42.434738 -82.836105 25,000 87 508 0
2019-01-20 13:37:41 GMT 42.434273 -82.849686 25,000 87 508 0
2019-01-20 13:37:38 GMT 42.434135 -82.855438 25,000 87 508 0
2019-01-20 13:37:33 GMT 42.433548 -82.873497 25,000 87 508 0
2019-01-20 13:37:30 GMT 42.433228 -82.883980 25,000 87 508 0
2019-01-20 13:37:22 GMT 42.432503 -82.908073 25,000 87 508 0
2019-01-20 13:37:17 GMT 42.432037 -82.922623 25,000 87 508 -64
2019-01-20 13:37:12 GMT 42.431534 -82.939728 25,000 87 508 64
2019-01-20 13:37:09 GMT 42.431248 -82.948631 25,000 87 508 0
2019-01-20 13:37:06 GMT 42.431015 -82.956871 25,000 87 508 0
2019-01-20 13:37:01 GMT 42.430435 -82.974930 25,000 87 508 0
2019-01-20 13:36:56 GMT 42.429977 -82.988602 25,000 87 508 -64
2019-01-20 13:36:51 GMT 42.429432 -83.006050 25,000 87 508 -64
2019-01-20 13:36:48 GMT 42.429153 -83.014320 25,000 87 508 0
2019-01-20 13:36:44 GMT 42.428642 -83.030449 25,000 87 508 0
2019-01-20 13:36:40 GMT 42.428375 -83.038727 25,000 87 508 0
2019-01-20 13:36:32 GMT 42.427383 -83.067627 25,000 87 509 64
2019-01-20 13:36:27 GMT 42.426590 -83.093033 25,000 87 509 -64
2019-01-20 13:36:20 GMT 42.426266 -83.101929 25,000 87 509 -64
2019-01-20 13:36:17 GMT 42.425903 -83.113319 25,000 87 509 0
2019-01-20 13:36:14 GMT 42.425613 -83.122879 25,000 87 509 -64
2019-01-20 13:36:11 GMT 42.425262 -83.133667 25,000 87 509 -64
2019-01-20 13:36:07 GMT 42.424805 -83.147652 25,000 87 509 0
2019-01-20 13:36:04 GMT 42.424667 -83.152084 25,000 87 509 0
2019-01-20 13:36:00 GMT 42.424126 -83.167015 25,000 87 509 0
2019-01-20 13:35:54 GMT 42.423340 -83.190224 25,000 87 509 0
2019-01-20 13:35:50 GMT 42.422962 -83.200424 25,000 87 509 0
2019-01-20 13:35:42 GMT 42.421967 -83.228363 25,000 87 509 0
2019-01-20 13:35:38 GMT 42.421738 -83.235664 25,000 87 509 0
2019-01-20 13:35:32 GMT 42.420776 -83.262383 25,000 87 509 0
2019-01-20 13:35:28 GMT 42.420547 -83.267815 25,000 87 510 0
2019-01-20 13:35:25 GMT 42.420170 -83.278603 25,000 87 510 0
2019-01-20 13:35:22 GMT 42.419796 -83.288506 25,000 87 510 0
2019-01-20 13:35:19 GMT 42.419472 -83.298340 25,000 87 510 0
2019-01-20 13:35:15 GMT 42.419037 -83.310135 25,000 87 510 0
2019-01-20 13:35:09 GMT 42.418304 -83.330788 25,000 87 509 0
2019-01-20 13:35:06 GMT 42.417938 -83.341599 25,000 87 509 0
2019-01-20 13:35:02 GMT 42.417526 -83.352776 25,000 87 509 0
2019-01-20 13:34:59 GMT 42.417160 -83.362633 25,000 87 509 0
2019-01-20 13:34:55 GMT 42.416702 -83.375618 25,000 87 509 0
2019-01-20 13:34:50 GMT 42.416290 -83.388039 25,000 87 509 0
2019-01-20 13:34:47 GMT 42.415878 -83.399155 25,000 87 509 0
2019-01-20 13:34:44 GMT 42.415558 -83.408073 25,000 87 509 0
2019-01-20 13:34:41 GMT 42.415092 -83.421104 25,000 87 509 0
2019-01-20 13:34:33 GMT 42.414139 -83.447159 25,000 87 509 0
2019-01-20 13:34:29 GMT 42.413746 -83.457962 25,000 87 509 0
2019-01-20 13:34:26 GMT 42.413315 -83.469437 25,000 87 509 -64
2019-01-20 13:34:23 GMT 42.413086 -83.475121 25,000 87 509 -64
2019-01-20 13:34:17 GMT 42.412254 -83.498009 25,000 87 509 0
2019-01-20 13:34:14 GMT 42.411896 -83.507515 25,000 87 509 0
2019-01-20 13:34:10 GMT 42.411415 -83.521515 25,000 87 509 0
2019-01-20 13:34:07 GMT 42.411137 -83.529503 25,000 87 509 0
2019-01-20 13:34:03 GMT 42.410717 -83.541252 25,000 87 509 0
2019-01-20 13:33:59 GMT 42.410206 -83.555557 25,000 86 509 0
2019-01-20 13:33:56 GMT 42.409367 -83.572678 25,000 84 509 0
2019-01-20 13:33:53 GMT 42.409367 -83.572678 25,000 84 509 0
2019-01-20 13:33:46 GMT 42.407547 -83.597343 25,000 82 509 0
2019-01-20 13:33:42 GMT 42.406670 -83.606850 25,000 81 509 0
2019-01-20 13:33:37 GMT 42.405029 -83.621315 25,000 79 509 0
2019-01-20 13:33:34 GMT 42.402557 -83.640099 25,000 79 509 0
2019-01-20 13:33:26 GMT 42.400059 -83.658524 25,000 79 509 0
2019-01-20 13:33:23 GMT 42.398758 -83.667877 25,000 79 509 0
2019-01-20 13:33:20 GMT 42.397934 -83.673874 25,000 79 509 0
2019-01-20 13:33:16 GMT 42.395821 -83.689507 25,000 79 509 64
2019-01-20 13:33:12 GMT 42.393906 -83.703522 25,000 79 509 0
2019-01-20 13:33:05 GMT 42.390888 -83.725723 25,000 79 509 0
2019-01-20 13:32:59 GMT 42.388699 -83.741692 25,000 79 509 0
2019-01-20 13:32:55 GMT 42.386902 -83.754768 25,000 79 509 0
2019-01-20 13:32:49 GMT 42.384842 -83.769753 25,000 79 509 0
2019-01-20 13:32:45 GMT 42.382233 -83.788544 25,000 79 508 0
2019-01-20 13:32:40 GMT 42.380219 -83.803215 25,000 79 508 64
2019-01-20 13:32:35 GMT 42.378178 -83.818207 25,000 79 508 0
2019-01-20 13:32:29 GMT 42.376053 -83.833488 25,000 79 508 0
2019-01-20 13:32:26 GMT 42.374817 -83.842537 25,000 79 508 0
2019-01-20 13:32:23 GMT 42.373569 -83.851555 25,000 79 508 0
2019-01-20 13:32:19 GMT 42.371201 -83.868752 25,000 79 508 0
2019-01-20 13:32:13 GMT 42.366959 -83.899330 25,000 79 508 0
2019-01-20 13:32:09 GMT 42.366959 -83.899330 25,000 79 508 0
2019-01-20 13:32:05 GMT 42.365662 -83.908707 25,000 79 508 0
2019-01-20 13:32:01 GMT 42.363693 -83.922752 25,000 79 508 0
2019-01-20 13:31:57 GMT 42.361679 -83.937103 25,000 79 508 0
2019-01-20 13:31:53 GMT 42.360077 -83.948654 25,000 79 509 0
2019-01-20 13:31:49 GMT 42.358429 -83.960205 25,000 79 509 0
2019-01-20 13:31:46 GMT 42.357182 -83.968956 25,000 79 509 0
2019-01-20 13:31:43 GMT 42.355270 -83.982674 25,000 79 509 0
2019-01-20 13:31:36 GMT 42.352890 -83.999527 25,000 79 509 0
2019-01-20 13:31:32 GMT 42.348633 -84.029808 25,000 79 509 0
2019-01-20 13:31:27 GMT 42.348633 -84.029808 25,000 79 509 0
2019-01-20 13:31:21 GMT 42.344612 -84.058571 25,000 79 509 0
2019-01-20 13:31:16 GMT 42.341675 -84.079491 25,000 79 509 0
2019-01-20 13:31:11 GMT 42.339725 -84.093185 25,000 79 509 0
2019-01-20 13:31:00 GMT 42.335449 -84.123810 25,000 79 509 0
2019-01-20 13:30:55 GMT 42.334419 -84.131325 25,000 79 509 0
2019-01-20 13:30:50 GMT 42.332382 -84.145660 25,000 79 509 0
2019-01-20 13:30:43 GMT 42.329483 -84.166580 25,000 79 509 0
2019-01-20 13:30:40 GMT 42.327854 -84.178459 25,000 79 509 0
2019-01-20 13:30:34 GMT 42.325424 -84.195908 25,000 79 509 0
2019-01-20 13:30:30 GMT 42.323666 -84.208420 25,000 79 509 0
2019-01-20 13:30:22 GMT 42.320801 -84.228996 25,000 79 509 0
2019-01-20 13:30:19 GMT 42.319016 -84.241852 25,000 79 509 0
2019-01-20 13:30:16 GMT 42.317413 -84.253403 25,000 79 509 0
2019-01-20 13:30:08 GMT 42.312744 -84.286797 25,000 79 509 0
2019-01-20 13:30:01 GMT 42.309586 -84.309273 25,000 79 509 0
2019-01-20 13:29:57 GMT 42.309586 -84.309273 25,000 79 509 0
2019-01-20 13:29:52 GMT 42.307022 -84.327370 25,000 92 512 0
2019-01-20 13:29:47 GMT 42.304905 -84.342422 25,000 79 510 0
2019-01-20 13:29:41 GMT 42.302532 -84.359283 25,000 79 511 0
2019-01-20 13:29:38 GMT 42.301132 -84.368935 25,000 79 510 0
2019-01-20 13:29:35 GMT 42.300156 -84.375809 25,000 79 510 0
2019-01-20 13:29:30 GMT 42.297592 -84.393974 25,000 79 510 0
2019-01-20 13:29:27 GMT 42.296478 -84.401764 25,000 79 510 0
2019-01-20 13:29:24 GMT 42.294434 -84.416451 25,000 80 511 0
2019-01-20 13:29:20 GMT 42.293289 -84.425560 25,000 92 512 0
2019-01-20 13:29:17 GMT 42.292194 -84.434975 25,000 82 511 0
2019-01-20 13:29:12 GMT 42.290428 -84.453629 25,000 84 511 0
2019-01-20 13:29:09 GMT 42.289963 -84.459633 25,000 84 511 0
2019-01-20 13:29:06 GMT 42.289215 -84.469818 25,000 85 511 0
2019-01-20 13:29:02 GMT 42.288345 -84.485672 25,000 86 511 0
2019-01-20 13:28:59 GMT 42.288071 -84.492668 25,000 87 511 0
2019-01-20 13:28:56 GMT 42.287727 -84.503517 25,000 88 511 0
2019-01-20 13:28:49 GMT 42.287521 -84.522316 25,000 90 512 0
2019-01-20 13:28:45 GMT 42.287659 -84.535675 25,000 92 511 0
2019-01-20 13:28:40 GMT 42.288025 -84.550659 25,000 92 511 0
2019-01-20 13:28:37 GMT 42.288612 -84.572624 25,000 92 512 0
2019-01-20 13:28:34 GMT 42.288612 -84.572624 25,000 92 512 0
2019-01-20 13:28:27 GMT 42.289307 -84.599098 25,000 92 512 0
2019-01-20 13:28:23 GMT 42.289490 -84.605774 25,000 92 512 0
2019-01-20 13:28:17 GMT 42.290565 -84.647552 25,000 92 512 0
2019-01-20 13:28:13 GMT 42.290565 -84.647552 25,000 92 512 0
2019-01-20 13:28:08 GMT 42.290798 -84.655533 25,000 92 512 0
2019-01-20 13:28:05 GMT 42.291321 -84.676315 25,000 92 512 0
2019-01-20 13:27:59 GMT 42.291496 -84.682365 25,000 92 512 0
2019-01-20 13:27:54 GMT 42.292511 -84.720322 25,000 92 512 0
2019-01-20 13:27:49 GMT 42.292511 -84.720322 25,000 92 512 0
2019-01-20 13:27:45 GMT 42.292648 -84.726067 25,000 92 512 0
2019-01-20 13:27:42 GMT 42.292969 -84.739105 25,000 92 511 0
2019-01-20 13:27:38 GMT 42.293266 -84.750259 25,000 92 511 0
2019-01-20 13:27:34 GMT 42.293610 -84.763641 25,000 92 511 0
2019-01-20 13:27:26 GMT 42.294296 -84.789734 25,000 91 511 0
2019-01-20 13:27:22 GMT 42.294662 -84.805382 25,000 91 511 0
2019-01-20 13:27:14 GMT 42.295174 -84.826401 25,000 91 511 0
2019-01-20 13:27:10 GMT 42.295547 -84.840065 25,000 91 511 0
2019-01-20 13:27:04 GMT 42.295944 -84.855652 25,000 92 511 0
2019-01-20 13:27:01 GMT 42.296310 -84.870010 25,000 92 511 0
2019-01-20 13:26:54 GMT 42.296806 -84.888802 25,000 92 511 0
2019-01-20 13:26:51 GMT 42.296989 -84.896790 25,000 92 511 0
2019-01-20 13:26:43 GMT 42.297783 -84.926682 25,000 92 511 0
2019-01-20 13:26:40 GMT 42.298061 -84.935944 25,000 92 511 0
2019-01-20 13:26:32 GMT 42.298668 -84.960083 25,000 91 511 0
2019-01-20 13:26:28 GMT 42.298946 -84.971268 25,000 91 511 0
2019-01-20 13:26:24 GMT 42.299286 -84.987488 25,000 91 511 0
2019-01-20 13:26:21 GMT 42.299423 -84.993233 25,000 91 511 0
2019-01-20 13:26:18 GMT 42.299652 -85.002472 25,000 91 511 0
2019-01-20 13:26:11 GMT 42.300156 -85.028557 25,000 91 511 0
2019-01-20 13:26:06 GMT 42.300339 -85.040611 25,000 91 510 0
2019-01-20 13:26:01 GMT 42.300705 -85.059708 25,000 91 510 0
2019-01-20 13:25:57 GMT 42.300888 -85.069572 25,000 91 510 0
2019-01-20 13:25:50 GMT 42.301300 -85.093735 25,000 91 510 0
2019-01-20 13:25:47 GMT 42.301460 -85.104568 25,000 91 510 0
2019-01-20 13:25:40 GMT 42.301880 -85.128395 25,000 91 509 0
2019-01-20 13:25:37 GMT 42.302032 -85.137863 25,000 91 509 0
2019-01-20 13:25:29 GMT 42.302391 -85.159760 25,000 91 509 0
2019-01-20 13:25:25 GMT 42.302628 -85.174377 25,000 91 509 0
2019-01-20 13:25:19 GMT 42.302952 -85.193733 25,000 91 508 0
2019-01-20 13:25:14 GMT 42.303177 -85.208588 25,000 91 507 0
2019-01-20 13:25:09 GMT 42.303368 -85.220627 25,000 91 508 64
2019-01-20 13:25:06 GMT 42.303589 -85.235184 25,000 91 508 64
2019-01-20 13:25:03 GMT 42.303680 -85.241234 25,000 91 508 0
2019-01-20 13:25:00 GMT 42.303833 -85.253906 25,000 91 508 0
2019-01-20 13:24:57 GMT 42.303955 -85.258965 25,000 91 508 0
2019-01-20 13:24:53 GMT 42.304161 -85.273514 25,000 91 507 0
2019-01-20 13:24:50 GMT 42.304367 -85.288048 25,000 91 507 0
2019-01-20 13:24:47 GMT 42.304485 -85.294975 25,000 91 507 0
2019-01-20 13:24:43 GMT 42.304672 -85.308578 25,000 91 507 0
2019-01-20 13:24:39 GMT 42.304859 -85.320274 25,000 91 507 0
2019-01-20 13:24:34 GMT 42.305092 -85.334129 25,000 91 506 0
2019-01-20 13:24:31 GMT 42.305191 -85.341736 25,000 91 506 0
2019-01-20 13:24:28 GMT 42.305374 -85.352722 25,000 91 506 0
2019-01-20 13:24:24 GMT 42.305649 -85.368828 25,000 91 506 0
2019-01-20 13:24:20 GMT 42.305786 -85.375443 25,000 91 506 0
2019-01-20 13:24:16 GMT 42.306061 -85.393730 25,000 91 506 64
2019-01-20 13:24:13 GMT 42.306198 -85.401283 25,000 91 506 0
2019-01-20 13:24:10 GMT 42.306381 -85.412643 25,000 91 506 0
2019-01-20 13:24:05 GMT 42.306580 -85.424644 25,000 91 506 0
2019-01-20 13:24:02 GMT 42.306702 -85.434120 25,000 91 506 0
2019-01-20 13:23:57 GMT 42.306976 -85.452034 25,000 91 506 0
2019-01-20 13:23:53 GMT 42.307140 -85.463097 25,000 91 506 0
2019-01-20 13:23:50 GMT 42.307251 -85.470322 25,000 91 506 0
2019-01-20 13:23:47 GMT 42.307419 -85.481041 25,000 91 505 0
2019-01-20 13:23:44 GMT 42.307571 -85.492363 25,000 91 505 -64
2019-01-20 13:23:41 GMT 42.307755 -85.502159 25,000 91 505 0
2019-01-20 13:23:36 GMT 42.308025 -85.518219 25,000 91 505 0
2019-01-20 13:23:33 GMT 42.308121 -85.524193 25,000 91 505 0
2019-01-20 13:23:27 GMT 42.308578 -85.550911 25,000 91 504 -64
2019-01-20 13:23:24 GMT 42.308716 -85.557465 25,000 91 504 -64
2019-01-20 13:23:19 GMT 42.309280 -85.585983 25,000 91 503 0
2019-01-20 13:23:15 GMT 42.309280 -85.585983 25,000 91 502 0
2019-01-20 13:23:11 GMT 42.309540 -85.599480 25,000 91 502 0
2019-01-20 13:23:07 GMT 42.309677 -85.605721 25,000 91 502 0
2019-01-20 13:23:03 GMT 42.309978 -85.621696 25,000 90 502 0
2019-01-20 13:22:58 GMT 42.310307 -85.638237 25,000 91 501 0
2019-01-20 13:22:53 GMT 42.310501 -85.651039 25,000 91 501 0
2019-01-20 13:22:47 GMT 42.310867 -85.672951 25,000 91 501 0
2019-01-20 13:22:42 GMT 42.311096 -85.689461 25,000 91 501 0
2019-01-20 13:22:39 GMT 42.311188 -85.695404 25,000 91 502 0
2019-01-20 13:22:36 GMT 42.311325 -85.705406 25,000 91 502 0
2019-01-20 13:22:32 GMT 42.311691 -85.732933 25,000 90 502 0
2019-01-20 13:22:27 GMT 42.311691 -85.732933 25,000 90 502 0
2019-01-20 13:22:24 GMT 42.311749 -85.739799 25,000 90 502 0
2019-01-20 13:22:20 GMT 42.311920 -85.752975 25,000 90 501 0
2019-01-20 13:22:17 GMT 42.312027 -85.762917 25,000 90 501 0
2019-01-20 13:22:13 GMT 42.312214 -85.778252 25,000 90 501 0
2019-01-20 13:22:10 GMT 42.312286 -85.785744 25,000 90 501 0
2019-01-20 13:22:07 GMT 42.312401 -85.796387 25,000 90 501 0
2019-01-20 13:22:04 GMT 42.312492 -85.806030 25,000 90 501 0
2019-01-20 13:22:00 GMT 42.312653 -85.817329 25,000 90 501 0
2019-01-20 13:21:56 GMT 42.312881 -85.837929 25,000 90 501 0
2019-01-20 13:21:50 GMT 42.313004 -85.850746 25,000 90 501 0
2019-01-20 13:21:47 GMT 42.313099 -85.860451 25,000 90 501 0
2019-01-20 13:21:44 GMT 42.313202 -85.869827 25,000 90 501 -64
2019-01-20 13:21:41 GMT 42.313293 -85.876381 25,000 90 501 -64
2019-01-20 13:21:38 GMT 42.313339 -85.883873 25,000 90 501 -64
2019-01-20 13:21:35 GMT 42.313477 -85.895111 25,000 90 501 0
2019-01-20 13:21:32 GMT 42.313522 -85.902596 25,000 90 501 0
2019-01-20 13:21:29 GMT 42.313702 -85.916344 25,000 90 501 0
2019-01-20 13:21:26 GMT 42.313797 -85.927567 25,000 90 501 0
2019-01-20 13:21:20 GMT 42.313934 -85.942276 25,000 90 501 0
2019-01-20 13:21:17 GMT 42.314026 -85.948853 25,000 90 501 0
2019-01-20 13:21:14 GMT 42.314121 -85.961632 25,000 90 501 0
2019-01-20 13:21:08 GMT 42.314308 -85.980988 25,000 90 501 0
2019-01-20 13:21:04 GMT 42.314438 -85.994736 25,000 90 501 0
2019-01-20 13:21:00 GMT 42.314541 -86.003471 25,000 90 501 0
2019-01-20 13:20:57 GMT 42.314621 -86.014084 25,000 90 502 64
2019-01-20 13:20:54 GMT 42.314758 -86.026878 25,000 90 502 0
2019-01-20 13:20:50 GMT 42.314850 -86.034744 25,000 90 502 64
2019-01-20 13:20:47 GMT 42.314941 -86.048164 25,000 90 502 64
2019-01-20 13:20:43 GMT 42.315052 -86.057571 25,000 90 502 0
2019-01-20 13:20:38 GMT 42.315239 -86.073792 25,000 90 502 0
2019-01-20 13:20:35 GMT 42.315308 -86.083496 25,000 89 502 -64
2019-01-20 13:20:32 GMT 42.315170 -86.101662 25,000 87 500 0
2019-01-20 13:20:29 GMT 42.314896 -86.111336 25,000 87 500 0
2019-01-20 13:20:26 GMT 42.314896 -86.111336 25,000 87 500 0
2019-01-20 13:20:23 GMT 42.314529 -86.122826 25,000 87 500 0
2019-01-20 13:20:20 GMT 42.314121 -86.135307 25,000 87 500 0
2019-01-20 13:20:17 GMT 42.313934 -86.140602 25,000 87 500 0
2019-01-20 13:20:14 GMT 42.313751 -86.146545 25,000 87 499 0
2019-01-20 13:20:11 GMT 42.313431 -86.156784 25,000 87 498 0
2019-01-20 13:20:08 GMT 42.313019 -86.170456 25,000 87 498 0
2019-01-20 13:20:04 GMT 42.312332 -86.191612 25,000 87 495 0
2019-01-20 13:20:00 GMT 42.312332 -86.191612 25,000 87 498 0
2019-01-20 13:19:57 GMT 42.311966 -86.203659 25,000 87 497 0
2019-01-20 13:19:54 GMT 42.311737 -86.210152 25,000 87 496 -64
2019-01-20 13:19:50 GMT 42.311234 -86.225945 25,000 87 496 -64
2019-01-20 13:19:44 GMT 42.310776 -86.241425 25,000 87 495 0
2019-01-20 13:19:40 GMT 42.310364 -86.252853 25,000 87 495 0
2019-01-20 13:19:36 GMT 42.309860 -86.267960 25,000 87 495 0
2019-01-20 13:19:33 GMT 42.309631 -86.275635 25,000 87 495 0
2019-01-20 13:19:29 GMT 42.308537 -86.308975 25,000 87 495 0
2019-01-20 13:19:23 GMT 42.308537 -86.308975 25,000 87 495 0
2019-01-20 13:19:19 GMT 42.308304 -86.316956 25,000 87 496 0
2019-01-20 13:19:12 GMT 42.307556 -86.339828 25,000 87 496 0
2019-01-20 13:19:08 GMT 42.307114 -86.352165 25,000 87 497 0
2019-01-20 13:19:05 GMT 42.306702 -86.364838 25,000 87 496 0
2019-01-20 13:19:02 GMT 42.306427 -86.371330 25,000 87 496 0
2019-01-20 13:18:59 GMT 42.306023 -86.383713 25,000 87 497 0
2019-01-20 13:18:52 GMT 42.305229 -86.404152 25,000 87 497 0
2019-01-20 13:18:46 GMT 42.304596 -86.421455 25,000 87 493 0
2019-01-20 13:18:43 GMT 42.304230 -86.431999 25,000 87 497 -64
2019-01-20 13:18:37 GMT 42.303635 -86.447174 25,000 87 497 -64
2019-01-20 13:18:31 GMT 42.302811 -86.468269 25,000 87 497 0
2019-01-20 13:18:26 GMT 42.302170 -86.485001 25,000 87 497 0
2019-01-20 13:18:21 GMT 42.301647 -86.499260 25,000 87 497 -64
2019-01-20 13:18:18 GMT 42.301369 -86.506989 25,000 87 497 0
2019-01-20 13:18:15 GMT 42.301071 -86.514397 25,000 87 497 0
2019-01-20 13:18:12 GMT 42.300613 -86.527756 25,000 87 497 64
2019-01-20 13:18:09 GMT 42.300385 -86.533936 25,000 87 497 64
2019-01-20 13:18:06 GMT 42.300018 -86.543266 25,000 87 497 0
2019-01-20 13:18:00 GMT 42.299316 -86.562431 25,000 87 497 0
2019-01-20 13:17:57 GMT 42.298920 -86.573578 25,000 87 496 0
2019-01-20 13:17:54 GMT 42.298016 -86.597687 25,000 87 495 0
2019-01-20 13:17:49 GMT 42.298016 -86.597687 25,000 87 496 0
2019-01-20 13:17:46 GMT 42.297688 -86.606697 25,000 87 496 64
2019-01-20 13:17:43 GMT 42.297272 -86.617462 25,000 87 496 64
2019-01-20 13:17:37 GMT 42.296722 -86.632942 25,000 87 495 0
2019-01-20 13:17:34 GMT 42.296337 -86.643417 25,000 86 482 1664
2019-01-20 13:17:28 GMT 42.295624 -86.662155 25,000 87 491 64
2019-01-20 13:17:22 GMT 42.294430 -86.693817 24,900 87 484 1536
2019-01-20 13:17:18 GMT 42.294430 -86.693817 24,925 87 484 1536
2019-01-20 13:17:15 GMT 42.294010 -86.704994 24,825 87 484 1664
2019-01-20 13:17:12 GMT 42.292969 -86.731506 23,825 86 482 1664
2019-01-20 13:17:06 GMT 42.292786 -86.736313 24,600 86 483 1664
2019-01-20 13:17:03 GMT 42.292194 -86.751045 24,475 86 482 1664
2019-01-20 13:16:59 GMT 42.292194 -86.751045 24,400 86 482 1664
2019-01-20 13:16:56 GMT 42.291916 -86.758522 24,325 86 481 1664
2019-01-20 13:16:53 GMT 42.291451 -86.770210 24,225 86 481 1728
2019-01-20 13:16:48 GMT 42.290955 -86.782188 24,100 86 480 1728
2019-01-20 13:16:45 GMT 42.290451 -86.794487 23,950 86 479 1792
2019-01-20 13:16:42 GMT 42.290195 -86.801064 23,900 86 477 1920
2019-01-20 13:16:38 GMT 42.289124 -86.827888 23,700 86 478 1856
2019-01-20 13:16:33 GMT 42.288849 -86.833878 23,125 86 475 1792
2019-01-20 13:16:27 GMT 42.288391 -86.844864 23,425 86 477 1920
2019-01-20 13:16:24 GMT 42.287868 -86.857658 23,325 86 477 1920
2019-01-20 13:16:20 GMT 42.287540 -86.865639 23,175 86 476 1856
2019-01-20 13:16:17 GMT 42.287201 -86.874268 23,100 86 475 1792
2019-01-20 13:16:13 GMT 42.286697 -86.886688 23,025 86 475 1792
2019-01-20 13:16:10 GMT 42.286190 -86.898537 22,900 86 474 1792
2019-01-20 13:16:06 GMT 42.285782 -86.908600 22,800 86 474 1792
2019-01-20 13:16:02 GMT 42.285416 -86.917709 22,725 86 473 1792
2019-01-20 13:15:59 GMT 42.284958 -86.928635 21,850 83 464 1664
2019-01-20 13:15:56 GMT 42.284592 -86.937187 22,525 86 472 1792
2019-01-20 13:15:52 GMT 42.284142 -86.947464 22,400 86 471 1792
2019-01-20 13:15:49 GMT 42.283722 -86.957428 22,350 86 471 1728
2019-01-20 13:15:46 GMT 42.283306 -86.967964 22,200 86 469 1728
2019-01-20 13:15:41 GMT 42.282669 -86.984062 22,050 86 467 1664
2019-01-20 13:15:35 GMT 42.282074 -86.997421 21,925 85 466 1600
2019-01-20 13:15:31 GMT 42.281342 -87.009285 21,800 83 463 1728
2019-01-20 13:15:28 GMT 42.280697 -87.017914 21,675 82 462 1792
2019-01-20 13:15:25 GMT 42.279720 -87.027946 21,675 82 462 1792
2019-01-20 13:15:22 GMT 42.278961 -87.034752 21,550 80 460 1728
2019-01-20 13:15:19 GMT 42.277809 -87.044418 21,475 79 458 1600
2019-01-20 13:15:16 GMT 42.276215 -87.055664 21,350 77 456 1664
2019-01-20 13:15:10 GMT 42.273972 -87.069206 21,225 75 454 1856
2019-01-20 13:15:07 GMT 42.272415 -87.077759 21,150 75 453 1984
2019-01-20 13:15:03 GMT 42.270309 -87.088371 21,000 73 451 2176
2019-01-20 13:15:00 GMT 42.268250 -87.097862 20,925 73 451 2112
2019-01-20 13:14:57 GMT 42.266281 -87.106163 20,575 69 446 2240
2019-01-20 13:14:54 GMT 42.264359 -87.113838 20,525 69 447 2176
2019-01-20 13:14:49 GMT 42.261337 -87.125076 20,400 68 445 2304
2019-01-20 13:14:46 GMT 42.258865 -87.133629 20,350 68 445 2304
2019-01-20 13:14:42 GMT 42.256443 -87.141891 20,225 68 444 2240
2019-01-20 13:14:39 GMT 42.253922 -87.150673 20,000 68 444 2240
2019-01-20 13:14:36 GMT 42.250992 -87.160721 20,000 68 444 2304
2019-01-20 13:14:33 GMT 42.249088 -87.167442 19,700 68 443 2432
2019-01-20 13:14:30 GMT 42.246964 -87.174644 19,725 68 443 2496
2019-01-20 13:14:27 GMT 42.244583 -87.182884 19,575 68 443 2176
2019-01-20 13:14:21 GMT 42.240616 -87.196503 19,300 68 440 2176
2019-01-20 13:14:18 GMT 42.237728 -87.206535 19,350 68 441 2048
2019-01-20 13:14:14 GMT 42.235264 -87.214966 19,150 68 440 2240
2019-01-20 13:14:11 GMT 42.232517 -87.224419 19,025 68 439 2304
2019-01-20 13:14:08 GMT 42.230576 -87.231010 18,900 68 439 2304
2019-01-20 13:14:05 GMT 42.228287 -87.238937 18,750 68 438 2304
2019-01-20 13:14:02 GMT 42.225628 -87.248055 18,625 68 437 2304
2019-01-20 13:13:59 GMT 42.223251 -87.256226 18,550 68 436 2304
2019-01-20 13:13:55 GMT 42.220551 -87.265587 18,400 68 436 2304
2019-01-20 13:13:50 GMT 42.217209 -87.276955 18,225 68 436 2368
2019-01-20 13:13:47 GMT 42.215378 -87.283318 18,150 68 431 2432
2019-01-20 13:13:44 GMT 42.212814 -87.292122 18,050 68 435 2240
2019-01-20 13:13:41 GMT 42.210449 -87.300171 17,875 68 433 2176
2019-01-20 13:13:37 GMT 42.208282 -87.307724 17,700 68 432 2304
2019-01-20 13:13:34 GMT 42.205124 -87.318527 15,275 68 426 2560
2019-01-20 13:13:30 GMT 42.202744 -87.326767 17,450 68 431 2496
2019-01-20 13:13:27 GMT 42.199722 -87.336998 17,300 68 430 2496
2019-01-20 13:13:24 GMT 42.198254 -87.342010 17,150 68 429 2496
2019-01-20 13:13:21 GMT 42.196381 -87.348488 17,175 68 429 2496
2019-01-20 13:13:17 GMT 42.192902 -87.360405 16,900 68 428 2496
2019-01-20 13:13:12 GMT 42.189922 -87.370560 15,275 68 426 2560
2019-01-20 13:13:09 GMT 42.187359 -87.379250 16,650 68 426 2560
2019-01-20 13:13:06 GMT 42.183105 -87.393806 16,375 68 425 2432
2019-01-20 13:13:00 GMT 42.180935 -87.401161 16,225 68 423 2496
2019-01-20 13:12:56 GMT 42.174652 -87.422493 15,950 68 422 2752
2019-01-20 13:12:52 GMT 42.174652 -87.422493 15,825 68 422 2688
2019-01-20 13:12:48 GMT 42.172211 -87.430824 15,750 68 421 2688
2019-01-20 13:12:45 GMT 42.169159 -87.441017 15,500 68 420 2688
2019-01-20 13:12:41 GMT 42.167084 -87.448112 15,375 68 420 2688
2019-01-20 13:12:38 GMT 42.164566 -87.456604 15,225 68 420 2560
2019-01-20 13:12:33 GMT 42.161865 -87.465530 15,075 68 419 2368
2019-01-20 13:12:30 GMT 42.157288 -87.481003 14,850 68 416 2368
2019-01-20 13:12:27 GMT 42.157288 -87.481003 14,800 68 416 2432
2019-01-20 13:12:24 GMT 42.154541 -87.490135 14,650 68 414 2560
2019-01-20 13:12:20 GMT 42.151840 -87.499237 14,400 68 413 2368
2019-01-20 13:12:16 GMT 42.149837 -87.505913 14,375 68 412 2368
2019-01-20 13:12:13 GMT 42.147232 -87.514793 14,225 68 411 2496
2019-01-20 13:12:09 GMT 42.144161 -87.525269 14,050 68 410 2368
2019-01-20 13:12:06 GMT 42.141953 -87.532883 13,925 68 409 2112
2019-01-20 13:12:03 GMT 42.139690 -87.540726 13,800 69 408 2176
2019-01-20 13:11:59 GMT 42.136917 -87.550423 13,650 68 405 2496
2019-01-20 13:11:56 GMT 42.132801 -87.564743 13,525 68 404 2624
2019-01-20 13:11:53 GMT 42.132801 -87.564743 13,375 68 403 2560
2019-01-20 13:11:50 GMT 42.131653 -87.568710 13,275 68 402 2368
2019-01-20 13:11:47 GMT 42.129318 -87.576889 13,175 68 401 2112
2019-01-20 13:11:44 GMT 42.127625 -87.582695 13,075 68 400 1984
2019-01-20 13:11:41 GMT 42.124981 -87.591949 12,950 68 396 1664
2019-01-20 13:11:38 GMT 42.122955 -87.598862 12,850 68 393 1280
2019-01-20 13:11:35 GMT 42.121582 -87.603668 12,825 68 392 1152
2019-01-20 13:11:30 GMT 42.118046 -87.616158 12,725 68 385 1152
2019-01-20 13:11:27 GMT 42.115765 -87.623955 12,675 68 380 960
2019-01-20 13:11:24 GMT 42.114807 -87.627327 12,650 68 379 960
2019-01-20 13:11:21 GMT 42.109497 -87.645370 12,525 68 371 896
2019-01-20 13:11:17 GMT 42.109497 -87.645370 12,525 68 368 960
2019-01-20 13:11:14 GMT 42.107941 -87.650459 12,500 67 365 1024
2019-01-20 13:11:11 GMT 42.105755 -87.657806 12,400 67 359 1152
2019-01-20 13:11:08 GMT 42.104370 -87.662346 12,375 67 357 1216
2019-01-20 13:11:04 GMT 42.099289 -87.678574 12,250 67 325 960
2019-01-20 13:11:01 GMT 42.099289 -87.678574 12,225 66 344 960
2019-01-20 13:10:58 GMT 42.097321 -87.684692 12,175 66 341 896
2019-01-20 13:10:54 GMT 42.094955 -87.692108 12,125 66 336 832
2019-01-20 13:10:49 GMT 42.089951 -87.708038 12,025 67 325 960
2019-01-20 13:10:46 GMT 42.089951 -87.708038 12,000 67 322 1024
2019-01-20 13:10:43 GMT 42.088531 -87.712723 11,950 67 316 1600
2019-01-20 13:10:38 GMT 42.086334 -87.719841 11,775 68 312 1984
2019-01-20 13:10:35 GMT 42.084183 -87.726952 11,725 68 311 2176
2019-01-20 13:10:32 GMT 42.082664 -87.731964 11,625 68 309 2240
2019-01-20 13:10:28 GMT 42.080570 -87.739113 11,475 68 306 2496
2019-01-20 13:10:25 GMT 42.078644 -87.745865 11,300 68 304 2816
2019-01-20 13:10:22 GMT 42.077408 -87.750053 11,175 68 303 2880
2019-01-20 13:10:18 GMT 42.075310 -87.757256 10,975 68 302 2816
2019-01-20 13:10:15 GMT 42.073654 -87.762848 10,800 68 299 2688
2019-01-20 13:10:12 GMT 42.072281 -87.767525 10,725 68 298 2816
2019-01-20 13:10:07 GMT 42.070049 -87.775139 10,175 67 295 3328
2019-01-20 13:10:04 GMT 42.068069 -87.781639 10,275 67 295 3328
2019-01-20 13:10:01 GMT 42.066788 -87.785881 10,175 67 295 3072
2019-01-20 13:09:58 GMT 42.064728 -87.792686 9,950 67 293 2880
2019-01-20 13:09:54 GMT 42.063446 -87.797119 9,750 67 291 2752
2019-01-20 13:09:51 GMT 42.061340 -87.803986 9,650 67 289 2816
2019-01-20 13:09:47 GMT 42.060059 -87.808167 9,525 67 288 2816
2019-01-20 13:09:44 GMT 42.058136 -87.814468 9,350 67 287 2944
2019-01-20 13:09:40 GMT 42.056030 -87.821526 9,125 67 284 3136
2019-01-20 13:09:35 GMT 42.053848 -87.828728 8,900 67 283 3200
2019-01-20 13:09:32 GMT 42.051956 -87.834946 8,700 67 282 3200
2019-01-20 13:09:29 GMT 42.050358 -87.840164 8,525 67 280 3136
2019-01-20 13:09:26 GMT 42.048889 -87.844994 8,325 67 279 3008
2019-01-20 13:09:22 GMT 42.047287 -87.850304 8,275 67 278 2816
2019-01-20 13:09:19 GMT 42.045704 -87.855431 8,175 67 276 2752
2019-01-20 13:09:14 GMT 42.043488 -87.862663 7,875 67 273 2944
2019-01-20 13:09:11 GMT 42.041748 -87.868340 7,625 67 270 3264
2019-01-20 13:09:04 GMT 42.037323 -87.882767 7,250 67 267 2752
2019-01-20 13:08:58 GMT 42.035889 -87.887314 7,100 67 264 2368
2019-01-20 13:08:54 GMT 42.034016 -87.893372 6,950 67 260 2560
2019-01-20 13:08:51 GMT 42.032387 -87.898735 6,775 68 256 3136
2019-01-20 13:08:47 GMT 42.030991 -87.903336 6,675 67 255 3456
2019-01-20 13:08:44 GMT 42.029343 -87.908913 6,400 68 254 3328
2019-01-20 13:08:41 GMT 42.028290 -87.912476 6,125 68 253 3392
2019-01-20 13:08:38 GMT 42.026459 -87.918587 6,150 68 252 3392
2019-01-20 13:08:34 GMT 42.024986 -87.923523 5,825 68 250 3392
2019-01-20 13:08:31 GMT 42.023727 -87.927734 5,675 68 249 3392
2019-01-20 13:08:27 GMT 42.021652 -87.934944 5,525 68 248 3520
2019-01-20 13:08:24 GMT 42.020737 -87.937943 5,225 68 247 3712
2019-01-20 13:08:20 GMT 42.018997 -87.943748 4,900 68 246 3456
2019-01-20 13:08:17 GMT 42.017578 -87.948486 4,625 68 244 3008
2019-01-20 13:08:13 GMT 42.015957 -87.954056 4,575 68 244 3008
2019-01-20 13:08:09 GMT 42.014557 -87.958969 4,325 67 240 2752
2019-01-20 13:08:06 GMT 42.013348 -87.963058 4,125 60 236 2816
2019-01-20 13:08:03 GMT 42.011997 -87.967278 4,100 60 236 2752
2019-01-20 13:08:00 GMT 42.010803 -87.970276 4,025 56 234 2496
2019-01-20 13:07:56 GMT 42.007622 -87.976601 3,825 48 227 1856
2019-01-20 13:07:53 GMT 42.005676 -87.979576 3,725 41 221 1664
2019-01-20 13:07:50 GMT 42.003803 -87.982155 3,725 41 221 1664
2019-01-20 13:07:45 GMT 41.999725 -87.986191 3,575 29 210 1728
2019-01-20 13:07:42 GMT 41.996494 -87.988541 3,275 12 202 2368
2019-01-20 13:07:39 GMT 41.989792 -87.991127 3,275 3 200 2496
2019-01-20 13:07:33 GMT 41.989792 -87.991127 3,125 3 200 2496
2019-01-20 13:07:29 GMT 41.980820 -87.990189 2,675 334 193 2176
2019-01-20 13:07:24 GMT 41.980820 -87.990189 2,400 321 192 1856
2019-01-20 13:07:21 GMT 41.978027 -87.988693 2,600 331 193 2048
2019-01-20 13:07:18 GMT 41.976757 -87.987778 2,550 326 193 2048
2019-01-20 13:07:14 GMT 41.973495 -87.984695 2,400 313 190 1408
2019-01-20 13:07:11 GMT 41.971172 -87.981583 2,225 297 186 1536
2019-01-20 13:07:08 GMT 41.969913 -87.979279 2,300 302 187 1408
2019-01-20 13:07:03 GMT 41.966721 -87.969711 2,100 281 185 1472
2019-01-20 13:07:00 GMT 41.966721 -87.969711 2,075 279 184 1408
2019-01-20 13:06:52 GMT 41.966263 -87.961098 1,875 261 179 1152
2019-01-20 13:06:49 GMT 41.966518 -87.957947 1,850 260 177 1152
2019-01-20 13:06:46 GMT 41.966858 -87.955421 1,825 260 174 1280
2019-01-20 13:06:39 GMT 41.968006 -87.946960 1,575 262 164 2112
2019-01-20 13:06:36 GMT 41.968323 -87.944305 1,500 263 163 2304
2019-01-20 13:06:31 GMT 41.968781 -87.938690 1,250 268 160 2496
2019-01-20 13:06:28 GMT 41.968918 -87.936195 1,150 270 159 2560
2019-01-20 13:06:22 GMT 41.968983 -87.930351 875 270 159 2944
2019-01-20 13:06:18 GMT 41.968983 -87.925949 625 270 161 2880
2019-01-20 13:05:49 GMT 41.969078 -87.902061 375 270 86
2019-01-20 13:05:44 GMT 41.969078 -87.899742 0 270 65
2019-01-20 13:05:36 GMT 41.969044 -87.897011 0 270 29
2019-01-20 13:05:27 GMT 41.969078 -87.896088 0 264 4
2019-01-20 13:05:17 GMT 41.969078 -87.895866 0 247 5
2019-01-20 13:04:50 GMT 41.969696 -87.895569 0 174 9
2019-01-20 13:04:43 GMT 41.969975 -87.895607 0 160 10
2019-01-20 13:04:33 GMT 41.970322 -87.895912 0 118 9
2019-01-20 13:04:23 GMT 41.970440 -87.896477 0 90 9
2019-01-20 13:04:12 GMT 41.970440 -87.897095 0 90 9
2019-01-20 13:03:49 GMT 41.970440 -87.898300 0 90 9
2019-01-20 13:03:37 GMT 41.970440 -87.898926 0 90 7
2019-01-20 13:03:28 GMT 41.970440 -87.899261 0 90 6
2019-01-20 13:03:15 GMT 41.970440 -87.899712 0 90 6
2019-01-20 13:03:07 GMT 41.970440 -87.900002 0 90 6
2019-01-20 13:02:57 GMT 41.970440 -87.900375 0 90 6
We lost coverage of the aircraft here for a total of 5 minutes
2019-01-20 12:57:29 GMT 41.970440 -87.903160 0 90 8
2019-01-20 12:56:41 GMT 41.970760 -87.904854 0 177 7
2019-01-20 12:56:28 GMT 41.971172 -87.904854 0 163 6
2019-01-20 12:56:22 GMT 41.971310 -87.904907 0 140 6
2019-01-20 12:56:13 GMT 41.971458 -87.905106 0 95 6
2019-01-20 12:56:02 GMT 41.971481 -87.905579 0 92 8
2019-01-20 12:55:50 GMT 41.971508 -87.906143 0 92 10
2019-01-20 12:55:39 GMT 41.971558 -87.906799 0 101 10
2019-01-20 12:55:31 GMT 41.971653 -87.907295 0 109 10
2019-01-20 12:55:20 GMT 41.971870 -87.907890 0 120 10
2019-01-20 12:55:07 GMT 41.972225 -87.908539 0 132 10
2019-01-20 12:54:53 GMT 41.972626 -87.909134 0 135 10
2019-01-20 12:54:49 GMT 41.972767 -87.909309 0 135 9
2019-01-20 12:54:37 GMT 41.973091 -87.909737 0 137 9
2019-01-20 12:54:28 GMT 41.973392 -87.910103 0 137 9
2019-01-20 12:54:13 GMT 41.973827 -87.910599 0 137 10
2019-01-20 12:54:04 GMT 41.974113 -87.910942 0 140 10
2019-01-20 12:53:48 GMT 41.974674 -87.911575 0 140 5
2019-01-20 12:53:30 GMT 41.975002 -87.911850 0 185 5
2019-01-20 12:53:24 GMT 41.975109 -87.911850 0 208 5
2019-01-20 12:53:12 GMT 41.975327 -87.911621 0 233 7
2019-01-20 12:53:01 GMT 41.975533 -87.911255 0 236 8
2019-01-20 12:52:53 GMT 41.975677 -87.910919 0 247 8
2019-01-20 12:52:41 GMT 41.975815 -87.910439 0 250 6
2019-01-20 12:52:31 GMT 41.975883 -87.910202 0 250 3
2019-01-20 12:52:21 GMT 41.975922 -87.910027 0 247 5
2019-01-20 12:52:11 GMT 41.976025 -87.909744 0 227 5
2019-01-20 12:52:00 GMT 41.976173 -87.909554 0 196 5
2019-01-20 12:51:47 GMT 41.976425 -87.909477 0 188 5
2019-01-20 12:51:39 GMT 41.976620 -87.909439 0 188 5
2019-01-20 12:51:28 GMT 41.976814 -87.909386 0 191 5
2019-01-20 12:51:18 GMT 41.977077 -87.909332 0 191 7
2019-01-20 12:51:07 GMT 41.977398 -87.909256 0 191 8
2019-01-20 12:50:57 GMT 41.977741 -87.909180 0 191 7
2019-01-20 12:50:46 GMT 41.978039 -87.909103 0 188 6
2019-01-20 12:50:35 GMT 41.978279 -87.909073 0 177 5
2019-01-20 12:50:18 GMT 41.978554 -87.909103 0 194 3
2019-01-20 12:50:13 GMT 41.978622 -87.909119 0 216 2
2019-01-20 12:50:04 GMT 41.978668 -87.909103 0 233 0
2019-01-20 12:49:54 GMT 41.978668 -87.909103 0 233 0
2019-01-20 12:49:42 GMT 41.978588 -87.909241 0 233 0
2019-01-20 12:49:33 GMT 41.978584 -87.909241 0 233 0
2019-01-20 12:49:21 GMT 41.978588 -87.909241 0 233 0
2019-01-20 12:49:11 GMT 41.978577 -87.909271 0 233 0
2019-01-20 12:48:55 GMT 41.978668 -87.909103 0 233 0
2019-01-20 12:48:39 GMT 41.978668 -87.909103 0 233 0
2019-01-20 12:48:30 GMT 41.978668 -87.909103 0 233 0
2019-01-20 12:48:18 GMT 41.978611 -87.909210 0 233 0
2019-01-20 12:48:01 GMT 41.978668 -87.909103 0 233 0
2019-01-20 12:47:55 GMT 41.978668 -87.909103 0 233 0
2019-01-20 12:47:31 GMT 41.978657 -87.909103 0 233 0
2019-01-20 12:47:20 GMT 41.978668 -87.909103 0 233 0
2019-01-20 12:46:41 GMT 41.978668 -87.909103 0 233 0
2019-01-20 12:46:11 GMT 41.978668 -87.909103 0 233 0
2019-01-20 12:46:01 GMT 41.978668 -87.909103 0 233 0
2019-01-20 12:45:50 GMT 41.978657 -87.909134 0 236 0
2019-01-20 12:45:40 GMT 41.978645 -87.909195 0 244 1
2019-01-20 12:45:28 GMT 41.978634 -87.909264 0 250 1
2019-01-20 12:45:18 GMT 41.978622 -87.909332 0 255 2
2019-01-20 12:44:58 GMT 41.978645 -87.909508 0 270 1

Making use of Plane Finder data

You are free to use the raw flight data, aircraft information and images provided in this report for your own purposes provided the data is correctly attributed to Plane Finder. We ask that you please credit Plane Finder and link to planefinder.net in close proximity to the content.

Optionally one of the following logos (no smaller then 150x24px) can be used and must link to planefinder.net

Embedding the Plane Finder map

You are welcome to embed the Plane Finder playback map on your website to offer visitors a more interactive experience. We suggest using the following HTML code:

<iframe src="//planefinder.net/data/report/UA342-N77536-7700-squawk-2019-01-20/map" width="800" height="600" seamless="seamless"></iframe>

Where our data comes from

Plane Finder has a global network of data feeds and antenna radars that receive data broadcast directly from aircraft. The primary technologies used are ADS-B and MLAT. We also show feeds from the FAA and a FLARM glider feed.

Click here to find out more about the Plane Finder network.

How we collect our data